GFSSE_sfc_30mbdewp_000.txt.gz
Dewpoint
67 69 69 70 70 69 68 68 67 67 67 66 66 66 65 65 65 65 66 66 65 64 63 63 63 63 63 64 65 65 66 66 65 65 65 64 63 63 63 64 63 64 65
68 69 70 70 70 69 69 68 68 68 67 66 66 66 65 65 65 65 65 63 61 60 60 61 61 61 62 63 64 65 65 65 65 65 65 65 63 63 63 63 62 65 65
69 70 69 70 70 70 69 68 69 68 67 66 66 66 65 64 64 64 63 62 61 60 59 59 60 60 61 62 63 63 63 64 64 64 64 62 62 63 64 63 63 63 65
69 70 69 69 69 70 69 69 68 67 67 67 67 66 65 64 63 63 62 62 60 59 58 58 58 58 59 60 60 60 60 60 62 62 61 61 62 63 64 63 62 63 63
69 69 69 69 70 70 69 69 68 68 68 68 67 65 64 63 62 61 61 60 59 58 57 56 56 56 57 58 59 58 58 59 60 58 57 59 63 64 64 63 64 63 63
68 69 69 69 70 69 69 69 69 68 68 67 66 65 64 63 61 60 60 58 57 56 55 55 55 57 57 58 58 58 58 59 59 55 55 57 62 64 64 64 64 63 62
68 69 69 70 70 69 69 69 69 68 67 67 66 65 64 63 62 60 58 57 57 56 56 57 57 58 58 58 57 58 58 59 59 54 54 57 62 64 64 63 63 63 61
68 69 69 69 69 69 68 68 68 67 66 66 66 64 63 63 62 60 58 58 57 56 56 58 58 58 58 58 57 58 56 59 57 54 53 55 60 64 62 60 63 61 59
68 69 69 69 69 68 68 68 68 67 66 66 65 64 63 63 61 60 59 59 59 58 57 57 58 58 58 57 57 58 57 56 52 53 52 54 61 63 61 60 61 63 62
65 65 66 67 69 68 67 67 66 66 65 65 65 64 62 62 61 61 61 59 60 59 58 59 58 58 57 57 57 58 58 51 48 49 50 52 59 60 60 60 61 61 61
64 65 66 66 67 67 66 66 65 65 64 64 63 63 62 61 60 60 61 61 60 60 60 60 60 59 59 59 58 58 57 51 47 47 47 50 57 56 57 59 60 60 60
63 64 65 65 65 65 65 65 64 63 63 62 62 62 62 61 61 61 61 61 62 62 62 62 62 62 61 59 58 57 55 53 49 46 46 50 54 54 55 56 59 58 58
63 64 64 63 63 63 63 63 61 62 61 61 61 60 60 61 61 61 61 60 59 60 59 57 58 58 58 58 56 55 55 54 51 48 46 48 54 55 54 53 54 55 56
60 61 61 61 61 61 61 61 60 60 60 60 61 61 60 60 59 56 56 53 52 52 51 52 52 53 54 52 50 50 52 51 50 48 47 48 48 52 52 52 52 54 55
56 58 58 59 59 59 58 59 59 59 60 60 61 61 59 57 53 52 51 50 50 51 50 49 49 49 49 47 46 47 47 46 45 45 46 47 49 51 51 51 50 50 53
55 56 57 58 57 55 56 57 58 59 60 61 61 58 56 53 52 50 46 45 45 47 47 47 48 46 44 43 40 43 41 42 41 46 47 47 48 49 51 52 53 54 53
54 55 57 57 57 57 57 56 57 56 56 58 55 52 52 50 46 43 41 41 42 45 44 42 43 40 39 38 37 39 36 38 39 47 47 46 46 47 49 49 50 52 52
54 57 58 59 59 58 58 58 56 51 53 51 50 48 44 41 41 40 41 41 43 40 38 38 39 36 38 37 35 35 35 37 38 47 45 44 42 41 42 44 43 44 47
58 58 59 59 57 57 56 53 49 45 45 45 43 41 39 39 39 40 41 41 38 36 37 36 37 36 36 36 35 36 34 35 42 45 43 41 41 40 40 41 41 40 39
57 58 56 55 53 50 49 49 48 45 44 44 41 39 38 38 39 39 38 38 37 36 36 36 34 36 37 39 36 34 34 34 42 44 42 41 40 39 38 38 37 36 34
53 53 53 51 49 46 46 44 43 42 45 40 39 38 36 36 36 37 38 38 37 36 37 38 37 36 35 41 37 34 35 36 39 40 41 40 39 40 39 38 37 36 32
50 47 45 45 45 44 43 45 46 45 43 40 36 35 36 36 36 37 38 38 37 36 38 38 38 35 38 40 39 38 34 34 36 34 36 38 36 38 36 35 37 38 34
41 40 38 39 39 41 44 43 40 40 40 36 37 33 35 35 36 36 37 37 37 37 37 38 38 36 37 37 38 37 33 32 34 34 32 33 33 35 34 35 36 37 35
33 34 35 36 36 37 37 37 36 37 35 38 34 32 34 34 34 35 36 37 36 37 38 38 36 35 36 31 35 33 34 33 31 30 31 31 33 33 34 35 36 37 36
36 35 36 36 36 36 37 38 37 34 36 35 33 33 33 34 35 35 36 36 36 36 36 35 32 31 32 30 32 33 34 33 33 31 27 27 28 31 34 32 36 37 36
36 35 36 37 36 36 35 36 34 34 33 31 33 33 34 34 35 36 36 36 36 35 34 33 31 31 30 30 31 31 31 29 29 30 27 27 26 29 26 32 34 35 36

GFSSE_sfc_30mbdewp_006.txt.gz
Dewpoint
63 65 69 69 69 69 69 68 68 68 67 67 67 66 66 66 66 65 64 64 62 60 60 61 61 61 61 61 61 62 62 62 63 63 63 63 63 64 63 61 60 57 64
65 66 68 68 68 69 68 68 68 68 68 67 67 66 65 65 64 63 63 62 61 59 59 58 57 56 56 57 57 57 58 59 60 61 61 61 63 63 64 62 63 60 64
65 66 65 68 68 68 68 68 68 68 67 67 66 65 65 64 63 63 63 62 60 58 57 55 54 54 55 57 58 58 58 58 58 57 57 53 55 64 62 63 64 63 62
65 65 64 67 67 68 68 68 67 67 67 67 66 65 64 63 63 63 62 61 58 56 54 53 53 54 56 58 59 59 59 59 57 53 45 53 56 62 61 60 61 62 61
65 65 64 67 67 66 67 67 67 68 68 67 65 64 63 62 62 61 60 58 55 55 55 55 55 56 58 60 59 58 59 60 56 52 46 53 54 61 61 61 59 62 61
66 65 66 66 66 66 66 66 68 68 68 67 66 64 62 61 60 59 58 56 56 57 57 57 57 59 60 60 60 58 58 56 54 44 47 51 54 63 62 62 62 61 61
65 66 66 67 66 65 66 68 68 68 68 67 66 64 63 61 58 58 57 57 58 58 58 58 59 59 60 61 61 60 59 55 40 37 38 45 52 61 62 61 60 60 59
64 65 66 66 65 66 67 68 68 67 67 66 65 64 63 61 59 59 59 59 59 59 59 59 59 60 60 61 61 61 61 55 42 41 39 40 57 59 60 62 61 60 60
65 65 64 64 65 67 68 67 67 66 66 66 65 64 62 61 61 60 61 61 61 60 60 60 60 61 61 61 60 59 59 56 46 43 40 41 57 56 55 60 61 61 60
65 65 65 64 65 64 65 67 67 66 65 65 64 62 61 60 60 61 58 60 61 61 61 61 61 61 61 60 59 58 55 54 45 43 42 48 56 55 55 56 60 60 59
63 64 63 62 63 63 63 65 65 65 64 63 61 61 60 55 55 54 58 60 62 62 62 62 61 61 60 58 57 54 53 42 44 43 42 52 56 56 54 55 57 57 58
61 64 64 64 64 64 61 61 59 57 55 55 56 58 55 59 59 59 59 61 60 60 60 55 54 55 56 48 46 48 42 45 42 43 42 53 55 56 56 55 56 58 58
60 63 63 64 64 61 59 56 53 52 55 57 60 60 59 60 59 56 54 53 54 54 50 48 47 46 50 48 45 46 43 39 37 37 46 53 55 55 56 56 57 57 58
58 61 62 59 60 60 54 52 54 54 57 57 60 61 61 60 60 55 51 51 52 49 47 45 44 47 46 44 45 43 41 38 35 35 44 53 55 54 54 55 56 57 57
54 56 58 58 57 56 55 56 57 57 58 60 60 62 60 58 58 56 53 49 47 45 44 43 42 40 38 37 40 39 37 37 36 37 37 49 51 51 51 51 51 51 52
54 56 56 54 55 57 58 59 56 56 57 60 62 61 59 58 55 57 48 44 44 43 41 39 37 35 35 35 33 36 36 35 34 38 35 40 46 47 47 47 46 46 47
54 55 55 56 58 57 56 55 56 55 56 56 58 60 59 58 57 49 45 45 42 41 40 38 36 36 35 34 33 33 34 33 33 40 38 35 37 43 44 44 43 42 43
54 55 54 56 56 56 57 55 54 54 55 53 52 52 50 47 48 47 43 43 41 38 37 37 36 34 34 34 33 31 32 30 31 40 38 39 36 35 43 40 40 39 40
54 55 55 55 54 56 57 51 50 49 47 45 43 42 44 43 44 44 42 41 40 38 38 36 34 34 31 32 30 28 29 31 31 32 36 38 39 39 38 39 38 38 36
55 56 56 53 54 56 53 51 45 42 41 40 38 38 39 40 41 40 41 41 37 35 34 34 35 34 34 35 33 30 31 29 30 32 35 36 34 36 35 37 35 33 34
56 56 55 54 54 53 50 48 45 44 42 39 38 40 39 39 38 38 36 36 38 36 38 38 35 33 32 34 30 25 23 21 27 31 33 30 31 34 32 32 32 31 29
54 54 54 53 53 49 47 45 46 45 41 38 38 39 37 37 35 35 38 37 37 36 36 38 36 32 28 32 33 27 19 18 17 27 28 27 28 30 27 26 29 29 28
55 55 53 51 46 44 45 43 42 42 40 38 36 35 38 38 37 36 37 37 37 36 35 36 35 34 30 29 30 28 23 18 20 20 22 20 25 22 24 22 24 24 23
55 53 48 43 43 41 40 40 40 37 36 37 35 36 38 39 39 37 36 37 37 35 35 36 33 33 30 24 24 23 24 24 21 18 18 20 17 17 18 19 24 20 20
44 43 42 40 38 39 39 39 37 36 35 35 35 35 35 34 35 34 34 35 35 34 35 37 35 30 28 27 24 23 22 19 18 15 14 15 15 14 14 15 18 22 20
40 41 40 38 37 37 37 38 38 36 31 27 23 20 17 15 16 19 23 33 37 37 38 35 31 31 28 25 22 20 18 17 16 15 14 13 13 13 14 15 17 17 18

GFSSE_sfc_30mbdewp_009.txt.gz
Dewpoint
62 64 69 69 69 69 68 68 67 67 68 67 67 66 66 65 64 64 64 63 62 60 59 58 56 55 55 54 56 57 58 59 60 62 62 63 63 64 62 63 61 57 63
63 63 69 69 69 68 68 68 68 68 68 67 66 66 65 63 63 63 63 62 60 58 56 55 55 53 55 56 58 58 58 58 58 58 60 62 63 63 63 63 63 59 62
64 63 64 68 69 68 68 68 68 68 67 66 65 64 63 62 63 62 62 61 58 55 54 53 52 55 57 58 59 58 59 58 57 56 56 54 60 62 61 61 62 62 60
64 63 62 68 68 68 68 67 67 67 67 66 64 63 62 62 62 61 61 59 56 54 54 53 54 56 57 57 57 57 58 58 56 57 47 46 58 61 61 61 60 61 60
64 63 65 68 66 66 66 66 66 67 67 66 64 63 61 60 60 60 58 56 57 57 57 56 57 58 59 60 59 57 56 54 54 52 46 49 53 62 62 61 60 60 61
64 65 66 66 65 65 65 65 66 68 67 66 65 62 61 59 57 57 57 58 58 57 57 57 58 59 60 61 61 61 59 53 53 35 40 51 54 62 62 61 61 60 60
65 66 65 65 65 65 65 65 67 68 67 66 64 63 60 57 56 57 58 58 58 58 58 58 59 60 60 61 61 61 59 54 47 40 38 48 54 59 62 61 59 58 58
66 65 65 65 65 64 65 67 67 67 66 65 64 62 60 59 59 58 59 59 59 59 59 59 60 60 61 61 60 59 57 55 47 42 40 46 58 56 58 62 60 60 58
62 65 65 64 64 65 66 66 66 66 65 64 64 62 60 60 60 60 60 61 61 61 61 61 61 61 61 60 58 56 54 54 52 42 41 45 57 56 55 57 60 60 58
66 65 64 64 64 65 66 66 65 65 64 63 63 61 60 59 59 58 58 61 62 62 62 63 62 61 59 57 58 52 49 51 41 40 46 53 57 57 55 56 56 58 58
64 64 63 63 62 62 64 64 64 63 62 61 60 58 58 56 54 54 55 59 61 61 60 60 55 54 54 55 58 51 47 40 40 38 44 54 55 56 57 56 56 57 57
61 61 62 62 62 61 57 58 55 53 52 53 55 55 53 56 55 49 54 56 57 57 55 55 52 51 54 44 44 47 40 40 36 35 45 49 54 53 55 57 58 58 59
59 61 61 61 60 57 54 51 49 49 52 56 58 55 58 55 57 54 52 52 52 54 49 49 47 46 47 45 43 42 41 38 34 34 49 50 53 51 53 56 57 58 59
58 60 58 56 56 55 50 48 49 53 54 54 57 57 57 55 56 55 53 53 50 49 48 46 45 45 43 40 39 40 38 37 36 36 48 51 52 49 49 52 53 54 55
52 54 53 54 55 54 52 54 55 57 58 59 59 60 58 56 56 54 55 53 53 47 46 46 44 40 37 36 36 35 36 36 35 34 36 48 50 50 49 48 49 50 50
51 54 54 52 54 55 57 57 54 55 55 55 58 60 59 55 55 53 52 51 47 46 45 42 39 38 37 37 36 36 35 35 35 35 36 42 47 47 47 47 47 47 47
51 52 53 56 57 56 55 53 53 53 55 53 56 60 61 58 57 56 49 48 47 43 40 38 38 37 36 35 35 34 34 32 33 32 36 38 41 46 46 45 44 43 43
51 51 54 56 55 54 56 55 57 55 54 53 52 53 51 48 48 48 47 45 43 42 41 41 39 37 37 34 34 33 32 30 31 33 32 34 36 37 41 41 40 39 38
52 52 53 55 54 57 57 53 52 52 49 46 45 44 44 43 43 43 42 42 43 39 38 38 36 37 36 36 34 33 34 32 32 30 28 33 36 36 37 35 39 38 36
52 53 54 54 53 56 53 51 47 45 43 42 40 41 41 41 42 42 40 42 41 37 38 39 40 39 37 35 32 33 33 26 26 26 29 32 32 31 33 33 32 31 35
53 54 55 53 53 53 49 47 45 44 43 41 40 41 41 40 39 40 39 39 39 38 39 39 39 38 35 31 28 30 28 28 26 22 25 30 30 28 29 30 29 28 28
53 54 54 53 53 48 46 44 45 44 41 39 41 41 39 40 39 38 39 39 38 38 37 37 37 36 31 28 26 27 23 21 19 24 23 23 26 24 25 24 25 24 26
54 53 53 51 48 45 45 44 42 41 41 39 38 37 39 40 40 39 37 37 37 36 32 33 33 34 31 28 26 24 22 20 21 21 20 21 25 23 23 21 21 20 23
53 53 49 47 45 44 40 41 41 39 37 39 37 38 37 36 34 31 29 30 32 34 33 31 31 34 32 27 26 25 25 24 21 19 17 17 18 18 21 20 17 18 19
51 50 46 44 40 40 41 41 39 38 36 35 32 27 22 20 18 17 17 21 27 31 33 33 34 34 31 30 28 26 24 21 18 17 15 15 15 15 16 17 17 17 18
47 45 43 39 39 40 41 41 40 34 28 24 22 19 17 17 17 19 23 26 27 28 34 34 35 33 35 32 27 23 21 18 16 16 16 17 16 15 15 16 18 18 19

GFSSE_sfc_30mbdewp_012.txt.gz
Dewpoint
63 67 69 69 69 68 68 67 68 68 68 68 67 66 65 64 65 64 64 62 60 57 55 54 53 54 55 57 57 58 57 57 57 60 62 63 64 63 63 63 61 60 64
64 66 69 69 68 68 67 68 68 68 68 67 66 65 64 64 64 64 63 61 58 55 54 53 56 56 57 58 58 58 58 59 59 60 60 63 63 63 62 63 63 62 63
63 65 66 68 68 68 68 68 68 68 67 66 65 64 63 63 62 63 62 59 57 54 53 55 55 55 55 56 57 57 57 58 59 59 61 61 61 61 61 63 62 62 62
62 62 65 68 68 67 68 68 67 67 66 65 64 62 62 61 60 60 60 59 58 57 56 56 57 58 59 60 60 60 59 58 57 57 51 57 59 63 61 62 62 61 62
62 61 67 68 65 66 66 66 67 67 66 65 63 61 59 59 58 58 60 60 58 57 57 57 58 60 61 61 60 59 57 56 55 51 53 56 58 62 61 61 61 61 62
64 64 67 65 64 65 65 67 68 67 66 65 63 61 57 56 56 59 61 60 58 58 58 58 59 60 61 61 60 59 56 55 56 44 49 55 59 62 62 60 61 61 61
66 66 66 64 65 65 65 67 67 67 66 65 63 60 58 56 57 59 60 60 59 59 59 59 60 61 61 60 58 56 53 53 53 46 50 55 58 58 61 61 61 61 59
65 66 65 65 65 66 66 67 66 66 65 64 62 60 59 60 60 60 61 60 60 61 61 61 61 61 61 60 57 53 52 50 50 50 50 56 59 56 55 58 61 61 59
66 65 64 65 66 66 66 66 65 64 63 63 61 60 59 60 60 60 61 61 61 62 62 62 61 60 59 58 57 53 50 49 49 49 51 56 59 56 56 56 58 59 59
64 66 64 65 65 66 65 64 63 63 62 61 58 58 59 58 57 58 59 60 60 60 59 59 56 54 55 56 55 55 50 46 42 46 51 57 57 56 58 57 57 59 59
62 64 64 64 64 66 65 64 63 61 60 59 57 58 58 58 58 58 57 57 57 56 55 56 52 50 52 54 55 56 53 43 42 43 48 54 53 52 55 58 59 59 60
61 62 62 63 63 64 60 62 60 59 57 58 56 57 59 58 51 51 57 53 55 54 52 54 52 51 52 48 48 50 45 43 41 41 51 53 51 50 53 56 57 58 59
60 61 62 62 63 60 58 58 54 56 56 58 57 59 58 59 58 57 58 58 57 56 54 53 51 51 47 46 45 44 44 41 40 39 50 51 50 48 49 52 53 54 55
58 60 61 60 56 54 52 51 52 55 58 58 59 57 58 60 59 58 57 55 53 53 51 51 49 47 44 43 41 41 41 39 41 39 51 49 49 46 46 47 49 50 50
55 54 55 57 55 55 54 58 60 59 60 60 61 60 59 58 57 56 55 54 54 52 50 45 44 42 40 40 39 40 39 38 38 39 41 46 47 47 46 47 48 49 48
52 54 55 55 56 57 60 57 56 57 57 57 59 61 60 58 57 56 54 48 49 45 44 44 44 42 41 41 39 40 39 37 38 40 37 45 48 49 48 47 46 45 44
53 53 53 55 60 59 57 56 56 53 55 57 60 60 60 57 54 50 48 50 47 44 43 44 42 40 40 39 39 39 38 37 36 37 38 36 47 48 48 44 42 41 40
52 53 55 57 59 58 56 55 57 57 55 53 54 51 49 47 48 49 47 46 46 44 42 42 42 42 41 40 40 38 39 37 34 34 37 34 36 42 45 43 41 40 39
51 54 56 57 58 55 57 56 55 53 49 47 47 47 45 45 45 46 46 47 44 44 42 43 44 43 42 41 39 34 37 34 34 31 30 30 34 39 37 43 41 38 37
52 53 57 57 58 57 56 52 52 49 47 45 44 44 44 43 44 43 46 43 43 43 42 44 43 44 42 40 33 30 34 34 31 33 32 30 30 31 34 33 33 31 32
54 54 55 56 56 57 53 49 47 45 45 45 43 43 43 42 41 42 43 43 42 42 43 41 41 40 39 37 32 30 30 30 28 30 27 27 27 28 31 33 29 28 27
54 54 55 54 55 54 49 50 49 46 44 43 44 43 43 43 41 40 42 41 42 41 40 41 37 37 37 36 31 30 27 26 27 27 28 27 25 27 28 25 27 25 27
55 55 55 54 54 49 49 47 45 44 44 43 43 43 42 41 38 36 36 37 38 38 38 38 36 37 35 34 33 29 28 26 26 27 23 24 25 25 26 27 23 23 23
55 55 54 52 48 46 44 44 43 42 41 40 40 36 33 29 25 23 25 30 31 34 36 39 35 38 37 33 32 32 30 28 24 21 21 20 21 20 23 25 23 23 22
55 54 51 47 43 42 43 43 42 40 39 36 30 27 26 24 26 25 27 32 33 33 33 37 40 39 38 36 33 30 27 25 23 20 19 19 20 21 21 23 22 23 23
54 51 47 42 41 43 44 44 38 33 29 28 24 23 25 26 25 27 31 33 35 36 37 40 39 38 38 36 34 30 26 22 22 22 21 21 20 20 21 21 22 23 24

GFSSE_sfc_30mbdewp_015.txt.gz
Dewpoint
67 70 70 70 69 68 68 68 68 69 68 67 66 66 65 64 64 63 62 60 58 55 55 56 56 55 55 55 56 57 59 60 61 61 63 63 63 63 62 64 62 63 64
68 69 69 69 68 68 68 69 69 68 68 66 66 65 65 64 63 62 60 59 57 55 55 54 54 54 55 56 58 58 58 60 60 60 61 62 62 61 63 64 64 64 64
66 68 68 68 68 68 69 69 68 68 66 64 64 64 63 62 60 61 60 59 58 56 56 56 57 58 58 59 60 60 59 60 61 61 62 62 62 61 63 63 63 63 64
66 67 67 68 68 68 68 69 67 66 65 64 63 63 62 60 59 61 61 61 59 57 57 58 58 58 58 59 59 59 59 59 57 57 58 59 61 61 61 62 61 61 62
64 66 67 67 67 67 68 68 67 66 65 63 62 61 59 58 59 60 61 60 59 58 58 58 58 59 60 59 58 57 56 57 54 54 56 59 61 61 60 60 60 59 61
66 67 66 65 65 67 67 67 67 65 64 63 61 59 57 58 60 61 61 60 58 58 58 59 59 60 59 57 57 55 53 57 50 51 57 59 60 61 61 61 62 60 59
66 65 65 64 64 66 66 67 66 65 64 62 61 59 59 59 59 60 62 61 59 59 59 60 60 60 59 57 58 56 51 51 50 52 56 57 58 56 57 60 61 61 60
64 65 66 66 66 66 65 66 65 64 63 61 60 60 60 61 61 61 61 61 61 61 61 61 60 59 58 57 55 57 54 54 50 51 55 58 59 56 56 57 60 60 60
64 63 65 66 64 65 64 64 64 64 62 59 60 60 59 59 60 60 61 61 60 59 59 58 56 56 56 56 53 54 55 52 50 52 55 58 59 57 57 57 59 61 60
62 62 63 64 65 65 64 64 62 60 58 57 58 58 58 59 59 59 59 59 58 56 55 55 52 52 54 54 56 54 54 43 45 48 54 57 56 55 57 58 59 60 61
62 59 60 61 63 63 63 63 60 59 57 57 58 57 58 58 58 59 58 57 55 54 53 52 51 52 51 48 51 52 47 41 43 47 53 54 53 53 56 57 58 58 58
60 59 59 62 64 63 61 61 60 60 58 56 56 57 57 58 58 57 57 57 57 56 54 54 53 53 51 46 45 45 43 40 41 47 52 52 51 49 53 53 54 53 53
61 62 61 62 63 62 59 59 57 56 57 58 58 57 59 59 59 58 56 56 56 56 54 53 48 45 43 41 41 43 40 37 40 42 50 48 49 46 48 49 50 51 51
61 61 60 62 62 59 60 59 55 56 59 58 59 59 59 58 57 55 54 53 53 52 46 46 44 42 40 40 38 40 39 38 40 40 49 46 47 45 46 48 49 50 50
60 60 60 57 57 55 57 59 59 59 60 61 60 60 59 57 55 55 54 50 47 45 45 43 42 40 40 39 40 41 39 38 38 40 44 47 45 46 47 49 49 48 47
57 56 55 55 57 58 56 56 56 55 56 59 61 61 60 58 57 51 49 48 45 44 44 42 40 40 39 39 39 40 38 37 35 34 37 42 48 49 48 47 45 43 42
55 55 54 56 58 56 57 55 52 56 58 58 55 55 55 53 49 47 49 46 45 44 42 42 43 43 42 42 40 40 39 35 34 33 33 34 47 49 48 43 41 40 40
53 52 54 59 58 56 55 53 55 55 53 52 50 48 48 48 49 48 46 45 43 43 44 44 43 42 42 41 41 37 36 34 32 31 31 32 38 47 46 43 41 40 38
52 52 58 58 55 53 54 57 54 49 48 48 48 46 45 46 45 47 46 43 42 44 44 43 43 43 41 42 35 31 34 33 30 32 28 26 29 31 41 45 40 38 32
53 56 58 56 53 55 56 53 51 48 48 47 44 45 43 43 41 44 45 44 44 43 42 41 40 41 42 38 34 31 31 32 30 29 28 28 27 26 31 29 28 29 32
55 57 57 56 53 57 52 50 49 46 44 43 43 42 43 43 44 41 41 40 41 40 40 41 39 35 35 37 31 30 29 30 28 28 29 25 26 27 28 26 29 27 28
55 56 56 56 55 56 51 49 48 45 43 42 44 43 42 41 41 40 39 40 39 39 38 39 37 34 38 35 31 31 27 28 27 27 24 23 24 25 25 27 25 25 26
54 55 55 55 54 54 50 48 45 44 45 44 44 43 40 29 24 26 31 30 30 32 35 38 38 36 34 35 33 30 27 26 26 25 22 23 23 22 24 23 25 22 23
55 55 55 54 51 49 45 43 41 42 41 42 37 31 25 25 24 27 31 31 32 33 31 34 39 39 36 33 33 31 29 27 23 21 22 21 22 21 22 22 24 23 24
57 56 55 48 45 45 44 43 43 41 33 30 27 25 23 26 27 30 30 31 34 35 37 39 38 38 36 34 32 30 28 25 22 21 20 22 22 22 22 24 23 23 25
56 54 46 43 43 45 44 41 38 31 27 24 24 24 23 26 28 30 29 33 34 37 39 38 38 38 37 35 34 32 28 24 23 22 21 21 20 22 21 21 22 23 23

GFSSE_sfc_30mbdewp_021.txt.gz
Dewpoint
67 69 69 68 68 69 69 68 66 66 65 65 64 62 61 60 60 61 61 59 58 57 57 57 56 57 57 59 61 62 61 62 63 64 64 63 63 63 63 64 64 63 63
67 69 69 68 68 68 68 68 67 66 65 63 63 62 61 61 61 61 60 60 60 57 56 56 56 56 57 60 63 63 62 63 64 64 63 63 62 62 62 63 63 63 63
67 68 68 68 68 69 68 67 66 65 64 62 61 61 60 61 61 61 61 61 59 57 55 55 55 55 56 60 63 64 63 64 64 63 62 61 61 60 60 58 58 58 61
67 68 67 68 69 68 68 67 65 63 62 62 60 60 60 60 61 62 62 61 59 57 56 56 56 56 57 59 60 60 61 60 62 61 61 60 59 59 60 59 57 55 55
67 67 67 68 68 68 67 65 65 64 64 62 61 60 60 60 60 61 62 61 59 57 57 56 57 58 59 58 59 58 58 59 60 60 61 60 59 57 58 58 57 57 56
66 67 67 68 68 67 66 66 65 65 63 61 62 62 61 60 60 62 62 60 58 57 57 57 57 59 59 55 59 56 56 57 56 57 57 59 58 57 57 57 57 58 58
66 66 66 67 67 65 66 65 65 64 63 62 63 63 63 62 61 63 62 61 60 58 58 57 56 56 58 52 55 55 55 55 54 56 57 59 59 57 58 59 60 60 60
63 63 64 65 65 63 65 65 64 63 62 63 63 63 63 63 63 62 62 61 60 59 58 55 55 56 57 52 50 55 54 52 53 55 57 59 59 57 58 60 61 61 60
61 61 61 63 62 61 63 64 62 62 62 63 63 63 63 62 61 61 60 59 59 58 55 55 54 56 56 53 49 53 49 50 48 53 55 57 57 55 57 58 58 58 59
59 60 59 60 62 62 62 62 60 59 61 62 62 61 61 60 60 60 60 59 57 56 56 55 56 53 57 52 48 51 50 46 46 49 53 56 54 54 55 55 54 55 55
58 59 59 59 58 60 62 62 61 59 60 60 60 59 60 60 59 58 58 57 55 56 56 57 53 49 48 50 49 45 43 45 45 48 51 52 50 51 53 53 53 52 52
56 57 57 56 58 62 62 61 59 58 59 58 58 58 58 58 59 57 58 57 57 55 54 49 45 43 41 42 41 40 39 41 42 47 49 50 47 46 50 53 53 52 52
57 58 59 59 61 63 60 60 58 58 57 57 57 56 57 58 58 56 54 52 48 46 43 42 41 41 40 41 40 39 38 37 39 43 48 50 49 44 48 51 53 51 50
58 59 60 60 62 62 60 58 57 56 56 56 56 58 58 56 54 54 50 47 45 44 42 42 41 40 40 41 39 38 36 34 34 36 40 47 49 47 45 50 52 50 48
56 57 58 59 63 61 59 57 56 56 58 59 58 59 57 54 52 47 45 44 44 43 42 40 40 40 40 40 40 37 35 33 33 35 36 45 49 50 45 50 49 47 46
58 56 57 59 62 60 58 55 56 59 60 60 59 58 56 53 48 46 44 43 43 43 43 42 42 41 41 40 38 36 35 31 29 30 32 40 52 52 49 47 44 43 43
59 59 59 60 60 59 57 57 58 60 60 59 58 57 55 51 49 46 45 45 45 43 43 43 42 42 41 40 35 35 33 29 28 28 28 29 42 49 45 44 41 42 42
59 59 58 59 58 57 56 57 59 58 57 57 56 55 53 49 47 45 43 44 45 44 43 42 42 41 41 37 32 34 32 31 27 27 27 30 32 37 40 37 39 36 36
59 57 57 57 57 55 55 57 56 56 54 52 50 48 49 48 47 43 43 44 43 42 41 40 41 41 39 36 32 34 31 29 27 26 25 27 28 28 27 32 36 36 32
57 55 57 56 55 54 55 53 50 49 48 47 46 46 46 47 45 44 43 42 41 40 39 39 35 36 38 37 31 30 30 29 27 26 24 24 24 24 23 24 28 28 34
55 56 57 55 54 55 51 49 46 45 45 45 44 43 45 44 42 41 42 40 39 38 40 38 37 34 35 34 31 31 30 29 27 25 24 23 23 24 23 24 26 25 25
54 56 56 54 54 54 50 47 46 45 44 43 44 43 42 42 41 40 35 32 33 32 33 36 37 35 37 34 31 30 28 29 28 25 24 23 22 24 23 24 24 23 24
53 56 55 54 54 54 50 47 45 44 43 43 42 42 38 34 31 30 30 31 32 31 31 33 37 36 34 32 32 31 28 26 26 26 23 23 23 23 23 23 22 23 25
53 56 56 54 55 54 50 46 44 42 41 42 42 33 27 31 31 32 32 34 35 35 35 38 38 37 35 32 31 30 28 27 25 23 23 23 24 21 21 23 21 23 24
53 55 57 54 54 55 50 47 44 44 43 41 33 26 28 32 32 32 34 34 37 38 38 36 35 35 34 33 32 31 29 27 24 22 20 21 23 22 22 22 22 23 23
55 56 57 55 54 55 51 48 45 45 42 36 27 25 28 31 30 33 34 35 39 38 37 37 36 35 35 34 34 32 29 26 23 23 22 21 21 21 22 22 22 22 24

GFSSE_sfc_30mbdewp_024.txt.gz
Dewpoint
67 69 68 68 68 68 67 67 67 66 65 64 63 62 61 61 62 61 60 61 61 59 57 58 59 61 62 62 61 62 64 64 65 65 64 62 62 63 63 63 63 63 63
68 69 68 68 68 67 66 66 66 65 64 63 62 62 61 62 61 61 61 61 60 59 57 57 60 62 63 63 62 64 64 65 64 63 63 61 60 59 58 58 60 60 62
67 68 68 68 68 67 67 66 65 64 63 62 62 62 62 62 62 62 61 61 60 59 56 55 59 62 63 64 64 65 64 63 63 63 61 60 59 59 58 57 56 56 56
67 67 67 68 68 67 66 66 65 63 62 61 61 61 62 62 62 63 61 60 60 59 56 54 55 59 61 63 64 63 63 63 63 61 60 59 58 57 56 55 55 55 56
67 67 68 68 68 67 66 65 64 63 62 62 61 61 61 61 61 62 61 61 60 59 56 55 54 57 60 59 60 61 61 60 60 59 60 59 57 56 56 57 58 57 57
67 67 67 67 67 66 66 65 65 64 62 62 62 62 62 61 61 62 61 60 59 58 56 56 54 57 60 58 59 59 59 59 58 58 58 59 57 57 59 59 59 59 59
65 66 65 65 65 66 66 65 65 63 63 63 63 63 62 63 62 62 62 61 60 59 58 58 57 56 57 56 56 56 57 56 55 57 58 59 59 57 58 60 60 60 59
61 62 65 64 63 64 66 65 64 64 64 64 64 64 64 63 63 62 61 61 59 58 58 59 58 53 56 57 56 54 53 54 55 56 57 58 57 57 57 59 59 59 59
61 61 61 62 62 63 64 64 63 63 64 64 64 64 63 62 61 61 60 60 59 57 57 59 60 56 52 56 55 54 53 51 51 54 56 57 56 55 54 55 56 57 57
60 60 60 60 60 60 62 62 62 62 63 63 63 62 61 61 61 60 60 59 57 57 57 55 59 54 52 53 54 51 48 47 48 51 53 55 54 53 53 53 53 52 53
58 58 58 59 59 58 62 60 60 61 62 61 60 60 60 60 59 56 58 57 56 57 56 53 53 54 52 51 49 46 44 45 46 48 49 53 50 51 53 53 53 52 52
56 57 57 57 57 55 61 61 58 59 59 59 59 58 58 58 57 58 58 58 58 57 53 50 47 46 42 40 41 40 38 40 41 47 49 52 48 47 52 53 53 52 52
57 57 58 57 57 56 61 60 57 57 57 57 57 57 58 58 58 54 53 48 46 44 42 41 41 42 40 40 38 36 35 35 37 39 49 51 50 46 49 53 52 51 49
54 55 56 57 60 62 60 58 57 55 56 56 56 57 57 56 53 50 48 45 43 43 41 41 41 41 40 40 37 34 33 33 34 35 42 51 51 48 46 53 52 49 47
55 54 57 60 61 62 59 57 56 54 55 55 56 59 57 54 51 46 45 44 43 42 40 40 41 41 40 39 36 34 31 30 31 34 40 54 53 51 46 52 48 47 46
57 58 58 59 61 61 58 56 55 55 58 58 58 58 55 51 46 44 43 43 42 42 42 42 41 41 40 38 35 32 29 28 27 29 36 47 49 49 47 46 44 44 45
57 56 57 58 61 60 58 55 55 59 60 59 58 56 53 49 46 44 44 43 43 43 43 42 42 42 40 35 35 32 29 28 27 28 31 37 43 45 45 44 44 43 42
58 57 58 59 60 59 57 55 57 59 59 58 57 55 51 49 46 45 44 44 44 43 42 42 41 41 38 34 33 32 29 27 26 28 30 30 29 28 36 39 37 35 31
58 58 58 59 58 58 56 57 58 58 57 56 54 53 50 47 45 43 44 44 43 41 41 41 41 40 36 35 33 31 29 27 26 25 25 25 25 24 24 33 35 37 33
59 58 57 58 57 56 56 55 54 53 52 51 50 49 49 47 44 44 44 43 42 40 39 36 35 37 38 35 31 30 29 28 26 24 24 24 23 23 23 25 26 27 32
58 57 57 56 55 55 53 53 52 51 48 47 46 46 47 45 44 43 42 40 39 38 39 37 36 34 35 34 32 30 29 29 25 25 24 23 23 23 24 24 23 23 25
57 56 56 56 55 54 53 49 48 47 45 44 44 44 45 43 42 42 38 37 37 35 34 37 36 36 35 33 32 31 29 29 28 24 24 24 23 24 24 24 23 23 25
56 56 56 55 54 53 51 46 45 44 44 43 42 42 41 39 36 32 31 31 31 31 31 34 36 35 33 31 32 31 29 27 27 27 24 24 24 23 23 23 22 23 25
55 56 56 55 54 54 49 46 44 43 42 42 42 37 32 32 31 32 33 33 34 35 37 37 38 37 35 32 31 30 29 28 27 25 23 23 24 23 21 23 21 22 24
54 55 56 55 54 54 49 46 45 43 43 42 38 30 31 32 32 34 34 36 37 37 36 36 35 34 34 33 32 31 29 28 25 24 21 21 22 23 22 23 23 23 24
53 54 56 55 54 54 51 48 45 45 42 40 34 29 31 31 33 34 35 37 38 37 37 36 35 33 33 33 33 32 29 27 25 23 22 22 22 22 22 23 23 24 25

GFSSE_sfc_30mbdewp_027.txt.gz
Dewpoint
64 65 69 69 68 68 68 68 67 66 65 64 63 63 63 62 62 62 62 62 61 61 60 61 62 62 61 63 63 61 64 65 65 63 62 61 60 59 60 61 60 61 63
66 65 68 68 68 67 67 67 66 65 64 64 63 63 63 62 63 63 62 62 61 61 62 62 62 62 63 64 64 63 63 64 64 63 60 59 58 58 57 57 58 57 60
66 65 66 68 67 67 67 66 66 65 64 63 63 63 63 63 63 62 62 61 60 61 63 63 63 63 64 64 65 63 62 63 63 62 59 53 55 56 56 56 57 56 56
66 64 64 68 67 67 66 66 65 64 63 63 63 63 64 63 63 62 62 61 60 59 60 61 63 64 65 64 64 64 63 62 62 58 52 51 51 56 56 57 57 56 56
66 65 65 67 67 67 66 65 64 63 63 63 63 63 64 63 63 62 62 61 60 58 56 58 60 62 61 62 62 62 61 61 59 54 52 53 53 58 58 58 58 59 59
66 65 66 66 67 66 65 64 63 63 63 63 63 63 63 62 62 63 62 61 60 58 54 57 59 59 59 60 60 60 60 59 55 52 54 57 55 58 59 60 60 59 59
66 65 65 66 65 66 66 65 64 63 63 63 63 63 63 63 63 63 62 61 61 60 57 57 59 59 58 60 60 59 58 57 50 51 52 53 56 57 58 59 59 59 59
64 65 66 64 64 63 65 64 64 64 64 64 64 64 64 64 63 62 62 61 61 61 61 57 59 59 59 58 57 56 56 54 49 50 51 51 56 54 55 56 57 58 57
63 62 62 62 61 60 61 64 65 65 65 65 65 64 64 63 62 61 60 60 59 60 60 57 56 60 59 57 54 53 53 53 50 50 49 49 55 52 52 53 54 54 55
61 61 59 58 59 60 62 63 64 65 65 65 64 63 61 61 61 60 59 58 58 59 61 57 55 57 56 54 53 51 49 49 47 45 49 51 53 52 52 52 52 52 52
59 58 57 57 59 60 61 62 63 64 64 63 62 60 60 57 56 55 57 57 59 57 58 57 55 53 51 51 49 46 43 44 45 45 46 54 50 53 52 52 52 52 52
56 56 56 57 56 57 59 59 60 61 60 59 58 58 57 58 57 56 58 60 57 55 53 52 49 45 41 40 38 38 39 42 44 46 47 53 49 50 54 53 52 52 51
55 55 55 55 55 54 55 54 58 58 59 59 59 58 58 58 57 57 53 51 48 46 42 44 42 41 42 39 38 37 37 36 36 37 48 52 51 46 54 53 51 50 49
54 55 55 56 56 56 56 60 57 57 57 57 56 58 59 56 54 50 46 46 46 44 45 44 44 45 42 40 39 38 38 35 35 37 49 54 52 46 49 54 51 49 48
56 56 55 56 55 58 58 58 56 55 54 55 56 59 58 54 51 47 47 45 44 44 43 43 43 42 41 39 37 35 34 35 37 38 46 52 53 50 51 51 48 48 46
54 56 55 57 59 60 60 57 55 55 56 57 58 59 57 53 49 47 46 44 44 43 44 43 42 41 39 38 35 33 32 31 34 40 44 48 50 49 47 46 45 46 46
53 54 56 58 60 62 60 56 56 56 57 58 59 58 55 51 49 47 45 45 45 45 45 44 44 42 38 36 34 32 31 31 32 37 42 43 41 45 46 45 43 40 40
55 55 56 57 59 62 59 57 56 57 60 60 58 56 53 49 48 47 46 46 45 45 44 44 43 40 39 36 34 31 30 29 32 32 34 35 34 34 38 39 39 36 35
57 57 57 57 58 61 59 56 57 60 60 59 58 55 51 48 48 47 46 46 46 44 44 42 42 41 39 36 33 31 30 28 29 27 28 28 28 26 26 34 37 37 34
56 57 57 58 59 60 58 57 58 58 57 58 57 53 51 48 47 47 46 46 43 42 41 39 39 40 39 35 30 30 30 28 27 27 26 24 26 27 25 26 23 26 32
57 57 57 57 59 58 56 55 56 56 55 55 54 53 51 47 46 46 44 44 42 41 40 40 38 38 36 37 33 31 30 30 28 25 26 25 25 25 26 24 22 21 22
56 57 58 57 58 58 56 55 56 55 52 52 49 50 49 47 45 45 43 42 41 40 40 40 39 37 35 37 33 33 30 30 29 26 26 25 27 25 24 24 25 25 24
56 58 58 57 57 57 56 52 50 51 48 46 45 46 46 45 44 42 41 39 37 34 34 38 39 37 33 34 36 30 28 25 30 30 27 26 28 26 25 25 25 24 25
56 58 58 57 56 56 54 52 51 53 50 47 45 44 43 42 39 35 34 35 35 35 36 38 39 38 36 33 33 31 33 32 25 23 27 27 27 26 26 25 24 24 25
56 57 58 57 56 56 53 52 52 51 50 47 43 40 38 37 35 33 36 37 37 37 39 40 39 38 38 36 33 33 33 30 30 25 19 22 24 25 26 25 25 25 26
56 57 58 57 56 55 53 51 50 49 47 44 40 38 36 34 35 35 36 37 38 38 40 40 40 37 35 34 32 32 27 25 24 24 23 23 24 24 26 25 26 26 26

GFSSE_sfc_30mbdewp_030.txt.gz
Dewpoint
60 62 69 69 69 69 69 69 68 67 66 65 64 64 64 63 63 63 63 63 63 63 62 62 63 64 60 60 64 64 64 64 63 62 61 59 58 58 58 60 57 59 63
61 61 68 68 69 69 68 68 67 66 65 64 65 64 63 64 64 63 63 63 63 63 62 62 63 62 60 61 62 62 62 63 62 62 60 57 57 57 57 58 58 58 60
61 60 65 68 68 68 67 67 66 65 64 65 64 64 64 64 63 63 63 64 65 65 63 62 63 62 60 61 63 62 62 61 59 55 50 46 52 56 57 57 58 57 57
62 61 60 68 67 67 66 66 65 64 64 64 64 64 64 64 64 63 63 63 65 65 63 63 63 61 61 63 64 63 61 59 57 52 46 47 50 58 58 58 58 58 57
63 61 63 67 67 67 66 65 64 64 64 64 65 64 64 63 63 63 62 61 63 63 63 63 62 61 63 63 62 62 60 57 54 48 49 50 51 57 58 59 57 59 59
64 63 66 67 67 66 66 65 64 64 64 64 65 64 64 63 63 63 62 61 60 60 60 60 58 60 61 61 62 61 58 54 48 47 49 53 53 56 57 59 59 59 59
65 65 66 66 67 66 65 64 64 64 64 64 64 64 64 64 64 64 62 62 60 60 60 59 59 61 61 60 59 59 55 49 43 44 48 51 54 55 55 56 58 58 57
65 65 65 65 64 64 65 64 64 64 64 64 64 64 64 64 64 63 63 63 61 60 61 61 61 60 59 58 58 56 53 51 42 43 46 50 54 53 53 54 55 55 55
66 64 64 61 60 62 64 65 65 65 65 65 65 65 64 63 62 61 61 61 61 59 59 61 61 58 56 55 54 53 52 48 42 43 43 48 53 51 51 51 52 53 53
61 62 61 60 58 57 62 65 65 65 65 65 64 62 62 60 60 60 59 60 62 59 59 60 59 57 55 54 52 49 47 44 40 39 43 50 53 51 51 51 52 52 52
58 58 58 58 59 59 59 61 64 65 65 63 61 59 55 50 49 52 58 60 61 59 58 57 55 53 51 50 47 42 40 39 39 38 41 54 53 53 52 52 53 52 52
55 56 56 57 56 57 58 58 61 62 58 58 57 54 53 54 51 51 58 59 58 56 54 52 46 43 42 39 38 38 38 39 37 37 43 53 50 54 53 53 52 52 51
56 55 56 57 56 55 55 58 58 56 58 57 56 53 54 55 53 54 55 52 49 48 42 41 42 41 42 40 40 39 38 35 33 34 46 54 50 48 55 53 51 50 49
55 54 54 53 53 50 52 53 51 52 53 55 56 55 55 52 53 53 51 50 47 46 46 44 45 45 43 41 41 40 39 34 32 35 47 54 53 46 55 52 50 49 48
53 54 52 51 49 51 49 46 49 53 52 50 52 52 51 51 53 51 50 47 46 45 45 45 44 42 42 41 40 38 36 36 35 34 39 52 52 51 53 51 50 48 46
53 53 53 52 50 49 49 51 49 50 49 51 54 56 56 52 53 50 48 46 45 45 45 43 42 41 40 39 39 37 35 34 34 35 35 44 49 49 48 47 47 49 46
54 53 52 53 54 51 54 56 49 51 51 53 56 59 58 54 52 50 47 47 46 46 45 45 43 42 39 37 36 34 33 33 32 35 34 34 41 46 44 43 42 39 39
53 54 54 55 55 55 57 55 50 52 52 55 58 59 57 54 52 50 49 48 46 45 43 43 42 40 38 34 33 30 31 30 32 32 32 33 32 32 40 39 39 37 36
51 52 53 55 56 58 60 56 52 53 56 58 59 58 57 53 51 50 48 48 47 44 44 43 42 38 35 32 31 30 31 29 31 27 29 30 29 27 26 33 35 35 34
52 53 54 56 57 59 58 54 50 54 57 60 59 57 55 52 50 50 49 49 45 43 43 42 38 35 33 31 25 29 31 30 30 30 29 27 28 29 28 27 25 27 30
54 53 54 54 56 58 56 52 50 54 57 59 59 57 55 52 50 50 48 47 44 42 41 41 36 35 33 33 32 33 32 33 32 29 29 28 28 28 28 25 25 22 23
53 55 55 55 56 57 54 51 51 53 56 58 58 57 55 52 50 49 47 45 43 43 41 38 35 31 31 34 35 34 34 33 31 31 28 28 30 28 25 26 26 24 23
51 53 53 54 55 56 54 51 55 56 56 57 56 56 55 52 50 48 47 44 44 41 37 36 35 32 33 35 37 35 32 27 28 29 31 29 29 28 26 25 26 25 24
52 52 53 53 54 56 56 53 54 53 53 55 56 55 52 51 49 46 45 44 42 35 32 32 33 36 36 36 35 34 33 28 21 21 29 29 30 27 27 27 25 25 25
53 53 55 55 55 55 56 55 54 54 54 54 54 51 50 48 47 44 42 40 37 33 33 32 37 39 39 35 34 34 31 28 27 24 22 19 22 24 24 25 26 25 24
53 54 55 56 55 55 56 57 55 54 55 54 51 48 46 44 43 41 39 38 36 33 36 40 42 41 38 35 33 29 25 26 26 25 22 20 20 22 23 24 24 24 25

GFSSE_sfc_30mbdewp_033.txt.gz
Dewpoint
58 64 70 70 70 70 70 69 69 67 66 65 65 65 64 64 64 65 64 64 64 64 63 64 60 61 62 62 63 63 63 63 62 62 60 58 58 58 59 60 57 59 62
60 64 69 70 70 70 69 68 67 66 65 65 65 64 64 64 64 65 65 65 65 64 64 62 59 59 59 61 62 62 61 61 62 61 57 56 57 57 58 59 59 59 60
60 64 68 69 69 69 68 67 66 65 65 65 64 64 65 64 65 65 65 65 65 64 63 60 59 59 60 61 62 61 59 58 56 59 52 49 55 58 58 59 59 58 58
61 63 67 69 69 68 67 66 65 65 65 64 64 65 65 65 65 65 67 66 65 65 63 59 59 60 61 62 62 60 58 55 54 56 47 48 52 59 59 58 58 59 57
61 60 67 68 68 67 66 65 65 65 64 64 65 65 65 64 64 64 66 66 65 65 62 59 60 61 62 62 60 58 57 56 56 48 49 51 52 57 58 58 58 59 59
62 62 67 67 67 66 66 65 65 64 64 65 65 65 64 64 64 63 64 65 65 64 59 59 60 60 62 61 58 55 52 50 54 47 49 52 53 55 57 58 59 60 59
62 65 67 67 66 66 65 65 65 65 65 65 65 64 64 64 64 63 62 63 63 62 60 59 59 60 60 59 56 54 52 49 42 46 48 51 53 54 54 55 56 55 55
65 66 66 66 66 65 65 65 65 65 65 65 65 65 65 65 64 64 62 63 63 62 62 61 61 59 58 58 56 50 48 47 41 44 48 50 53 52 53 54 54 54 54
65 64 64 64 65 65 65 65 65 65 65 65 65 65 64 63 62 62 61 61 62 62 62 60 59 58 56 55 51 46 43 42 41 43 45 48 52 51 51 52 53 53 53
63 62 61 62 63 65 64 65 65 65 65 65 64 63 62 61 61 61 60 60 61 62 61 59 57 56 54 52 47 44 44 45 38 40 45 51 52 51 51 52 52 52 53
60 60 59 59 60 62 63 64 65 65 64 62 61 57 54 54 52 56 60 61 59 60 59 58 56 53 48 45 42 40 44 39 36 39 44 55 53 52 52 53 52 52 52
56 57 58 59 56 55 54 54 54 53 56 55 53 54 51 54 55 54 60 59 58 57 56 53 50 46 45 40 39 40 38 36 33 38 45 54 53 54 53 53 52 51 51
56 56 57 55 54 53 53 54 56 59 56 56 57 54 55 56 56 56 55 54 51 48 42 42 42 44 45 40 41 40 37 33 32 39 48 55 50 53 54 53 51 51 49
55 56 56 55 55 54 55 58 58 57 56 54 54 55 58 55 56 56 53 51 50 47 45 47 46 47 44 42 42 40 38 32 32 40 48 54 52 48 54 52 51 50 48
54 53 53 54 54 55 55 53 52 48 48 49 54 54 54 53 53 51 51 50 49 49 48 47 47 43 43 41 39 37 34 35 34 32 45 52 53 51 54 52 50 49 46
53 52 52 50 50 49 47 47 49 50 48 49 51 51 51 50 53 51 52 49 48 48 47 46 43 42 39 39 39 34 33 32 33 34 37 46 50 50 49 49 50 49 46
50 51 48 48 48 48 46 47 46 46 48 49 48 54 54 51 54 52 51 49 48 48 47 45 43 41 39 35 35 34 33 32 33 34 32 37 44 47 46 45 42 41 40
52 48 44 42 48 49 48 51 50 49 48 47 51 57 57 55 55 53 50 50 49 48 46 43 42 40 38 35 33 31 32 32 33 33 32 33 32 38 43 41 39 38 37
51 49 51 53 50 51 52 53 49 49 52 50 55 59 58 55 54 53 51 50 50 47 45 43 42 39 37 33 33 33 33 33 33 28 31 32 31 27 30 36 34 33 31
52 52 53 54 54 54 56 55 50 47 50 51 57 57 58 55 54 54 51 50 50 47 45 43 42 36 35 34 28 30 35 35 33 33 32 30 29 31 30 29 30 31 31
51 51 51 51 52 54 56 52 47 46 49 54 58 58 56 54 54 53 51 52 50 46 44 44 40 38 34 34 35 37 37 37 36 33 32 30 29 29 30 29 28 25 27
50 51 51 51 52 53 51 50 46 46 48 53 58 57 56 56 53 53 52 51 49 45 44 43 38 35 34 36 37 38 38 37 35 35 32 30 30 31 29 28 28 27 26
50 50 51 51 52 53 51 50 46 46 50 51 55 57 57 56 54 52 52 50 48 45 45 43 39 35 33 37 39 39 36 34 31 33 34 32 30 32 31 28 28 27 27
49 51 51 51 51 52 52 49 46 48 48 51 54 55 56 57 55 52 51 51 48 46 43 42 38 35 37 36 40 39 38 37 29 26 31 32 33 32 31 29 28 27 27
48 49 51 51 51 51 53 52 49 50 51 51 53 56 57 56 55 53 50 50 48 46 40 39 35 37 40 42 40 40 38 34 32 29 27 27 30 28 26 26 27 28 27
48 50 51 51 50 51 52 54 54 52 52 50 54 55 54 54 53 52 48 48 47 42 38 37 39 42 43 42 42 40 33 29 29 30 29 27 24 23 24 25 26 25 25

GFSSE_sfc_30mbdewp_036.txt.gz
Dewpoint
63 68 70 70 70 70 70 69 68 67 66 65 65 65 64 65 66 66 66 65 66 64 61 62 61 60 60 60 60 61 63 63 61 60 60 59 58 58 59 60 60 61 63
65 68 70 70 70 70 69 68 67 66 65 65 65 64 65 66 66 66 66 65 66 62 60 60 59 58 57 60 61 62 63 63 61 59 58 58 58 59 60 59 60 58 60
65 69 69 69 70 69 68 67 66 66 66 65 65 65 65 66 66 66 66 66 65 62 59 59 58 57 56 59 59 58 59 60 61 61 56 57 59 58 59 60 59 58 58
65 68 69 69 69 68 68 66 66 66 65 65 65 65 66 66 67 66 66 66 64 62 59 58 58 58 58 60 59 58 58 57 59 56 52 53 55 59 59 58 60 58 58
64 67 69 69 68 68 66 66 65 65 65 65 65 66 66 67 67 67 66 66 64 62 59 58 58 58 59 59 58 55 53 54 53 52 53 54 56 57 58 59 59 59 59
64 67 68 68 67 67 66 66 66 65 65 65 65 65 65 66 67 67 66 66 64 61 59 58 58 59 59 56 55 54 52 52 52 51 53 55 55 55 56 57 57 57 57
62 67 67 67 66 66 66 66 65 66 66 66 65 65 65 65 66 66 66 65 62 62 59 58 59 59 57 54 51 50 47 48 49 50 52 54 54 54 54 55 54 55 55
64 67 67 67 66 66 66 65 66 66 66 66 65 65 65 64 64 65 65 63 63 62 62 61 60 58 56 50 47 46 45 46 49 50 51 53 54 53 53 54 54 54 53
62 65 65 65 65 66 66 66 66 65 66 66 66 65 64 64 63 64 64 63 63 62 61 60 58 57 54 48 45 44 44 46 47 49 50 52 52 52 52 52 53 53 52
63 64 64 64 64 65 65 65 65 66 65 64 64 63 63 62 62 62 63 62 62 61 59 58 56 54 49 44 42 42 43 44 45 49 52 54 52 52 53 52 52 52 52
61 61 62 63 63 63 62 64 64 64 63 62 60 58 56 56 56 57 61 62 61 60 58 56 52 48 45 40 38 41 43 39 45 51 54 55 53 53 52 52 52 51 51
58 59 60 59 57 60 61 61 62 61 58 56 56 55 56 57 57 59 60 60 60 58 56 51 49 48 44 40 42 43 38 39 44 48 53 54 54 53 53 53 52 51 50
56 58 56 55 55 55 54 56 57 58 57 56 57 56 58 58 58 59 57 56 55 52 47 46 49 48 48 46 44 42 40 36 43 45 53 53 52 55 54 53 51 50 49
55 54 54 54 54 53 52 51 52 55 58 57 56 58 58 58 58 56 55 54 50 48 43 45 50 47 45 44 43 41 38 38 43 46 51 51 51 53 54 52 52 49 48
54 54 55 54 54 54 54 53 53 57 57 55 56 57 58 55 57 56 55 53 51 51 50 51 48 46 44 43 41 38 37 37 36 47 52 52 53 55 54 52 51 49 46
52 52 54 55 55 55 56 56 57 56 57 54 55 56 56 57 56 56 55 54 53 51 51 50 48 44 45 42 39 36 36 36 35 44 47 52 51 52 52 52 51 49 46
51 51 53 53 54 54 54 55 56 54 46 49 53 54 55 52 54 56 53 53 53 51 51 48 45 44 41 39 38 36 36 34 35 36 46 48 50 49 48 46 45 43 42
50 50 51 52 52 52 50 48 51 50 49 50 52 56 55 55 56 57 55 53 51 51 49 46 45 43 41 39 37 36 35 35 35 34 35 41 46 46 47 45 42 41 39
49 48 49 50 49 49 47 46 48 50 54 54 52 58 58 58 56 56 55 53 52 50 50 47 46 44 40 37 37 36 36 37 36 34 33 33 32 41 42 41 38 35 32
48 45 45 46 48 49 49 44 49 51 53 53 54 59 59 58 57 56 56 54 51 51 49 46 45 41 41 38 34 34 38 38 37 36 34 33 34 32 34 35 36 34 33
49 49 49 50 51 52 52 52 54 49 51 52 56 58 59 59 57 56 56 54 52 51 49 48 45 39 37 37 36 37 38 39 38 37 36 34 33 32 32 31 30 32 32
51 52 54 55 54 53 55 56 54 50 49 51 58 59 59 60 56 56 56 54 53 52 50 48 44 41 40 39 40 41 40 40 39 39 37 34 33 32 32 32 30 29 29
53 53 53 54 55 55 56 55 54 50 49 49 58 59 59 58 57 55 55 55 54 53 50 48 45 42 39 40 41 40 39 38 37 39 38 35 35 34 34 33 31 30 29
52 53 52 51 51 53 53 51 51 47 45 49 56 58 58 58 58 56 55 55 54 51 50 49 46 42 40 40 42 42 40 40 36 31 37 36 36 35 35 33 31 31 30
52 53 53 52 52 53 54 54 52 48 47 49 54 55 57 58 58 57 56 54 53 51 48 47 44 41 41 43 42 43 44 45 39 34 31 33 35 34 35 36 32 31 30
51 52 54 52 52 52 53 53 54 51 51 52 54 55 57 58 58 57 54 54 50 48 48 48 48 43 45 44 45 44 45 43 35 34 33 32 32 32 32 32 33 29 29

GFSSE_sfc_30mbdewp_039.txt.gz
Dewpoint
65 70 70 70 70 70 69 68 67 66 66 65 65 65 67 67 67 67 67 64 64 63 61 59 58 59 60 59 60 61 62 62 61 61 60 59 58 58 59 60 61 62 62
64 69 70 70 70 69 68 67 66 66 65 65 65 66 67 67 66 67 65 64 63 62 59 57 57 59 61 62 62 63 62 61 61 61 60 58 59 59 59 59 60 59 60
57 64 69 70 69 69 67 66 66 66 65 65 66 66 67 67 66 67 64 63 62 61 57 55 54 57 58 60 62 62 62 61 59 59 59 59 58 58 60 59 59 57 58
57 63 67 69 69 68 67 66 66 65 65 66 66 66 67 67 67 67 64 63 62 60 56 54 54 58 59 59 58 58 59 59 57 56 55 56 58 58 58 59 59 59 57
62 66 68 68 68 67 66 66 65 65 65 66 66 66 67 67 67 66 64 63 62 59 55 53 56 58 58 55 54 53 59 57 56 55 55 56 57 57 58 59 59 59 59
65 66 68 67 67 67 66 66 66 66 66 66 66 67 67 67 67 66 64 63 61 58 54 54 56 56 55 54 52 56 56 55 54 54 54 55 55 55 55 56 57 56 56
64 66 67 67 66 66 67 66 66 66 66 66 67 68 68 67 67 66 64 63 61 59 57 56 55 54 51 50 50 55 55 54 53 53 53 53 54 54 54 54 54 54 54
63 62 62 67 66 66 66 66 66 66 66 66 66 66 67 67 67 65 64 63 62 62 61 59 56 51 48 48 47 50 55 53 52 53 53 53 54 53 53 53 53 53 53
65 65 64 67 66 64 63 65 66 66 66 66 66 65 65 66 66 64 64 64 63 61 60 57 53 48 46 45 45 44 51 52 51 52 52 53 53 52 53 53 52 52 52
63 63 64 65 65 65 65 66 66 66 65 64 64 63 64 65 65 64 63 63 61 60 58 55 50 45 42 41 41 42 50 51 51 52 53 54 53 52 53 53 52 51 50
62 63 64 63 63 62 62 64 65 64 63 62 61 59 58 59 60 61 62 61 60 57 55 52 49 45 44 42 41 45 47 50 53 54 55 55 53 52 53 52 52 51 50
60 60 61 61 61 61 62 63 62 60 58 57 55 56 57 59 58 61 61 60 58 56 53 52 49 47 43 42 43 41 44 48 52 53 55 55 54 53 53 52 51 50 50
58 57 58 59 58 58 59 60 60 57 56 56 57 57 59 59 59 59 59 58 57 53 51 51 49 44 47 44 41 38 41 44 47 51 53 55 55 54 54 52 51 50 50
54 54 55 55 56 56 55 56 58 58 57 58 58 58 57 57 56 55 54 53 49 47 43 45 47 48 44 42 40 37 39 44 46 50 52 51 54 54 54 53 51 49 48
53 54 54 53 53 53 54 55 56 56 56 57 57 58 58 56 55 55 54 49 48 48 44 49 46 45 43 42 40 37 36 42 45 49 52 51 54 55 54 53 51 49 47
54 54 55 54 53 53 53 54 55 54 54 55 57 56 57 57 56 55 56 51 50 50 51 49 46 45 43 40 36 36 36 37 46 48 51 53 56 56 54 53 51 49 46
53 54 54 54 54 53 53 54 56 54 53 53 50 56 55 57 57 57 57 54 53 51 50 50 48 46 43 40 35 36 34 35 39 45 48 51 52 53 53 52 50 48 45
52 52 53 53 54 54 54 56 56 54 50 47 44 54 55 54 55 55 53 53 53 52 49 45 45 42 39 37 36 36 37 35 34 41 46 48 48 49 49 48 46 45 43
51 51 50 53 53 53 53 55 54 51 46 45 45 53 55 56 55 56 54 55 53 50 48 46 45 43 41 39 37 37 36 36 35 35 38 45 46 46 45 46 45 43 38
50 51 51 52 51 51 51 51 51 49 49 49 53 56 56 56 57 56 55 55 52 50 49 48 45 45 40 37 36 35 35 36 37 35 33 35 39 43 42 41 40 38 35
49 49 51 50 49 49 46 47 47 48 51 52 53 57 58 57 58 57 56 55 51 50 49 47 46 40 38 39 36 36 37 38 37 37 35 33 34 36 36 34 35 33 36
46 46 47 47 47 49 46 45 45 51 51 51 52 57 58 59 59 57 56 53 51 51 51 48 44 40 38 37 35 41 39 39 39 38 38 36 34 33 33 32 32 33 31
46 45 44 45 50 48 49 47 51 55 50 50 53 55 58 57 54 57 56 54 52 52 51 49 44 40 38 41 40 40 38 38 38 39 39 37 34 33 33 33 32 30 31
49 49 50 50 53 51 51 52 54 53 51 48 50 57 58 58 56 57 57 55 54 53 52 49 46 43 41 38 42 42 42 40 37 35 37 37 35 34 34 34 33 31 30
50 50 53 53 54 52 52 54 54 52 51 49 52 56 57 58 58 58 57 56 54 53 51 49 46 44 45 45 44 42 44 45 42 39 35 33 37 36 35 35 34 33 31
52 52 52 53 54 54 54 54 54 53 49 47 49 57 57 58 58 58 57 56 54 49 49 48 47 46 48 47 45 45 44 44 43 41 37 34 32 34 35 36 36 33 32

GFSSE_sfc_30mbdewp_042.txt.gz
Dewpoint
67 69 70 69 70 69 68 67 66 66 66 66 67 67 68 68 66 66 66 64 63 62 59 60 61 60 60 59 59 60 62 62 62 62 61 58 58 60 61 61 62 62 62
66 68 68 68 69 68 67 66 66 65 66 67 67 67 68 67 66 66 64 63 62 60 60 60 61 60 60 60 62 62 63 62 62 60 60 58 57 58 58 59 60 60 62
66 69 68 67 68 68 66 66 65 65 66 67 67 67 68 66 65 65 64 62 60 59 59 60 60 61 61 62 63 63 61 61 61 61 59 57 58 58 59 58 58 57 59
64 67 66 67 68 67 66 66 65 66 66 67 67 67 68 65 65 64 63 61 59 57 57 58 59 58 57 59 61 62 59 59 59 58 57 58 58 59 59 59 58 57 56
59 62 67 66 67 67 66 65 65 66 66 67 67 67 67 65 65 64 62 61 59 57 57 58 57 55 56 59 60 60 59 59 58 56 56 55 54 56 58 58 58 58 58
63 65 67 67 67 67 66 65 66 66 66 67 67 67 67 65 64 64 62 60 58 56 57 55 54 54 57 60 60 59 58 57 55 54 55 55 54 54 55 55 54 53 53
65 66 66 66 66 66 64 65 66 66 66 66 67 67 67 65 65 64 62 60 58 57 54 54 53 54 57 60 59 58 56 55 53 53 54 54 54 54 54 54 54 53 53
63 66 67 67 67 65 64 67 66 67 67 67 67 67 67 66 65 64 62 62 61 60 56 54 52 52 52 56 58 57 56 54 53 53 54 54 54 53 53 53 53 53 52
65 63 64 63 62 65 62 66 66 66 67 67 67 67 67 65 65 64 63 62 60 57 53 49 48 48 50 52 56 55 55 54 52 52 53 53 53 53 53 52 52 52 51
63 63 63 64 63 59 60 66 66 66 66 66 66 66 65 65 65 64 62 61 58 55 51 49 47 49 48 54 56 55 54 53 52 53 54 54 53 53 52 52 51 50 50
62 62 62 62 62 62 62 65 65 65 64 64 65 64 64 63 63 61 61 60 57 53 51 50 49 45 44 51 54 54 53 53 53 53 54 55 53 52 51 51 51 49 49
60 61 61 59 61 61 63 63 63 62 60 59 59 59 60 60 60 60 59 56 53 54 53 49 47 46 45 42 47 50 51 53 54 54 55 55 53 53 52 52 50 49 49
58 60 60 59 59 58 61 61 60 58 56 56 56 58 58 60 60 60 58 57 56 54 51 47 44 46 44 41 42 45 48 49 52 54 56 56 54 54 54 51 50 49 48
57 58 59 58 58 58 59 59 58 56 57 57 58 58 57 57 57 56 55 54 51 49 46 45 47 45 43 40 41 43 45 47 49 51 53 56 55 55 54 52 50 49 49
54 55 56 57 57 57 57 57 58 58 58 58 57 57 55 54 54 53 52 50 47 46 44 48 46 44 43 39 38 41 43 43 45 48 51 52 56 55 54 53 51 49 49
54 54 54 54 55 56 56 56 56 56 57 58 58 57 55 53 53 52 51 48 47 47 45 49 45 44 40 36 37 38 42 44 45 48 52 56 56 56 55 54 52 49 47
54 54 53 54 54 55 55 55 55 55 55 55 56 57 55 55 54 54 54 50 49 49 50 49 47 45 41 38 35 35 38 45 45 47 51 53 55 55 55 54 51 50 47
54 54 54 54 54 53 53 53 53 54 51 50 50 55 56 56 56 56 55 54 53 51 51 49 47 45 42 38 35 36 35 38 43 46 49 50 51 52 53 52 50 47 45
53 53 53 53 53 52 53 52 53 52 48 47 47 51 55 55 56 56 55 55 54 52 49 48 45 43 40 38 36 36 36 35 36 44 46 48 48 48 48 49 48 47 45
52 52 52 52 52 52 53 53 54 51 46 46 47 48 52 55 55 56 54 54 53 50 47 46 44 45 42 39 36 36 36 37 36 38 42 46 46 46 45 46 47 45 42
51 50 51 51 52 52 51 52 51 49 47 47 47 49 55 54 57 56 55 55 53 50 48 47 45 43 41 40 36 36 37 38 38 37 35 41 42 44 43 43 41 37 39
50 50 50 51 51 51 51 51 49 49 48 49 49 51 55 58 57 57 55 55 53 50 49 48 45 41 38 39 35 38 35 39 39 38 37 35 35 41 40 38 35 34 35
49 49 50 50 50 49 49 47 47 48 50 49 50 51 55 58 58 58 57 55 53 51 50 48 45 42 39 39 40 37 39 38 38 39 39 38 35 35 36 35 33 34 33
48 49 49 50 49 49 48 46 45 46 46 48 50 51 54 57 58 57 57 56 53 52 51 50 46 42 40 39 41 43 42 41 37 36 37 39 38 35 34 34 33 32 32
46 46 46 48 47 47 48 46 45 45 46 52 50 50 54 56 57 56 56 56 54 53 52 51 47 43 43 43 45 43 43 43 40 40 39 37 37 37 36 35 35 34 32
47 45 45 44 44 49 48 48 48 48 51 53 51 50 52 55 57 57 56 57 55 55 54 52 48 45 46 46 45 44 44 43 43 42 40 39 37 36 36 37 36 35 33

GFSSE_sfc_30mbdewp_045.txt.gz
Dewpoint
67 69 69 68 68 68 67 67 67 66 66 65 66 67 67 66 66 66 65 63 62 62 61 60 60 59 59 60 61 61 61 62 61 60 60 59 61 61 62 62 62 62 63
67 68 67 65 67 67 67 67 67 67 67 67 68 67 66 66 66 65 63 62 63 62 61 61 60 60 60 60 61 60 60 61 61 60 58 57 58 59 59 60 61 62 62
67 68 67 67 67 66 66 66 67 67 67 68 67 66 67 66 65 64 62 63 63 63 61 61 61 61 61 63 62 62 61 61 61 59 58 57 55 56 56 57 57 57 59
67 67 67 67 66 65 64 66 67 67 67 68 67 66 66 65 64 62 61 63 63 62 60 60 60 61 62 62 62 61 60 60 59 58 57 58 59 59 58 57 57 55 55
63 66 65 67 65 64 64 64 67 67 67 67 66 66 65 64 63 61 60 62 62 61 59 56 54 56 62 63 61 60 59 59 57 55 55 54 55 56 57 57 55 53 53
61 63 66 66 65 64 63 63 66 67 66 67 66 65 65 64 63 61 60 61 62 59 55 54 59 60 62 61 60 59 58 57 55 55 55 55 54 54 54 53 54 53 53
62 60 64 66 64 64 63 63 66 67 66 67 65 65 64 63 63 61 60 61 60 57 54 58 62 62 61 60 59 58 57 56 53 53 54 54 54 53 53 53 52 52 52
64 64 64 64 64 64 62 62 66 66 66 66 65 65 64 63 63 61 61 60 58 56 56 58 61 60 59 58 58 57 57 55 54 54 54 54 54 53 53 52 52 51 51
64 65 64 63 64 62 59 60 62 66 65 66 65 65 65 64 63 62 60 57 56 55 54 54 55 59 58 58 57 56 55 54 53 53 53 54 53 53 52 52 51 51 50
63 63 63 63 64 62 63 61 62 65 66 66 66 66 65 64 62 61 59 57 55 54 55 54 55 58 59 57 56 56 55 54 53 53 54 54 53 52 51 51 50 50 50
62 61 62 63 63 59 58 59 61 65 67 67 66 65 64 63 61 58 58 55 53 51 51 52 52 58 58 57 56 55 53 53 53 54 54 54 52 53 51 50 50 50 49
59 59 60 60 60 58 57 60 59 64 63 64 64 62 62 60 59 57 55 54 55 53 50 51 49 50 51 54 55 54 53 53 54 54 55 55 54 53 53 52 49 48 48
59 58 59 59 59 59 59 60 59 59 60 61 61 60 59 59 59 58 57 55 54 50 46 44 46 42 44 48 49 51 52 53 54 55 56 55 54 52 53 52 49 48 48
58 58 59 60 59 58 58 58 59 59 59 59 59 58 58 58 57 56 53 53 50 47 44 45 45 42 40 45 47 49 50 51 52 54 56 56 56 55 54 52 51 49 48
57 57 58 58 57 59 58 59 58 57 57 58 58 57 57 56 55 54 52 49 48 45 44 47 44 42 39 42 44 46 47 47 49 51 53 56 56 55 54 52 51 50 49
56 57 58 57 56 58 58 57 57 58 57 57 56 55 55 54 53 52 50 47 46 43 48 46 44 42 39 39 41 43 42 43 44 46 49 53 56 56 55 53 52 50 49
54 55 56 57 57 58 57 57 57 57 57 56 56 55 53 53 53 51 50 47 46 44 49 47 45 42 37 37 37 42 43 43 44 45 51 55 56 56 56 55 52 49 49
54 54 55 56 56 56 56 56 55 55 55 55 56 55 54 53 53 52 50 48 48 48 48 48 46 43 39 36 36 38 42 44 44 46 50 53 54 55 55 54 53 51 48
54 54 54 55 56 55 54 54 54 52 51 52 54 56 55 54 54 53 53 51 51 50 51 49 47 44 41 37 35 36 37 41 42 45 48 50 51 52 52 53 52 49 48
53 54 54 54 54 54 54 54 54 53 49 48 50 54 55 55 55 55 55 55 53 52 50 49 46 44 42 39 36 36 37 37 38 44 45 48 49 49 49 49 49 48 48
52 52 53 53 54 54 53 52 52 51 49 47 47 49 51 54 56 56 55 55 54 52 50 49 46 43 41 40 37 36 36 37 37 37 41 45 46 47 46 46 47 45 46
51 51 51 52 52 52 52 50 51 49 49 47 48 49 51 53 54 56 55 55 54 51 49 47 45 42 41 40 36 36 34 36 39 38 37 39 42 44 44 43 43 41 38
50 50 51 51 51 51 51 51 49 49 49 47 47 48 50 54 55 56 56 55 54 52 50 48 46 42 40 39 40 37 37 35 39 39 39 36 37 39 42 41 40 38 35
50 50 50 51 51 50 50 49 48 47 46 45 45 47 49 53 55 57 57 56 55 53 51 49 48 44 41 39 40 42 42 41 38 36 37 39 38 36 36 38 37 35 34
49 49 50 50 50 50 49 48 47 47 47 47 48 49 50 51 55 57 57 57 56 54 52 51 49 47 44 42 40 43 43 42 40 38 37 38 38 39 37 36 35 35 34
49 49 49 50 50 49 49 48 47 46 46 46 48 49 50 52 54 56 56 57 56 55 53 53 52 49 46 45 44 43 42 42 41 40 39 38 37 38 38 38 37 36 35

GFSSE_sfc_30mbdewp_048.txt.gz
Dewpoint
65 61 69 68 67 67 67 67 68 68 69 68 68 68 67 67 67 67 65 64 63 63 61 60 60 60 60 61 60 60 60 61 61 61 63 62 62 62 63 63 63 62 62
67 68 69 68 68 66 67 67 67 66 67 67 67 67 67 67 66 65 64 64 63 62 60 59 59 59 59 60 61 61 61 61 60 60 59 59 59 59 60 61 61 61 62
67 67 66 68 68 67 66 67 67 66 67 67 67 67 66 66 65 64 64 64 63 62 61 61 61 61 61 60 61 61 60 60 59 57 57 55 55 56 56 56 57 57 58
67 66 66 67 67 67 67 67 67 68 68 67 67 66 66 65 64 65 64 64 63 62 61 61 62 62 61 62 62 61 60 59 59 59 59 59 58 58 57 57 55 55 56
67 66 67 66 65 66 67 67 67 68 67 67 67 66 65 64 64 64 64 64 63 62 61 61 62 62 62 62 62 60 58 58 57 55 54 55 55 57 54 53 53 54 54
64 65 67 65 65 64 64 66 67 67 67 67 66 65 64 63 64 64 63 63 61 58 56 57 61 63 62 61 61 59 58 57 55 55 55 55 53 53 53 53 53 53 52
62 64 66 65 63 63 63 64 65 66 67 66 65 65 64 63 63 63 63 61 58 58 59 62 62 62 61 60 59 58 57 56 54 54 54 54 53 54 53 54 54 53 53
61 62 65 65 64 63 61 60 62 63 66 65 65 64 63 62 62 63 61 59 60 63 63 63 62 61 60 59 58 58 57 55 54 54 54 54 54 52 52 51 51 50 50
64 62 62 63 64 63 61 60 61 62 65 65 65 64 63 63 62 61 59 58 60 63 62 61 60 59 59 58 58 57 57 55 53 53 53 53 53 51 51 51 51 51 50
63 64 62 63 63 61 60 57 58 60 60 65 65 65 64 63 61 58 57 57 57 59 60 60 59 59 58 58 57 57 56 55 53 53 54 54 52 51 51 51 51 50 50
61 62 63 63 60 59 57 59 59 57 62 65 65 64 63 61 59 56 56 57 55 56 58 60 60 59 58 58 57 57 54 53 53 54 54 54 52 52 51 51 50 49 49
59 60 62 62 61 59 59 57 56 57 61 64 64 63 61 59 56 55 56 55 54 55 58 60 60 58 57 56 56 55 53 53 54 54 55 54 53 52 51 50 49 48 48
58 59 59 59 58 59 60 58 58 59 58 61 62 61 59 57 58 57 56 54 53 51 50 52 52 51 53 53 52 52 53 53 54 55 56 55 53 53 51 50 49 48 48
57 58 58 57 56 57 59 59 58 59 58 59 61 59 58 58 55 54 51 49 46 46 45 44 46 48 49 50 51 52 52 53 54 55 56 56 54 54 52 51 50 48 48
57 58 58 57 56 55 56 58 58 58 58 59 59 58 57 56 54 52 50 47 45 46 45 42 41 44 47 48 50 51 51 52 53 54 56 57 56 54 54 52 51 50 49
57 57 59 58 57 57 56 57 57 58 59 59 58 57 56 54 53 50 49 46 44 46 46 43 40 41 44 45 46 47 48 48 49 51 53 56 56 56 55 53 52 51 50
56 58 57 58 58 57 57 57 58 58 57 58 57 56 55 54 52 50 48 45 44 47 46 44 42 39 41 41 42 43 43 43 44 46 51 54 56 56 56 55 52 50 50
55 56 57 58 58 58 58 57 57 57 56 57 56 55 54 53 52 50 48 46 45 48 47 45 43 39 37 38 39 42 43 44 44 46 50 54 55 56 56 55 54 51 50
54 55 56 57 57 57 57 56 55 55 56 55 56 55 53 53 52 50 48 48 47 47 49 46 45 42 38 36 36 39 42 43 43 46 48 51 54 54 54 56 54 53 51
54 54 55 56 56 56 56 55 54 52 50 53 55 55 54 53 53 52 51 50 49 49 50 48 45 44 42 38 36 36 37 38 41 44 45 48 51 52 52 53 53 51 50
54 54 54 55 56 55 55 53 53 52 49 48 50 54 55 54 55 54 54 54 53 51 50 49 46 44 42 39 36 36 36 37 37 38 43 45 47 49 49 50 50 48 49
52 53 53 54 54 55 55 55 52 53 50 48 48 50 54 55 56 56 55 55 54 53 51 49 47 44 42 40 36 36 34 35 38 38 37 40 44 46 47 47 47 47 46
51 52 52 53 53 54 54 54 50 50 49 48 48 48 50 52 54 55 55 55 54 53 51 49 47 44 43 41 38 37 36 35 37 40 39 38 38 42 44 45 44 44 43
50 51 52 52 53 52 52 51 49 49 49 48 46 47 48 50 51 53 55 55 55 53 52 50 48 44 42 41 39 40 41 40 37 37 38 39 38 37 40 42 42 41 40
50 51 51 51 52 52 51 50 49 49 48 47 46 46 47 49 51 52 54 55 55 54 53 52 50 46 44 43 42 42 42 42 40 38 37 38 39 39 38 38 39 39 38
50 50 50 50 51 51 50 50 49 48 48 47 47 46 47 49 51 52 54 55 55 55 54 53 52 50 49 47 46 45 42 41 40 39 39 38 38 38 39 39 38 37 38

GFSSE_sfc_30mbdewp_051.txt.gz
Dewpoint
62 64 68 68 69 70 70 70 69 69 69 69 69 68 68 69 68 68 68 67 67 65 63 62 62 63 59 60 62 62 63 64 64 63 63 63 63 63 63 63 62 63 63
60 65 68 67 69 69 70 70 69 69 69 69 68 68 68 68 68 67 66 65 65 63 61 61 61 59 60 60 61 62 62 62 62 62 62 61 61 61 61 62 62 61 61
60 64 65 68 68 68 69 69 69 69 69 68 68 68 68 67 66 65 64 64 63 62 60 59 59 59 61 61 62 61 60 59 59 58 57 56 57 58 57 58 58 58 59
63 66 66 67 67 68 68 68 68 68 68 68 68 67 67 66 65 65 64 64 63 62 59 59 59 60 61 62 62 61 61 60 61 59 54 53 55 57 57 57 57 57 56
66 66 66 68 67 68 68 67 68 68 68 67 67 67 66 65 65 65 64 64 62 61 61 60 61 61 62 62 61 60 59 58 57 54 55 55 54 54 55 55 55 55 55
66 66 67 67 67 68 68 68 68 67 67 67 66 66 65 65 65 65 64 63 62 63 62 61 61 62 62 61 60 59 58 57 54 52 53 52 54 54 54 54 54 54 54
65 66 65 66 66 68 68 68 68 67 67 66 66 65 65 65 65 64 64 63 63 62 62 62 61 61 61 60 59 58 57 56 52 52 52 52 53 55 54 54 54 54 51
63 66 65 64 64 65 66 67 67 67 66 66 65 64 65 65 64 64 62 60 60 62 64 63 62 61 60 59 58 58 57 54 51 51 51 53 55 53 53 52 52 51 51
63 63 65 64 63 62 63 64 65 65 65 65 64 63 64 64 64 62 61 63 63 64 63 62 61 60 59 58 58 57 57 54 51 52 51 51 53 52 52 52 51 51 50
64 63 63 63 64 62 60 61 63 63 62 62 64 63 63 63 62 61 63 65 64 64 62 61 60 60 59 58 58 57 57 55 52 52 51 52 53 52 52 52 51 51 50
61 63 63 63 63 62 61 59 61 61 61 61 64 63 62 60 57 56 59 63 63 62 61 60 60 59 59 58 58 57 54 52 52 52 51 54 53 53 52 51 51 50 50
60 62 63 63 62 61 60 59 60 61 60 60 63 62 60 58 55 54 58 60 61 61 60 60 59 59 55 53 55 55 52 53 52 52 51 54 53 53 52 51 50 50 49
59 60 61 61 60 59 58 58 57 60 60 60 62 60 58 55 55 54 54 55 57 59 58 57 56 52 52 51 51 51 53 53 52 52 53 54 52 52 51 50 49 49 48
58 58 59 60 60 59 59 58 59 60 60 59 61 58 55 54 54 54 51 50 51 54 57 55 53 53 53 52 51 53 53 52 53 53 53 55 54 51 51 50 50 49 48
57 57 57 58 58 59 57 59 59 59 59 59 60 56 54 53 52 49 49 46 46 50 51 51 52 51 51 51 52 52 53 53 54 53 53 55 55 54 52 51 50 50 48
57 57 57 56 57 58 57 58 59 58 58 60 59 57 56 54 52 48 47 46 46 46 48 49 49 50 49 50 51 52 52 53 54 54 54 55 56 55 55 53 52 51 49
57 58 56 57 56 57 57 57 58 58 58 59 58 58 55 54 52 49 47 45 47 47 45 44 46 48 48 48 49 50 50 51 51 53 54 54 55 56 56 55 53 53 51
56 58 57 57 56 57 58 57 58 59 58 58 58 57 55 53 52 50 47 46 48 48 46 43 42 44 45 45 45 45 44 44 45 47 51 53 52 51 56 55 54 53 52
56 57 57 58 56 57 58 58 58 58 57 56 57 56 55 53 51 49 47 47 49 49 48 45 43 41 42 42 42 43 43 43 44 42 46 50 53 54 54 56 55 54 52
55 56 57 57 57 57 57 57 57 56 55 56 57 56 54 52 52 51 49 49 48 50 49 47 44 44 41 39 35 39 42 44 43 44 45 48 53 55 55 54 54 52 52
55 55 56 56 56 56 56 55 54 54 54 55 56 55 55 53 53 53 51 51 49 48 50 50 47 45 43 41 38 38 38 40 41 42 44 45 48 51 52 53 53 50 52
54 54 55 56 56 56 56 56 55 54 52 53 54 56 55 54 54 54 54 53 52 51 51 52 49 46 45 42 40 39 38 38 38 39 39 42 45 47 48 50 51 52 50
53 54 54 55 55 56 56 56 54 51 50 49 51 53 54 56 53 54 56 56 56 55 51 52 51 49 46 45 43 42 39 40 39 40 40 40 41 43 44 47 49 50 50
52 53 53 54 55 55 56 54 53 51 50 48 48 51 51 53 55 56 57 57 56 56 55 54 53 51 50 47 44 42 44 43 41 40 41 41 41 41 43 44 45 47 47
51 52 53 53 54 55 54 54 52 52 51 50 48 48 49 50 52 53 55 56 56 56 56 56 54 52 51 50 47 45 43 43 43 42 44 40 41 40 40 42 44 43 43
50 51 52 52 53 53 54 53 52 51 49 48 48 47 48 48 50 52 52 54 55 56 56 56 56 54 52 50 49 48 45 44 42 41 41 43 39 41 41 41 40 41 41

GFSSE_sfc_30mbdewp_054.txt.gz
Dewpoint
61 62 69 70 71 70 70 69 69 70 70 69 69 69 68 68 68 68 67 67 66 65 64 64 63 62 64 64 64 64 64 65 64 64 64 63 63 64 63 63 63 63 63
63 61 68 69 70 70 69 69 70 70 69 69 68 69 68 69 68 68 68 66 66 65 63 63 61 60 63 63 63 64 64 64 64 64 63 63 63 62 62 62 62 61 61
62 64 65 69 69 71 70 70 70 70 69 68 68 69 69 69 68 68 67 66 65 64 62 60 59 60 61 62 62 62 61 61 61 60 60 58 59 60 60 60 60 59 58
61 63 62 69 69 70 70 70 70 70 69 68 69 68 68 67 66 66 65 64 63 62 60 60 60 59 60 62 62 62 61 58 56 57 51 54 58 59 59 58 58 57 57
62 61 60 68 69 68 70 70 70 69 68 68 68 68 67 66 66 65 64 63 62 61 59 59 60 61 62 62 62 61 61 60 57 51 52 52 54 56 56 56 56 56 56
66 62 64 67 68 68 69 69 69 69 68 67 67 66 66 66 65 65 63 63 63 62 59 60 61 62 62 61 61 59 58 56 53 49 50 53 52 55 54 55 53 54 53
65 64 64 67 67 65 64 69 68 68 68 67 66 66 66 66 65 65 63 63 63 63 60 60 61 61 61 60 59 58 55 54 48 48 50 52 55 55 55 55 53 54 53
64 65 64 66 65 63 64 66 68 67 66 66 66 66 66 66 65 64 64 64 63 63 62 62 62 61 60 59 58 57 55 50 48 48 50 52 55 54 54 52 52 52 52
64 64 65 64 62 62 62 66 66 66 65 65 66 66 65 65 65 64 63 63 64 64 63 62 61 60 59 59 58 56 54 52 48 49 49 51 54 53 53 52 52 51 51
63 63 64 63 63 61 62 63 64 65 65 64 65 65 65 64 63 63 63 64 65 64 62 62 61 60 59 59 58 57 54 51 48 48 48 52 53 53 53 52 52 51 51
63 63 63 62 61 62 63 63 62 62 63 63 64 64 63 61 60 59 59 65 64 63 61 61 60 60 59 58 58 55 54 48 48 47 50 55 53 53 52 52 52 51 51
61 62 63 61 62 61 61 61 62 63 62 62 61 60 61 60 58 54 63 64 63 62 61 61 60 59 54 50 52 55 48 49 49 49 51 55 53 52 52 52 51 51 50
60 61 62 63 62 61 60 60 61 62 61 61 60 58 60 58 54 59 62 61 60 58 54 56 55 50 47 47 49 48 50 50 49 49 53 55 54 53 52 51 51 50 49
59 60 62 63 63 62 61 61 61 61 60 61 60 59 59 55 55 55 56 56 55 54 53 52 50 49 49 47 48 50 51 49 49 50 53 55 54 53 52 51 50 49 48
58 60 61 61 60 60 59 59 61 60 60 61 60 57 56 54 53 51 52 53 53 53 53 51 50 50 48 47 48 50 50 50 51 49 52 55 54 53 52 51 50 49 48
58 58 58 59 60 60 58 59 60 60 60 60 58 55 53 53 52 48 48 47 48 52 51 49 48 47 45 46 48 48 49 50 51 50 50 54 55 55 54 52 52 50 49
57 57 58 58 58 58 58 59 59 59 59 59 55 54 51 52 51 49 44 43 45 46 47 46 47 45 44 44 46 48 48 49 49 50 50 51 54 55 55 54 53 52 50
58 57 57 57 58 57 58 58 58 59 59 59 57 55 53 50 50 48 44 43 44 45 44 45 46 45 43 43 44 45 45 46 47 48 49 50 50 51 55 56 55 54 52
57 58 57 56 57 57 58 58 57 58 58 58 57 53 52 49 48 45 44 45 48 45 44 44 43 42 42 41 42 42 42 41 43 43 46 49 50 49 50 55 55 55 54
56 58 57 56 57 57 57 58 58 57 57 57 56 54 52 50 50 47 44 47 49 46 47 45 43 42 40 39 36 39 40 41 41 41 42 44 46 50 49 50 54 53 54
55 57 57 56 56 57 56 56 56 55 54 55 54 55 56 51 50 48 45 49 48 48 47 48 46 44 41 41 37 39 40 42 42 41 42 43 44 47 49 50 50 49 51
54 55 57 56 56 56 56 56 56 55 53 54 53 54 55 55 51 50 48 48 47 48 51 51 49 47 44 43 41 41 41 41 41 42 41 42 42 43 45 48 48 47 47
53 54 56 56 56 56 56 57 56 56 55 53 52 53 54 55 51 50 51 49 49 48 50 52 52 50 47 47 46 45 43 42 42 42 42 41 42 43 44 44 46 46 47
52 54 55 56 56 56 57 55 54 53 52 53 52 51 52 54 53 51 52 52 53 51 50 51 52 52 51 48 47 47 48 47 44 43 43 43 43 43 42 43 44 46 46
51 53 53 55 56 56 56 55 54 53 52 52 52 52 54 54 53 52 52 54 55 55 55 55 54 55 53 53 50 48 48 48 48 46 45 46 45 44 43 43 44 43 46
51 52 53 54 55 55 55 55 54 53 51 51 51 51 53 53 55 55 54 56 56 56 56 56 56 56 56 54 53 52 50 48 47 47 45 46 46 47 48 46 44 44 44

GFSSE_sfc_30mbdewp_057.txt.gz
Dewpoint
60 66 69 70 71 70 70 70 70 70 70 69 69 69 69 69 69 68 67 66 66 66 66 66 65 65 65 65 65 65 65 65 65 65 65 64 64 64 63 64 63 62 63
62 64 69 70 71 71 70 70 70 70 70 69 69 68 69 68 68 68 67 67 66 65 64 64 65 64 64 65 65 65 65 65 65 65 64 63 63 63 62 63 62 61 61
62 63 65 68 70 70 70 70 70 70 70 69 68 68 69 68 68 68 67 66 66 64 62 62 64 63 63 64 64 64 64 64 63 61 61 60 61 61 60 60 60 60 59
60 64 62 68 69 70 70 69 69 69 69 69 68 69 68 67 67 67 66 66 65 63 60 60 62 63 62 62 62 61 62 62 62 60 56 58 59 60 59 59 59 59 58
62 63 63 66 69 69 70 70 70 69 69 69 69 69 68 67 67 66 65 65 64 62 59 59 61 62 62 63 61 60 58 57 58 54 53 56 58 59 58 58 57 56 56
64 60 65 65 68 69 69 70 70 69 68 67 67 68 68 67 66 65 64 63 62 61 60 61 61 62 62 61 61 59 58 57 54 49 51 53 54 57 56 56 55 55 55
65 62 66 66 67 68 68 69 68 68 67 67 68 67 67 66 65 64 63 62 62 62 61 61 62 61 61 60 59 58 56 54 47 49 50 53 55 55 55 55 54 54 54
64 66 65 66 65 65 66 65 66 66 66 67 67 67 66 65 64 64 64 64 63 62 63 62 62 61 60 59 57 54 52 51 47 48 50 53 55 54 54 54 53 53 52
64 66 66 65 64 64 63 65 65 67 67 67 66 66 65 65 63 64 64 64 63 63 63 62 62 61 60 59 55 54 53 53 47 48 49 52 54 53 53 53 53 52 52
63 65 66 65 64 62 63 63 64 65 64 66 66 66 66 65 64 64 64 64 63 63 63 62 61 60 59 58 56 53 52 49 47 47 49 53 54 53 52 52 52 52 52
61 64 64 64 64 63 62 64 64 65 62 64 66 65 64 62 62 62 62 65 63 63 62 61 61 60 59 57 54 52 51 46 46 48 50 55 53 52 52 52 52 52 51
59 62 63 63 62 62 63 63 64 63 63 62 62 62 61 61 61 58 63 64 63 62 61 61 60 58 53 48 50 53 50 47 47 48 52 55 53 53 53 52 52 51 51
59 61 63 62 61 61 62 63 63 64 63 62 60 58 59 61 59 60 63 63 59 58 56 55 55 49 45 45 50 50 49 48 48 49 53 55 53 53 52 52 51 51 50
58 60 62 61 60 61 61 61 62 62 62 61 60 59 60 58 59 61 60 59 56 53 52 50 49 48 47 46 48 50 50 47 48 50 54 55 54 52 52 51 51 50 50
58 59 61 62 62 61 60 61 61 62 61 60 60 60 60 56 58 59 58 58 54 53 51 49 48 48 47 47 49 50 49 49 49 49 51 55 55 53 52 52 51 50 49
58 59 60 61 61 61 60 60 60 61 60 60 58 58 59 57 56 56 56 55 52 52 50 48 48 47 45 47 49 50 49 49 49 50 51 53 55 55 53 51 51 50 49
57 58 58 60 60 59 59 60 61 61 60 58 58 59 58 55 55 54 54 52 51 51 49 48 48 45 43 45 47 48 49 50 49 50 50 51 53 55 55 54 52 51 50
58 57 58 59 59 59 59 59 60 60 60 58 59 59 55 54 53 52 49 48 48 49 48 46 45 43 43 43 46 46 46 48 49 50 49 51 51 52 55 55 55 53 51
57 57 57 58 58 58 59 59 59 59 59 59 58 55 54 53 51 49 46 47 47 46 45 44 45 43 42 42 44 44 44 45 47 47 48 49 50 50 54 55 55 55 54
57 57 57 57 57 58 58 58 58 58 58 59 56 54 52 50 50 50 48 49 47 44 43 44 45 44 42 41 40 41 42 42 42 42 44 46 48 49 51 54 55 55 55
55 57 57 57 57 57 56 56 56 56 57 57 57 52 53 50 50 50 48 52 51 47 45 47 44 43 41 41 38 38 40 41 42 41 42 43 44 47 49 49 55 53 54
54 56 57 56 57 56 56 56 55 55 56 56 56 57 53 52 50 50 49 50 52 48 49 50 48 44 41 41 37 37 38 39 42 44 43 43 45 44 46 49 49 50 51
53 55 57 56 56 56 56 57 56 55 55 54 53 54 55 55 51 50 51 51 51 51 52 53 52 49 45 45 44 42 40 38 41 44 46 45 46 45 44 45 48 48 49
52 54 56 56 56 56 57 56 55 54 52 52 52 51 50 54 54 51 51 52 52 51 51 54 53 52 50 47 49 48 50 49 46 44 45 46 46 45 47 46 44 46 48
51 54 55 56 56 56 56 56 55 54 53 51 51 51 51 54 56 54 52 53 53 53 53 53 54 55 53 51 49 49 49 49 50 48 47 46 46 46 45 47 47 46 47
50 52 55 56 56 56 56 55 55 54 53 52 52 52 52 53 55 55 52 53 55 56 56 55 55 55 56 53 53 52 51 49 48 48 48 47 48 48 47 47 49 49 50

GFSSE_sfc_30mbdewp_060.txt.gz
Dewpoint
66 68 70 71 71 70 70 70 70 70 70 69 70 70 70 69 67 67 67 66 66 66 66 66 65 65 65 66 66 66 66 66 66 66 65 65 64 64 64 64 63 63 64
65 66 70 70 71 70 70 70 70 70 70 69 69 70 69 69 67 67 67 67 67 67 66 66 65 65 65 66 66 66 66 66 65 65 65 64 63 63 62 63 62 62 62
62 67 68 71 71 71 70 70 70 70 70 69 69 69 69 68 68 68 68 67 66 66 65 65 64 64 65 65 65 65 65 65 64 63 62 61 62 62 61 61 61 60 61
60 66 66 69 71 71 70 70 70 70 69 69 69 69 68 68 68 67 67 66 65 65 64 64 64 64 64 65 64 65 64 62 61 60 60 60 60 61 61 60 59 58 58
62 64 64 67 69 70 70 70 69 69 69 68 69 69 68 68 67 66 66 65 64 63 63 63 63 63 63 62 63 63 63 62 60 58 58 59 60 60 59 57 57 56 56
63 63 66 66 67 69 69 69 68 68 68 68 68 68 68 68 67 66 65 64 63 62 61 62 63 62 62 61 59 58 58 59 58 54 57 58 58 59 57 56 56 56 55
63 66 66 65 66 68 68 67 68 68 68 68 68 68 67 67 66 65 64 64 63 62 62 62 62 61 61 59 59 57 55 54 51 53 55 56 56 56 56 55 55 55 54
63 65 67 65 65 64 67 67 66 65 66 67 68 67 67 66 65 64 63 63 64 64 63 63 62 61 60 58 56 54 54 53 51 52 54 55 55 55 54 54 54 53 53
63 64 66 66 66 64 64 64 65 64 61 66 67 67 66 65 64 64 64 64 64 64 63 62 62 61 59 56 55 53 51 54 51 52 54 54 55 54 54 53 53 53 53
63 65 66 65 65 64 63 64 62 62 58 58 66 66 65 64 64 65 64 64 64 63 63 62 61 60 57 55 52 49 51 52 49 51 54 55 54 53 53 53 53 53 53
60 65 65 65 65 64 64 64 63 63 58 64 65 65 63 63 63 64 63 64 63 63 62 62 61 59 56 53 51 53 53 49 51 52 54 55 53 53 53 53 53 52 52
58 62 64 64 63 64 64 64 62 61 60 64 63 63 62 63 62 62 62 64 63 62 62 61 60 57 53 52 52 51 51 50 51 52 54 55 54 53 53 53 53 52 51
58 61 63 63 63 63 63 63 63 63 63 64 63 63 63 62 62 62 63 62 62 61 60 59 57 51 48 49 51 52 53 50 51 52 55 55 54 53 53 52 52 52 51
58 59 62 63 62 62 63 63 62 61 63 62 60 60 61 60 61 61 61 59 57 56 55 54 52 51 47 48 52 52 50 51 52 54 55 55 54 53 52 52 52 51 50
57 60 62 62 60 61 62 63 62 62 61 61 59 59 60 59 59 60 60 57 54 54 53 51 51 50 50 48 53 51 52 51 53 53 55 54 53 53 52 52 52 51 50
58 60 61 62 62 61 61 61 61 62 61 59 58 58 60 59 59 58 60 56 54 53 53 50 52 50 50 50 51 52 51 51 52 53 55 55 55 54 53 52 52 51 51
58 59 60 60 61 61 60 61 61 61 60 59 58 58 59 59 57 59 58 56 54 53 53 51 51 49 49 50 51 51 51 52 51 52 53 54 55 55 54 53 52 51 51
58 58 59 60 60 60 60 60 61 61 60 58 58 57 58 58 57 58 57 56 54 53 53 52 49 48 48 49 50 50 51 51 52 52 52 53 54 54 55 55 54 53 52
57 58 58 59 59 59 59 60 60 61 60 57 57 56 57 57 56 56 56 56 54 53 52 50 49 47 47 48 49 49 50 50 50 50 52 52 53 53 54 55 55 55 54
57 57 58 58 58 59 59 59 59 59 58 57 57 56 58 56 53 54 51 52 50 50 50 49 48 48 47 46 45 47 48 48 49 50 49 51 53 53 54 54 55 55 55
57 57 57 57 58 57 57 57 57 56 57 57 57 57 55 53 51 51 50 50 49 47 46 49 49 47 47 46 45 46 45 45 47 46 47 48 49 51 54 55 55 55 55
57 57 57 57 57 57 57 56 56 56 57 57 57 54 52 52 51 50 51 49 49 52 50 49 46 47 47 47 43 42 41 43 43 46 46 45 46 48 51 55 55 55 54
55 57 57 56 57 56 56 56 56 56 56 55 55 54 52 51 50 50 51 52 51 53 50 50 49 49 45 45 43 41 40 40 42 44 45 47 45 49 48 49 52 54 54
53 57 57 56 56 56 56 55 55 54 53 51 54 55 53 55 51 50 52 52 51 51 53 54 53 53 50 46 44 45 48 51 47 45 46 47 48 48 47 47 48 51 50
53 55 56 56 56 56 56 55 55 54 53 50 53 54 53 54 56 52 52 53 52 51 52 54 55 54 54 53 49 49 49 50 51 49 46 46 48 47 48 49 48 47 48
52 55 56 56 55 56 56 56 55 54 53 50 51 50 50 52 56 56 53 53 54 55 53 54 55 56 55 55 54 52 51 50 50 50 49 49 47 48 48 49 49 49 49

GFSSE_sfc_30mbdewp_063.txt.gz
Dewpoint
67 70 71 70 70 70 70 70 70 69 70 70 70 70 69 68 68 67 67 66 65 65 65 66 66 65 66 67 67 67 67 67 67 66 66 65 64 64 64 64 65 65 65
68 69 71 71 70 70 70 70 70 70 70 70 70 69 68 68 68 67 66 67 67 66 65 65 64 64 65 66 67 67 66 66 66 66 65 64 63 63 64 63 64 64 64
66 69 70 71 70 70 69 70 70 70 70 70 70 69 68 68 68 68 68 68 68 67 65 64 65 64 65 66 66 66 65 65 64 63 63 63 63 63 62 62 62 62 61
67 68 70 71 71 70 69 70 70 70 69 70 70 69 68 68 69 68 68 68 67 66 65 65 64 65 65 66 65 65 64 64 63 62 61 62 62 61 60 59 59 59 59
65 66 69 71 71 70 70 70 70 70 69 70 69 68 68 69 68 68 67 67 66 66 65 64 64 64 65 66 65 63 63 62 61 59 60 61 60 60 59 58 57 56 56
63 65 68 69 70 70 70 69 69 69 69 69 69 68 69 68 68 67 66 65 65 65 64 63 64 64 63 63 63 63 61 59 58 58 59 59 58 57 56 56 55 55 56
63 66 67 67 69 70 70 69 68 68 67 68 68 69 68 67 67 66 65 64 65 64 63 63 63 62 61 61 59 57 56 57 56 56 56 57 56 56 56 55 55 55 55
63 66 66 67 67 67 68 67 68 68 65 65 68 68 68 67 66 65 64 63 64 64 63 63 62 61 60 58 56 54 57 56 55 54 54 55 56 55 54 54 54 54 54
63 65 66 65 65 65 65 65 64 65 63 64 65 67 66 65 65 65 65 65 64 64 63 62 62 60 58 57 52 55 56 56 54 54 54 54 54 54 54 54 53 53 53
63 65 65 65 65 64 65 63 62 62 61 61 62 63 66 64 65 65 65 65 64 63 63 62 61 58 56 53 52 56 56 55 54 54 55 54 54 54 54 54 53 53 53
63 63 64 65 65 64 64 63 61 60 60 61 61 59 64 64 64 64 64 64 64 63 62 61 60 56 54 52 53 54 52 53 54 54 55 55 54 53 54 54 53 53 53
60 62 63 63 64 64 64 63 62 61 59 60 61 60 64 64 63 64 64 64 63 63 62 60 58 55 51 51 51 52 52 53 53 54 55 55 54 54 54 53 53 53 53
60 62 62 63 63 63 63 62 61 60 60 59 63 64 63 63 63 63 63 62 62 62 60 58 56 53 49 50 50 51 52 53 53 54 55 55 54 54 54 53 53 52 52
59 62 62 63 63 63 63 62 61 61 62 61 63 63 63 63 62 62 61 61 60 59 58 56 52 50 48 50 50 53 52 52 53 54 55 54 54 53 53 53 53 52 51
59 60 62 62 62 62 62 61 61 62 62 62 62 62 62 62 61 60 60 58 57 57 55 52 51 49 47 49 51 52 52 53 53 54 55 55 55 54 53 53 53 52 50
60 59 61 61 61 62 62 61 61 62 61 61 61 61 60 61 61 60 56 55 55 54 51 50 51 50 47 48 51 52 52 53 53 54 55 54 54 54 53 53 53 52 51
58 58 60 61 61 61 61 61 61 61 59 58 59 59 59 60 59 60 55 53 54 53 48 50 51 51 49 51 51 52 52 53 53 54 54 54 55 54 54 54 53 52 52
58 59 60 61 61 61 60 61 61 60 58 57 57 57 59 58 58 60 57 53 55 52 51 50 51 50 50 50 51 51 52 52 53 53 54 54 54 54 54 55 54 53 52
58 58 59 59 60 60 60 60 61 60 59 58 57 57 58 58 57 59 58 55 55 53 54 52 50 49 49 50 50 50 51 52 52 52 53 53 54 54 54 55 55 55 54
58 58 58 59 59 59 60 60 60 60 60 58 57 57 58 57 57 58 58 57 56 55 54 50 49 48 49 49 48 48 50 51 52 52 52 53 53 53 54 54 55 54 55
57 58 57 57 58 58 58 57 57 57 57 57 57 56 57 56 55 53 55 54 55 54 52 49 49 47 47 49 47 48 48 49 49 49 52 52 53 53 54 53 54 54 55
56 57 57 57 57 57 57 57 57 57 57 57 57 56 56 54 54 51 53 53 52 53 51 49 48 48 47 48 45 46 43 43 46 48 48 49 52 53 54 54 54 54 54
56 56 56 56 57 57 57 57 57 57 57 56 56 56 55 53 52 51 51 52 51 52 51 48 47 46 44 47 45 42 41 40 41 44 46 46 46 48 52 54 55 54 54
56 57 57 56 56 56 57 56 55 54 53 54 54 53 52 52 51 50 50 50 50 52 51 49 47 47 46 44 46 45 45 47 44 44 45 46 46 46 47 51 55 55 55
56 56 56 56 56 56 56 55 54 53 53 53 54 53 52 52 51 50 52 51 51 51 53 50 49 48 51 47 44 43 45 48 50 48 46 45 47 48 48 48 49 52 54
56 56 56 56 56 56 56 55 54 53 52 51 53 54 53 53 52 51 51 53 51 51 51 55 53 52 51 53 51 48 45 44 47 49 48 47 45 47 48 48 48 48 49

GFSSE_sfc_30mbdewp_066.txt.gz
Dewpoint
68 70 70 70 71 71 70 70 69 70 70 70 70 69 69 69 69 68 68 67 67 68 67 67 68 67 67 67 68 68 68 67 66 66 66 65 65 65 65 66 66 65 66
68 71 70 70 70 71 70 70 70 70 70 70 70 69 68 68 68 67 67 67 67 67 66 66 66 67 67 67 68 67 67 66 66 66 65 65 65 65 65 65 65 65 65
68 71 70 70 70 70 70 70 70 70 70 70 69 69 68 68 67 66 66 67 67 66 65 65 66 66 66 67 67 66 66 65 65 65 64 63 63 64 63 63 63 63 63
67 70 71 70 70 70 70 70 70 70 70 69 68 68 68 68 69 69 68 67 67 65 63 63 65 65 66 66 65 65 64 64 64 63 62 62 62 62 61 61 60 60 60
67 69 71 70 70 70 70 70 70 70 70 69 68 68 68 69 69 69 68 67 67 66 65 64 64 65 66 65 65 64 63 62 62 61 60 61 60 60 59 58 58 58 58
66 68 70 70 70 70 70 70 70 70 70 69 68 69 69 69 68 68 68 67 66 66 65 64 65 66 65 64 64 62 62 61 60 60 60 59 58 57 57 56 57 55 56
65 67 69 70 70 70 70 70 70 69 69 69 69 69 69 68 68 67 66 66 65 66 65 64 65 65 64 63 61 61 60 59 57 58 57 58 57 56 55 55 55 55 54
65 66 68 69 70 69 68 68 69 69 69 69 69 69 68 68 67 66 66 65 66 65 64 64 63 63 60 58 60 59 58 56 55 55 55 57 57 57 55 56 56 54 54
66 65 66 67 68 67 67 66 66 67 66 66 64 66 67 67 66 66 66 66 65 64 64 64 63 60 57 59 59 58 57 55 54 54 54 55 55 54 55 54 54 54 54
63 65 65 65 65 65 65 65 64 65 64 63 63 62 64 65 65 65 65 65 64 64 63 63 61 58 58 59 58 58 57 55 54 53 52 53 54 54 54 54 54 54 54
63 63 64 64 64 64 63 64 64 63 64 63 62 61 60 63 63 65 64 64 64 63 63 62 59 57 58 59 58 58 55 54 54 54 55 55 54 54 53 53 53 54 54
61 62 63 64 64 63 63 62 62 62 62 61 61 61 59 63 64 64 64 64 63 62 62 60 58 56 54 54 56 55 53 53 54 54 55 56 54 54 54 54 53 53 53
60 61 62 63 64 64 62 62 60 60 60 60 60 59 60 63 63 64 63 63 62 61 60 58 56 51 51 51 52 53 53 53 54 54 55 56 54 54 54 54 53 53 53
61 61 62 63 63 63 62 61 60 59 59 60 60 59 61 63 63 62 61 61 61 59 58 56 53 50 49 51 52 53 53 53 54 54 55 55 55 54 54 53 53 53 53
60 61 62 62 63 63 62 61 60 59 60 59 62 60 62 62 62 61 60 60 59 58 56 54 51 48 48 52 53 52 52 53 54 54 55 56 55 54 53 53 53 52 52
60 60 61 62 62 62 62 61 60 62 61 61 63 62 62 62 61 60 59 58 57 56 55 52 50 46 48 50 52 52 52 53 54 55 55 55 55 55 54 53 53 52 52
59 59 60 61 62 62 61 61 61 61 61 62 62 62 62 62 60 59 56 55 55 54 51 50 51 48 47 50 52 52 53 53 54 54 54 55 55 55 55 54 53 53 52
58 58 60 61 61 61 61 61 61 60 59 60 60 60 61 61 60 57 54 53 52 51 48 50 51 49 47 51 52 52 53 53 53 54 53 54 54 54 54 55 55 54 53
58 58 60 61 60 60 60 61 60 59 58 59 59 59 60 60 59 56 53 53 51 50 47 50 51 50 48 51 51 52 53 53 53 53 53 53 54 54 54 55 55 55 55
58 58 59 60 60 60 60 60 60 59 58 58 58 58 59 58 59 58 54 56 51 49 49 51 51 50 50 50 50 51 52 52 53 53 53 53 53 53 54 54 55 54 54
57 57 58 58 59 59 59 58 58 58 58 58 58 57 58 57 58 59 56 55 55 53 52 51 50 49 50 50 49 48 50 52 52 52 53 53 53 53 53 53 54 54 54
56 56 56 58 58 58 58 58 58 58 58 58 58 57 57 57 56 57 58 55 56 55 53 51 49 48 49 49 47 47 45 46 49 50 52 52 52 53 53 53 53 54 54
56 56 56 57 57 57 57 57 57 57 57 56 57 57 58 57 55 54 56 54 55 55 52 50 49 47 47 48 47 46 42 43 43 45 48 51 52 52 52 53 53 53 54
56 56 56 56 56 56 57 56 56 54 54 55 56 56 57 56 54 53 54 53 54 54 53 51 49 47 47 47 46 45 45 43 41 40 45 46 48 51 52 53 53 54 54
56 56 56 56 56 56 56 56 56 55 55 55 56 55 56 56 53 52 52 53 52 53 54 53 50 47 47 47 45 45 46 49 50 47 44 44 47 47 48 51 54 54 55
56 56 56 55 55 56 56 56 55 54 53 53 54 54 54 53 52 52 51 52 52 52 54 54 51 46 46 46 48 45 44 44 47 48 47 46 45 45 47 48 49 53 54

GFSSE_sfc_30mbdewp_069.txt.gz
Dewpoint
67 70 70 70 70 70 70 70 69 70 71 71 71 71 70 70 70 69 69 69 69 69 67 67 69 68 67 67 67 67 68 67 67 67 67 66 66 66 66 66 66 66 66
67 70 70 70 70 70 70 70 70 70 70 70 70 70 70 70 69 69 69 69 69 68 67 67 69 68 67 67 68 67 67 67 66 66 66 65 65 65 66 66 66 66 66
68 70 70 70 70 70 70 70 70 70 70 70 70 70 69 69 68 68 68 68 68 67 66 67 67 67 67 67 67 67 67 66 66 65 64 64 64 64 65 65 65 65 65
69 70 70 70 70 70 70 70 70 70 69 69 69 69 68 68 68 68 68 68 67 67 66 67 67 67 67 67 66 66 65 65 64 63 62 62 63 63 62 62 63 64 64
68 69 69 70 70 70 70 70 70 70 70 69 68 68 68 67 67 68 68 67 67 66 65 66 66 66 66 66 65 65 64 64 63 61 61 61 61 62 62 60 60 60 60
67 69 70 69 69 70 70 70 70 70 69 69 68 68 68 68 68 68 67 66 65 64 65 65 65 65 65 65 64 64 63 62 60 60 60 60 60 60 58 58 59 59 59
66 68 70 69 69 70 70 70 70 70 69 68 68 68 68 68 68 68 67 67 66 65 65 66 65 64 65 64 63 62 62 60 59 57 57 57 57 58 56 56 55 55 55
65 67 69 69 69 69 70 68 68 69 69 68 68 68 68 68 68 67 67 66 65 65 65 65 64 64 63 62 62 61 60 59 56 56 57 56 56 55 56 56 54 56 55
65 66 68 69 69 69 68 68 66 65 66 68 67 66 67 67 67 67 66 66 66 65 65 64 64 62 62 62 61 59 58 56 54 55 56 58 57 58 54 53 55 55 54
65 65 66 67 66 65 66 67 66 64 64 64 65 65 64 65 65 66 66 66 66 65 64 63 61 60 62 61 59 58 57 55 53 54 54 57 57 56 55 55 54 54 54
64 64 64 64 64 64 65 66 65 63 62 61 64 64 62 63 64 64 65 64 65 64 63 61 60 61 61 60 58 58 55 54 53 53 52 56 54 54 54 54 54 53 53
61 62 63 64 63 63 64 64 64 62 63 63 63 62 61 62 63 62 63 64 64 63 62 60 59 61 59 58 58 55 54 54 54 54 54 56 54 54 54 53 53 54 54
61 61 62 63 63 62 62 62 62 63 63 62 61 61 61 62 63 62 63 63 63 62 60 58 57 56 56 55 54 53 53 54 54 55 55 56 55 54 54 54 53 53 54
60 60 62 62 62 62 62 61 60 61 61 61 60 60 61 61 62 63 62 61 61 59 58 55 51 52 53 53 53 53 53 54 54 55 56 56 55 54 54 54 53 53 53
59 60 61 61 61 62 61 61 60 59 60 60 59 59 61 61 62 63 61 61 59 58 56 53 50 50 52 52 53 53 53 53 54 55 55 55 56 55 54 54 54 53 53
59 60 61 61 62 62 61 60 59 59 60 59 60 59 62 61 62 61 60 60 58 57 55 52 49 50 52 52 52 52 53 53 54 55 55 55 55 55 54 54 53 53 53
59 60 60 61 62 62 61 60 60 61 61 60 60 59 61 62 62 61 59 58 57 56 54 51 48 49 51 52 52 52 53 53 54 54 55 55 55 55 55 55 53 53 53
59 59 60 61 60 61 61 60 61 61 61 61 62 61 60 62 61 59 58 57 56 54 52 51 49 48 49 52 52 52 52 53 54 54 54 54 55 55 55 55 55 53 53
58 58 59 60 60 60 61 61 60 60 60 60 61 61 62 61 59 57 55 54 54 52 51 50 50 49 49 52 52 52 52 53 53 54 53 54 54 54 54 56 55 55 54
57 58 59 58 60 60 61 60 60 59 59 59 59 60 61 60 58 55 54 53 52 49 49 49 49 50 50 52 51 52 52 53 53 53 53 53 54 54 54 54 55 55 55
57 57 58 57 59 60 59 58 58 57 58 58 58 59 59 60 58 55 54 53 51 46 47 51 50 49 50 51 50 50 51 52 52 53 53 53 53 53 53 53 54 54 54
56 57 57 57 58 59 59 59 59 59 58 58 58 58 59 58 60 56 54 54 51 48 50 51 49 49 49 50 49 48 48 49 51 52 52 52 52 53 53 53 53 54 54
55 56 57 57 57 58 59 58 58 58 58 58 57 57 58 58 58 59 55 54 54 51 52 51 50 49 48 50 49 47 44 46 46 48 50 52 52 52 52 53 53 53 54
55 56 56 56 57 57 58 57 56 56 55 56 57 57 58 57 57 57 58 55 56 55 53 51 50 49 49 48 47 47 46 46 45 44 46 50 52 52 52 52 52 53 53
55 55 56 56 56 57 57 57 56 55 55 56 56 56 57 57 56 55 57 56 54 56 54 53 50 48 49 49 47 46 46 46 47 44 42 44 47 50 52 52 53 53 53
55 55 55 55 55 56 56 56 55 54 54 55 55 55 56 57 56 55 56 55 55 55 55 54 51 49 49 49 48 47 46 46 47 48 46 46 43 45 48 50 52 53 54

GFSSE_sfc_30mbdewp_075.txt.gz
Dewpoint
66 67 69 68 68 70 71 71 71 72 71 71 71 71 71 71 71 71 70 70 71 70 69 68 69 69 68 68 69 68 68 68 68 68 68 68 67 67 67 68 66 66 67
66 68 69 68 68 70 71 71 71 71 71 71 71 71 71 71 71 70 70 70 70 69 68 69 69 69 68 68 69 68 68 68 68 68 67 67 67 66 67 67 66 66 67
67 69 68 68 68 70 70 71 72 72 71 71 71 71 71 71 70 70 70 69 69 69 69 68 68 68 67 69 68 68 68 67 67 67 66 65 66 66 66 67 67 66 66
68 69 68 68 68 70 70 71 70 71 72 71 71 71 71 70 70 70 70 69 69 68 68 68 68 68 68 68 68 68 67 67 66 66 64 64 64 65 65 65 65 66 66
67 68 68 68 67 69 70 70 70 70 71 71 71 71 71 70 70 70 70 69 68 67 68 67 67 68 68 68 67 67 66 65 64 63 63 63 63 65 65 65 65 64 64
67 68 69 68 68 68 70 70 70 69 69 71 71 71 70 70 70 70 69 68 68 68 67 67 67 67 67 67 66 65 64 63 62 61 62 62 62 63 63 64 64 64 64
67 68 69 69 68 68 70 69 70 69 69 69 70 70 70 70 70 68 68 68 67 67 67 67 67 67 66 66 65 64 63 61 60 60 60 60 61 61 61 62 62 62 62
67 67 68 69 69 68 68 69 69 69 69 69 70 70 69 69 68 67 66 65 67 67 67 67 67 66 65 64 63 62 61 60 58 58 58 59 61 60 60 60 59 60 60
67 68 67 67 69 69 68 68 67 66 66 68 68 66 66 64 65 64 64 64 66 66 67 66 66 65 65 64 62 61 59 59 57 57 57 57 59 58 57 58 58 58 58
66 67 68 67 67 68 68 67 67 66 64 64 64 65 65 64 64 63 63 64 65 67 66 66 65 65 64 62 61 59 59 58 56 56 56 58 59 56 57 57 57 57 57
65 66 66 66 67 67 68 67 66 65 65 64 65 64 64 63 62 62 62 63 65 65 65 65 64 64 62 61 60 59 57 56 56 55 55 57 58 57 57 56 57 56 55
63 64 66 66 66 66 66 66 66 65 64 65 65 63 63 63 62 61 62 64 63 65 64 64 64 62 60 59 58 56 55 55 55 55 55 57 56 58 57 57 55 54 54
62 63 64 65 65 65 64 65 65 65 65 65 64 63 63 63 63 63 63 63 62 63 63 63 62 59 59 58 56 55 55 54 54 54 56 57 58 56 55 53 54 54 53
61 62 63 64 64 63 64 63 64 64 64 64 64 63 63 63 62 61 61 63 63 63 61 61 60 59 58 57 56 55 55 54 53 53 54 56 56 55 54 52 54 54 55
59 61 62 63 63 63 62 62 63 62 62 62 63 62 62 62 62 62 61 62 62 60 60 59 58 58 57 56 55 55 55 54 54 53 53 55 54 53 54 55 55 56 55
59 61 61 61 62 63 62 61 62 62 62 62 62 62 61 62 62 61 61 62 60 59 58 57 57 56 55 55 55 54 54 54 53 54 53 53 54 56 57 55 56 54 54
58 60 60 61 62 62 61 61 61 61 61 61 61 61 62 62 62 60 60 61 60 57 56 56 56 55 55 54 53 54 54 54 53 54 54 53 54 56 55 55 54 54 54
58 60 60 60 61 61 60 60 61 60 60 61 61 61 61 61 62 60 60 60 59 56 54 54 54 54 54 53 53 53 52 53 53 54 54 53 52 52 54 55 55 54 53
58 60 59 60 60 60 60 60 60 61 60 60 61 60 61 61 62 61 60 59 58 55 53 53 53 54 53 52 52 52 52 52 54 54 54 54 54 53 52 55 55 55 55
58 59 59 60 59 60 60 60 61 61 61 61 60 60 60 62 61 61 60 58 58 55 52 52 53 53 53 52 51 52 52 53 53 53 53 54 54 55 55 54 54 54 55
58 59 59 59 59 59 58 58 58 58 59 59 61 61 60 60 62 60 58 58 57 55 53 52 52 53 52 53 52 52 52 53 53 53 54 53 53 54 54 54 55 54 54
57 59 58 59 59 60 58 58 58 58 59 59 60 61 61 60 60 59 58 57 56 56 54 52 51 52 52 53 50 50 49 50 52 53 53 53 53 53 53 54 54 54 54
56 58 58 58 59 59 59 59 59 59 58 58 58 59 59 59 58 57 57 56 55 54 53 52 51 51 51 53 52 50 48 47 49 52 53 53 53 53 53 53 53 54 54
56 58 57 57 57 59 59 58 57 56 56 57 57 58 59 59 58 57 55 54 53 52 53 52 51 50 51 51 52 50 51 51 48 48 50 52 53 53 53 53 53 53 53
56 57 56 56 57 58 58 57 56 56 56 57 58 58 58 59 58 58 56 54 52 51 52 52 51 50 51 52 51 50 49 49 51 49 48 49 51 52 52 53 53 53 53
56 56 55 56 56 58 58 58 57 57 56 56 56 57 57 58 59 57 57 55 53 52 52 52 52 51 51 52 52 51 49 48 47 46 45 48 48 48 51 52 53 53 53

GFSSE_sfc_30mbdewp_078.txt.gz
Dewpoint
59 63 69 70 70 70 71 71 71 72 71 71 71 72 71 71 72 72 71 71 71 70 69 69 69 68 68 68 68 69 69 69 69 69 68 68 68 68 67 67 66 66 68
62 64 68 68 70 70 71 71 71 72 71 71 71 71 71 71 72 71 71 71 70 70 69 69 68 68 68 69 69 69 69 69 68 68 68 68 67 67 66 66 66 67 67
64 67 68 68 69 70 71 71 72 72 71 71 71 71 71 71 71 71 70 71 70 70 69 69 69 69 69 69 69 68 68 68 68 67 66 65 65 67 67 67 67 67 67
62 66 67 68 69 70 71 71 72 72 72 72 71 71 71 71 71 70 70 70 70 70 70 69 68 69 69 69 68 68 68 67 67 65 63 63 64 66 66 66 66 66 66
62 64 66 68 68 70 71 71 71 72 72 71 71 71 71 71 70 70 70 70 70 69 70 69 68 69 69 68 68 68 67 66 65 64 61 62 63 65 66 66 66 65 65
63 64 68 67 67 69 70 71 70 69 70 71 71 71 71 71 70 70 70 70 69 69 69 68 68 68 68 67 67 66 65 64 64 61 62 63 63 65 65 65 65 66 65
64 65 68 67 67 68 70 70 70 69 70 71 71 71 71 70 70 68 69 69 68 69 68 68 68 68 67 66 66 65 64 63 61 61 61 62 63 64 64 64 64 64 63
65 67 67 68 68 68 68 69 70 69 69 70 71 69 70 69 69 68 67 67 67 67 66 68 68 67 66 65 64 63 62 61 58 57 59 60 63 62 62 62 63 63 62
66 67 68 68 68 68 68 68 69 69 68 67 68 65 67 66 67 65 64 64 65 66 67 67 67 66 65 64 63 61 60 59 57 56 56 59 61 61 61 60 60 61 60
66 67 68 68 67 68 68 67 68 67 67 66 66 64 63 65 66 66 64 64 63 66 67 67 66 65 64 63 61 60 59 57 56 56 54 58 61 59 59 58 59 59 59
64 65 68 67 67 68 67 67 67 67 66 66 65 65 65 65 65 65 65 64 64 65 66 66 65 64 63 62 61 59 58 54 54 53 55 59 58 58 58 58 58 58 58
62 63 66 67 66 67 67 68 67 65 64 63 64 65 65 64 64 63 63 63 64 64 65 65 64 63 61 59 59 58 55 54 53 52 55 60 58 58 57 57 57 56 56
59 61 63 67 66 66 67 67 65 63 63 64 64 65 65 63 62 60 62 64 63 63 65 64 63 61 59 58 57 55 54 55 52 51 55 58 59 58 57 56 56 55 55
58 60 62 65 64 66 66 66 66 64 63 64 64 64 63 63 62 60 61 62 63 64 64 64 62 60 59 57 56 55 55 52 51 50 56 58 59 57 56 55 54 54 54
57 59 61 65 64 64 65 65 65 64 64 65 65 64 62 62 61 62 63 63 62 63 62 63 60 60 58 56 56 55 54 53 52 49 53 57 58 58 54 54 53 55 55
56 58 61 63 64 64 63 64 64 63 64 64 64 64 63 63 62 62 62 62 62 62 62 61 59 59 56 55 55 55 54 51 51 49 50 54 56 56 56 56 56 56 55
55 58 61 62 63 63 62 62 63 63 63 63 63 63 62 62 63 62 61 62 62 62 62 60 58 57 55 54 54 54 53 51 50 50 49 51 53 55 56 57 57 56 56
55 58 61 62 63 62 62 62 62 62 63 63 63 63 62 61 62 61 60 61 60 60 61 59 57 55 54 53 53 52 51 51 50 50 49 50 52 53 55 56 56 55 55
55 58 60 61 61 61 61 61 61 61 62 62 62 62 62 61 61 61 61 61 59 59 59 58 56 54 53 52 52 51 51 51 51 49 50 50 50 50 52 55 55 54 54
55 59 60 60 61 61 61 61 60 62 62 61 61 61 62 62 62 61 61 60 59 58 57 57 55 55 53 51 50 50 52 52 51 50 49 50 50 50 49 52 52 53 55
56 58 59 60 60 60 60 59 59 60 60 60 61 61 61 61 62 62 61 59 59 57 56 56 55 54 52 52 50 51 52 52 52 51 51 50 49 50 50 50 50 49 52
55 57 58 59 59 59 59 58 59 60 60 61 61 61 61 61 61 61 60 59 58 57 56 56 55 53 52 52 50 50 50 51 52 53 52 51 50 49 49 50 50 50 49
55 57 57 58 59 59 58 58 59 59 59 59 60 59 60 61 60 61 59 59 58 57 56 55 55 53 52 52 50 47 47 45 49 51 52 52 51 51 49 50 51 51 51
54 57 57 58 58 58 57 57 57 56 56 57 57 59 60 60 59 59 59 59 58 58 56 56 54 54 52 51 52 49 47 44 46 48 51 52 52 52 52 51 51 51 51
53 57 58 58 58 57 56 56 56 57 56 57 58 58 59 59 58 58 58 58 58 58 57 56 54 54 53 51 51 51 51 50 48 44 45 50 52 52 52 53 52 52 53
54 57 57 57 57 57 56 57 57 56 56 56 57 57 58 58 58 58 57 57 56 56 56 56 54 54 53 52 52 52 50 49 48 45 44 46 48 51 52 52 54 54 53

GFSSE_sfc_30mbdewp_081.txt.gz
Dewpoint
51 67 69 70 71 71 71 72 71 71 71 71 72 72 72 72 72 72 72 71 71 71 70 70 69 68 68 68 68 70 70 70 70 69 69 69 68 68 67 67 66 66 68
56 64 69 70 70 71 71 71 72 71 71 71 72 72 72 72 72 72 72 71 71 71 70 70 69 68 68 68 70 70 69 69 69 69 68 68 68 67 66 66 67 67 68
59 63 67 70 70 71 71 71 71 72 71 71 72 72 72 72 72 72 71 71 71 71 70 69 68 68 68 70 69 69 69 68 68 67 66 64 66 68 67 67 68 68 67
59 64 64 68 70 71 71 71 71 72 72 71 72 72 70 72 72 70 71 71 71 70 69 69 69 69 69 69 69 69 68 67 67 66 63 63 65 67 67 67 67 67 67
55 61 65 68 69 70 71 71 71 72 72 72 71 72 71 72 71 70 70 71 70 70 69 68 69 69 69 68 68 68 67 66 65 64 62 63 65 66 66 67 66 66 65
55 57 68 68 69 70 71 71 71 72 72 72 71 72 71 71 71 68 68 70 70 70 69 68 69 69 68 68 67 67 66 65 64 63 63 63 64 65 66 66 66 66 66
57 60 68 67 68 69 70 70 70 70 71 71 71 71 71 71 70 68 69 70 69 68 68 68 69 68 68 67 67 66 65 65 63 63 63 63 65 65 65 65 65 65 65
60 62 67 67 67 69 70 70 70 69 69 71 71 70 70 68 68 67 67 67 66 66 66 68 68 68 67 66 66 65 64 63 62 61 62 64 64 64 64 64 64 64 63
62 64 67 67 67 68 68 69 70 69 69 69 69 66 67 65 67 67 66 65 65 64 66 68 68 67 66 65 64 63 61 61 61 60 60 62 64 63 63 63 63 62 62
63 65 67 67 67 67 67 68 68 69 68 68 68 66 66 67 66 66 66 65 64 65 65 67 67 66 65 64 63 61 59 58 57 57 59 61 63 61 61 61 62 61 60
61 64 68 67 67 66 66 66 67 67 67 67 66 65 65 66 65 65 64 63 65 64 63 66 66 65 63 62 61 59 58 53 55 55 59 62 60 59 59 60 60 59 58
59 62 67 67 66 66 63 68 66 66 65 64 62 64 64 65 64 63 61 60 65 64 65 66 65 63 62 62 60 59 57 55 51 51 57 60 60 59 58 58 58 58 58
57 60 62 67 66 66 63 67 65 64 63 64 63 64 64 66 64 64 63 64 64 64 65 65 64 63 62 60 59 57 55 52 50 54 58 59 59 58 58 57 57 57 57
54 58 60 65 64 63 62 66 64 62 64 63 64 64 64 64 64 64 62 63 63 64 64 64 64 63 61 59 57 54 54 50 49 55 58 60 60 58 57 56 56 56 55
50 56 59 62 62 63 66 66 66 62 62 64 63 64 64 63 62 61 61 62 61 63 64 64 63 62 59 57 56 55 51 50 49 53 54 59 59 59 57 56 56 55 55
49 54 58 62 63 64 64 65 65 65 64 64 64 64 63 63 62 61 60 61 63 63 62 62 62 61 59 57 55 52 51 50 50 49 53 57 58 57 56 55 56 56 55
43 53 58 63 63 63 62 63 63 65 65 64 64 64 63 62 62 61 61 62 62 63 61 62 62 61 56 55 53 53 51 49 49 48 51 54 56 56 56 57 57 56 56
42 52 58 62 62 62 60 62 62 64 64 64 64 64 62 62 63 62 62 62 62 62 62 62 61 58 56 52 52 51 50 48 48 48 48 50 52 52 56 57 58 57 57
45 53 58 61 61 62 61 62 61 63 63 64 64 63 63 62 63 63 61 62 62 61 62 61 60 57 54 53 53 49 50 48 48 47 48 49 51 52 53 56 56 56 57
47 54 59 61 61 61 61 61 61 61 62 62 62 62 62 62 62 62 61 61 61 61 61 60 59 56 53 52 50 49 52 50 47 46 48 49 50 50 50 53 53 53 55
49 55 59 60 60 60 59 59 59 59 60 61 61 62 62 62 62 62 61 60 60 60 59 60 58 55 54 53 51 51 52 53 52 47 47 46 47 48 49 53 52 50 53
50 55 58 60 60 59 58 58 58 59 59 60 61 61 61 61 62 62 61 60 60 59 58 58 58 55 53 53 50 50 50 52 52 52 50 48 48 48 48 49 49 48 50
50 55 57 59 59 59 57 58 58 59 59 59 59 60 60 60 60 61 60 60 59 58 57 57 58 55 52 53 51 49 48 46 49 52 52 52 50 49 48 48 49 49 49
49 54 57 58 58 58 58 57 58 57 56 57 57 59 59 60 61 61 60 59 59 58 57 57 58 57 53 52 52 50 48 43 46 48 51 52 50 49 50 48 49 50 51
49 54 57 57 57 57 57 56 55 54 55 56 56 58 60 59 60 60 60 59 58 58 57 57 58 56 54 52 51 50 50 49 49 47 47 50 52 50 50 52 50 51 51
48 54 57 57 57 57 57 56 54 54 55 56 56 58 59 59 58 58 59 59 59 58 58 57 58 56 54 53 53 52 50 49 49 45 44 47 49 50 51 53 53 53 53

GFSSE_sfc_30mbdewp_084.txt.gz
Dewpoint
65 69 70 70 71 72 71 71 71 71 71 72 72 72 72 72 71 72 72 71 72 72 72 71 70 69 69 69 70 70 70 70 70 70 70 69 69 68 68 67 67 68 69
66 68 70 70 70 71 72 71 71 71 71 72 72 72 72 72 72 72 72 71 71 72 71 70 69 68 69 70 70 70 69 69 69 69 69 69 68 67 67 67 68 68 68
64 68 69 70 71 71 71 72 71 71 71 72 72 72 72 72 72 72 71 71 71 71 71 69 68 68 69 70 70 69 69 69 68 68 67 66 68 68 68 68 68 68 68
62 66 68 70 70 71 71 71 72 72 72 72 72 72 72 72 72 71 71 71 71 70 70 69 68 69 70 70 69 69 68 68 67 66 65 66 66 68 68 68 68 67 67
61 63 67 70 70 70 71 71 71 72 72 72 72 72 71 71 70 70 70 71 70 70 69 69 69 70 69 69 69 68 67 65 64 64 65 66 66 67 67 67 67 67 67
59 62 67 68 69 70 70 70 71 72 72 72 72 71 71 71 70 70 69 70 70 70 69 69 69 69 68 68 68 67 65 65 64 64 64 65 66 66 66 67 67 67 66
62 68 67 68 69 70 71 71 71 71 72 71 71 71 71 71 69 68 69 69 70 68 69 69 70 69 68 67 67 65 65 64 64 64 65 66 66 66 66 66 66 66 66
64 69 68 68 69 70 70 70 70 70 71 71 71 70 71 70 68 66 66 67 67 66 66 67 68 68 67 67 66 65 65 63 63 64 65 65 66 65 65 65 65 65 65
64 68 69 67 68 69 69 69 69 69 68 68 69 69 69 68 67 66 67 66 67 65 65 66 68 68 67 66 66 65 64 62 63 64 63 64 65 65 64 64 64 63 63
65 67 69 68 68 68 68 68 69 69 69 69 69 68 68 67 66 65 66 63 66 66 65 66 67 67 66 65 65 63 61 62 62 62 62 64 65 64 64 64 63 62 62
64 66 69 68 68 69 68 68 68 68 69 68 68 67 66 67 67 66 66 65 66 65 65 65 66 66 65 64 63 61 60 59 60 60 62 64 64 63 63 63 63 62 61
63 65 68 67 68 68 65 68 67 67 67 67 65 66 66 67 66 66 65 65 63 65 64 65 65 64 64 63 62 60 59 58 59 59 62 62 62 61 61 62 61 60 59
60 63 68 67 68 68 64 68 67 67 66 66 65 65 66 67 65 64 61 63 64 65 65 65 64 64 63 63 61 61 59 56 58 58 61 61 61 59 59 59 59 59 58
55 60 67 67 67 67 65 66 66 67 66 66 65 64 65 66 63 63 62 63 64 64 65 64 64 64 63 62 61 60 58 54 58 58 61 61 60 59 58 57 56 55 57
51 57 62 66 66 67 65 65 66 65 65 65 65 65 65 66 64 64 63 63 63 64 64 64 64 63 62 61 60 58 54 54 57 58 60 60 60 59 57 56 57 55 56
45 56 61 64 65 65 65 66 66 66 65 65 65 65 65 65 64 63 63 63 62 63 64 63 63 62 61 60 59 56 53 52 56 56 59 60 59 59 57 56 56 54 54
42 50 61 63 64 65 64 65 66 65 66 64 64 64 64 64 63 62 62 62 62 63 63 62 62 61 61 61 57 55 53 52 51 56 57 58 58 58 57 56 57 55 54
38 46 61 64 64 64 64 64 64 64 65 65 65 64 64 63 63 62 62 62 63 63 62 61 61 61 61 60 54 53 51 50 50 54 56 56 56 55 56 57 57 57 58
32 46 61 64 64 64 64 63 63 62 64 65 64 64 63 62 62 62 62 63 63 62 61 61 61 61 60 59 53 52 51 49 50 50 54 54 54 54 55 57 57 57 57
29 52 62 63 63 63 63 62 62 62 63 64 64 63 63 62 62 63 62 62 62 61 61 61 60 61 59 57 51 51 51 50 49 50 52 52 53 53 55 57 57 57 56
41 56 62 62 62 63 61 60 60 60 61 62 62 62 62 63 63 63 62 62 61 60 60 60 60 59 59 56 53 53 53 54 50 50 52 53 53 54 54 55 55 54 55
49 55 62 62 62 62 61 60 59 59 60 60 61 61 62 62 62 62 62 61 60 60 60 59 59 58 58 55 51 51 49 50 52 52 51 49 52 52 53 54 53 53 53
50 56 60 61 61 61 59 59 59 59 59 57 59 61 61 62 61 62 62 60 60 60 59 59 59 58 56 55 51 49 49 48 50 53 51 52 52 51 49 53 53 52 53
49 57 59 60 60 60 59 58 58 57 57 57 58 60 60 61 61 61 61 60 60 60 59 59 59 58 57 53 53 51 49 49 48 50 52 52 54 50 51 51 50 51 52
50 57 59 60 59 59 59 58 58 57 57 57 58 59 59 60 61 62 60 60 59 59 59 59 59 58 58 54 52 51 49 51 49 50 49 52 53 52 52 52 53 51 51
50 56 59 59 59 59 59 59 58 56 55 56 57 58 59 58 58 59 60 59 59 59 58 58 59 58 58 56 54 52 51 50 49 49 49 51 50 51 51 51 52 53 52

GFSSE_sfc_30mbdewp_087.txt.gz
Dewpoint
67 70 71 71 71 71 71 71 71 71 71 71 71 70 70 71 72 72 72 72 72 72 71 71 71 70 70 69 69 69 69 68 68 68 69 69 69 68 69 69 69 68 69
68 70 71 71 71 71 71 70 71 71 72 72 71 71 71 71 71 71 71 72 72 72 71 70 70 70 69 70 70 70 70 69 69 68 68 68 68 68 68 69 69 69 69
68 70 70 71 71 71 71 71 71 71 72 72 72 72 71 71 71 71 71 72 72 72 71 70 69 70 70 70 70 69 69 69 69 68 68 68 68 68 68 69 69 68 68
68 70 70 70 71 71 72 71 71 71 72 72 72 72 72 71 72 71 71 71 72 72 71 69 69 69 70 69 69 69 68 68 68 67 67 67 68 68 68 68 68 68 68
66 68 70 70 70 71 71 72 71 71 72 72 72 72 72 71 71 71 71 71 71 71 70 69 69 70 69 69 68 68 67 66 65 66 66 67 67 67 68 67 67 67 67
63 68 69 69 70 70 71 71 71 72 71 71 71 71 72 71 71 70 70 70 71 70 70 69 70 70 68 68 67 67 65 65 65 66 66 67 66 67 67 67 67 67 67
65 67 68 69 70 70 70 70 70 71 71 71 71 71 71 70 70 70 69 69 70 70 68 69 70 69 68 68 67 66 65 65 65 65 66 66 66 66 66 67 67 67 67
66 67 68 69 69 70 70 70 70 71 71 71 71 71 71 70 69 68 68 67 66 65 66 67 68 68 68 67 66 65 64 64 65 65 65 66 66 66 66 66 66 66 66
69 67 68 68 69 69 69 69 69 70 71 71 70 69 70 70 69 67 67 66 66 66 67 66 67 68 67 66 66 65 63 64 65 65 65 65 66 65 66 65 65 65 64
69 68 67 67 68 68 69 69 69 69 68 68 68 68 69 68 67 67 66 65 65 62 63 66 66 67 67 66 65 64 63 64 64 64 64 65 66 65 65 65 64 63 63
67 68 67 67 67 67 67 68 69 69 68 68 68 68 67 67 67 67 64 64 63 62 63 65 66 65 64 65 64 63 62 63 63 63 64 65 65 65 64 64 63 63 62
64 68 68 68 68 68 68 67 67 68 68 67 67 66 66 66 66 66 64 64 64 64 65 64 66 65 64 64 63 62 60 59 61 63 64 65 65 64 64 64 63 62 62
64 67 67 67 68 68 66 67 67 67 67 66 65 65 67 66 65 65 65 65 64 65 64 65 65 64 64 63 62 61 60 60 61 62 64 64 64 63 63 62 62 61 60
63 66 67 66 68 67 67 67 67 67 66 66 65 65 66 65 64 62 62 63 63 64 64 64 63 64 63 62 61 60 60 59 59 61 62 62 62 61 61 61 61 60 58
57 65 67 66 67 67 66 67 66 67 66 66 65 65 66 64 63 62 61 63 63 64 64 63 63 64 63 62 61 60 58 58 59 60 61 61 61 60 59 59 58 57 57
37 63 67 66 66 66 65 65 65 66 66 65 65 65 65 65 63 62 62 62 63 64 64 63 63 63 63 62 61 60 57 58 58 60 60 60 60 59 58 57 55 56 56
32 52 66 65 66 66 65 65 65 65 65 65 64 65 65 65 64 64 63 62 63 64 64 63 62 62 61 61 61 58 56 57 57 59 59 59 59 58 58 58 57 57 55
23 48 65 65 65 65 65 65 65 65 65 64 64 64 64 64 64 63 63 62 63 63 63 62 61 60 60 60 60 59 54 56 56 58 58 58 58 58 57 58 57 57 56
24 48 63 64 64 64 64 64 64 64 64 64 64 64 64 63 63 62 62 62 63 62 62 61 60 60 60 60 60 58 51 54 55 56 57 57 57 56 56 57 57 56 57
23 53 63 63 64 63 64 63 62 61 64 63 63 63 63 63 63 62 61 62 62 61 60 60 60 60 60 60 59 55 49 51 53 55 55 55 55 55 56 57 57 57 57
24 60 63 63 64 63 62 61 60 59 62 63 63 63 62 62 62 62 62 62 61 61 60 60 60 59 59 59 56 53 51 49 49 53 54 53 53 54 56 57 57 56 57
37 61 63 63 63 62 61 60 60 59 60 61 62 62 62 62 62 62 62 61 61 60 60 60 59 59 59 59 54 50 49 50 51 52 52 52 52 53 55 56 56 55 55
50 61 62 62 62 61 61 60 60 59 60 59 60 59 60 62 62 62 61 61 61 60 60 60 59 58 57 58 56 49 48 46 49 52 52 52 52 53 54 55 55 54 54
60 62 62 62 62 61 60 59 59 58 58 58 58 60 60 61 62 62 62 61 60 60 60 59 59 58 58 55 55 51 50 50 46 47 51 50 53 52 53 54 54 53 53
58 61 61 62 61 60 59 58 58 57 57 57 58 59 60 61 61 61 61 61 60 60 60 60 59 58 58 56 53 50 49 50 50 49 47 49 51 52 52 53 54 53 53
57 60 60 61 60 59 59 58 58 57 57 56 57 58 59 59 60 61 60 60 60 60 60 60 59 58 58 57 55 52 50 50 49 49 49 50 48 51 52 52 53 52 52

GFSSE_sfc_30mbdewp_090.txt.gz
Dewpoint
68 70 71 71 71 71 71 71 70 70 70 70 71 71 71 71 72 72 72 72 71 72 72 70 71 70 69 69 70 69 69 69 68 69 70 70 69 69 69 70 69 69 69
68 71 71 71 71 71 71 71 71 71 71 71 70 71 72 71 71 72 72 72 72 71 71 70 70 70 69 70 69 69 68 68 69 69 70 68 69 68 68 69 69 69 69
68 70 71 71 71 71 71 71 71 71 71 71 71 71 71 72 71 71 72 72 72 72 70 70 70 70 70 70 69 69 69 69 69 69 69 68 69 68 68 69 69 69 68
68 70 71 71 71 71 71 71 71 72 72 71 71 71 71 72 71 71 72 72 72 72 70 70 70 70 70 69 69 69 69 69 68 68 67 68 68 68 68 68 68 68 68
68 69 70 71 71 71 70 70 71 71 71 71 71 71 71 71 71 71 71 71 72 71 70 70 70 70 69 69 69 69 68 68 67 67 67 67 68 68 68 68 68 68 68
68 69 70 70 71 71 71 70 71 71 71 71 71 72 72 71 71 71 70 70 71 71 70 70 70 68 68 68 68 68 67 66 66 66 67 67 67 67 67 68 68 67 66
66 68 69 70 70 70 71 71 71 71 71 71 71 71 71 71 71 70 70 70 71 69 68 68 68 67 68 67 67 66 65 66 66 66 66 67 67 67 67 67 67 67 66
66 67 69 69 70 70 70 70 70 71 71 71 71 71 71 71 70 70 69 68 68 66 66 66 67 66 66 67 66 65 65 66 66 66 66 66 67 66 66 66 67 67 67
67 67 68 69 69 69 69 69 69 70 71 71 71 70 70 70 69 69 68 67 66 66 66 66 66 66 64 66 65 65 65 65 65 65 65 66 66 66 66 66 66 66 65
66 66 67 68 69 69 69 69 69 70 70 70 70 70 69 70 69 68 67 66 65 66 66 66 65 66 64 63 65 64 65 65 65 65 65 65 66 66 65 65 65 64 64
66 66 66 67 67 68 68 68 69 69 69 69 69 68 68 68 68 67 65 66 65 65 66 65 65 63 65 63 64 64 64 64 64 64 65 66 65 65 65 65 65 64 63
66 66 66 66 66 67 67 68 68 68 68 68 68 68 67 67 66 65 65 66 63 63 64 65 65 64 65 64 64 63 63 63 64 64 64 65 66 65 65 65 64 63 63
65 66 66 66 66 66 67 67 67 68 67 67 67 66 66 66 66 65 64 65 64 64 64 65 65 65 64 64 64 61 61 61 63 63 64 64 65 64 65 64 63 63 62
65 66 67 67 67 67 67 66 66 66 66 66 65 65 65 64 64 64 63 63 63 64 63 63 63 64 64 64 63 61 60 61 62 63 64 64 64 64 64 63 62 62 61
63 66 66 67 67 67 67 66 66 66 66 65 65 66 65 63 62 63 62 62 63 63 63 63 62 63 63 63 62 61 59 60 62 63 63 63 63 63 63 62 61 60 59
62 65 66 66 67 67 67 66 66 66 66 65 65 65 65 64 63 62 61 62 62 62 62 62 61 62 63 63 62 60 59 59 60 61 62 62 61 61 61 61 60 60 58
41 63 66 66 67 66 66 66 65 65 66 65 65 65 65 64 63 62 61 61 62 62 62 63 62 62 62 63 62 59 59 59 60 60 60 60 60 60 59 59 58 57 57
32 58 66 66 66 66 65 65 65 65 65 65 64 65 65 64 63 62 61 61 62 63 62 61 61 61 61 61 60 59 58 58 59 59 59 59 59 58 58 57 57 58 58
23 43 64 65 65 65 65 65 64 64 64 64 64 64 64 64 64 63 62 62 62 62 62 61 61 60 59 60 60 59 58 57 58 59 58 58 58 57 58 58 57 57 58
22 42 64 65 65 65 64 64 64 64 63 63 63 64 63 64 63 63 62 62 63 62 61 61 60 60 59 59 60 59 55 56 57 58 58 57 57 56 56 57 57 56 57
25 49 61 64 64 64 63 62 62 62 63 63 63 63 63 63 63 62 61 61 62 61 60 60 59 59 59 60 59 57 53 55 55 56 56 56 56 56 56 57 56 56 56
28 50 62 63 63 63 63 62 61 60 62 62 62 62 62 62 62 61 61 61 61 60 59 59 59 58 58 60 56 54 50 51 52 54 55 55 54 54 55 56 56 56 56
32 58 62 63 63 62 62 60 60 59 60 60 61 61 61 61 61 61 62 61 61 60 59 60 59 58 57 58 58 53 49 47 50 52 53 53 53 53 54 55 56 56 55
37 57 62 63 62 62 61 60 59 58 57 58 59 59 60 61 61 61 61 61 60 60 59 59 59 58 58 56 57 55 53 51 47 49 51 52 52 52 53 55 55 55 55
54 59 61 63 62 61 61 60 58 57 57 58 58 58 58 59 61 61 61 60 60 60 60 59 59 58 58 56 54 54 52 51 50 48 48 50 52 52 53 54 54 54 54
51 61 62 62 61 60 60 59 58 58 57 57 57 58 58 59 60 60 61 61 60 60 60 59 59 59 58 57 56 53 52 50 49 48 48 48 49 51 52 54 54 54 54

GFSSE_sfc_30mbdewp_093.txt.gz
Dewpoint
66 70 70 71 71 71 71 70 70 70 71 70 70 72 73 73 72 72 72 72 72 72 71 70 70 70 70 70 69 69 69 69 68 69 70 69 69 69 69 70 69 69 69
67 70 70 71 71 71 71 70 70 70 71 71 70 71 72 72 72 72 72 72 71 72 70 70 70 70 69 70 69 69 69 69 69 70 70 69 68 68 69 69 69 69 69
68 70 70 71 71 71 71 71 71 70 70 71 71 71 71 72 72 72 72 71 72 72 70 70 69 69 69 69 68 69 68 69 70 70 69 68 68 67 68 69 69 69 68
68 70 70 71 71 71 71 71 71 71 70 70 71 71 71 71 71 71 72 72 72 71 69 70 70 70 70 69 68 69 69 69 69 69 68 68 67 67 68 68 68 68 68
69 70 70 71 71 71 71 71 71 71 71 70 70 71 71 71 71 71 71 71 72 71 70 68 69 69 68 68 69 69 69 68 68 67 68 68 66 67 67 68 68 68 68
68 69 70 70 70 70 71 71 71 71 70 70 71 71 71 72 71 71 71 71 71 71 70 69 69 68 67 68 69 68 68 67 67 67 67 68 67 67 67 68 68 68 68
68 69 70 70 70 70 70 70 71 70 70 70 71 71 71 71 71 70 70 71 71 70 69 68 67 67 67 68 68 68 67 66 66 66 67 67 67 67 67 67 67 67 68
67 68 69 70 70 70 70 70 70 70 70 70 70 71 71 71 71 70 69 70 69 67 67 66 67 66 67 67 67 66 66 66 66 66 66 66 67 67 67 67 67 67 67
67 68 68 69 70 70 70 70 70 70 70 70 70 70 71 70 70 70 69 68 68 67 67 66 66 66 66 66 66 65 66 66 65 65 66 67 67 66 66 66 67 67 67
66 67 67 68 69 69 69 69 69 70 70 70 70 70 70 69 69 69 69 68 67 66 66 66 66 65 65 64 65 65 65 65 65 65 66 66 67 66 66 66 66 66 65
65 66 66 67 67 67 68 68 69 69 70 70 70 70 69 69 69 68 67 67 66 66 65 66 66 65 64 64 65 64 65 65 65 65 65 67 66 66 66 65 65 65 64
64 64 66 66 66 66 67 68 68 69 69 69 69 69 68 68 67 66 66 66 66 65 66 65 65 62 63 63 65 65 64 64 64 64 65 66 66 65 65 65 65 64 64
64 65 65 65 66 66 67 67 67 68 67 67 67 67 67 66 66 65 65 65 64 64 64 64 63 63 63 64 64 64 63 63 63 64 64 65 66 66 65 64 64 64 64
65 64 65 65 65 66 66 66 66 66 66 66 66 66 66 66 65 64 64 64 62 63 63 64 64 64 63 64 64 63 62 62 63 63 64 64 64 65 65 64 64 63 63
61 66 65 65 65 65 65 65 65 65 66 66 65 65 65 64 63 64 63 63 62 62 63 62 63 63 63 63 63 62 61 62 63 63 64 63 63 64 64 63 63 62 62
52 63 66 66 65 66 66 65 65 65 65 65 64 65 65 63 62 62 62 62 61 61 62 61 62 62 62 62 62 62 61 61 62 63 63 63 62 63 63 63 62 61 60
38 59 66 66 67 66 66 66 65 65 65 64 64 65 64 63 62 61 60 61 61 61 61 61 61 62 62 62 62 61 60 60 61 62 62 62 62 62 62 62 62 61 59
28 52 65 66 67 66 66 66 65 65 65 65 64 65 64 63 62 61 61 61 61 62 62 62 61 61 61 61 60 60 60 60 60 61 61 61 60 60 60 61 61 60 59
22 35 61 66 65 66 66 66 65 65 65 65 64 64 64 63 62 62 61 61 61 61 61 61 61 60 60 60 60 60 59 59 60 60 60 59 59 58 58 58 57 57 58
21 26 54 65 65 66 65 65 64 64 64 64 64 64 64 64 63 62 61 61 61 60 61 60 60 61 59 60 59 58 58 58 59 59 59 58 58 57 57 57 57 56 57
23 24 46 63 65 65 64 63 63 63 63 63 64 64 63 63 63 63 61 61 60 60 59 61 60 59 59 60 59 56 55 57 58 59 58 58 57 57 57 57 56 56 56
23 29 45 61 64 64 64 63 63 63 63 63 63 63 63 63 62 62 61 60 61 61 61 60 59 58 59 59 57 54 51 53 55 57 57 57 56 56 56 56 56 55 55
45 34 52 60 63 64 64 62 61 61 61 61 61 62 62 62 62 62 61 61 61 61 60 59 59 58 57 59 57 54 50 50 52 54 55 56 55 55 55 56 56 55 55
47 49 54 60 62 63 63 61 60 60 59 60 62 61 61 61 61 61 61 61 61 61 59 59 59 58 57 57 58 56 54 53 50 49 53 53 53 54 54 55 56 55 55
47 50 56 61 62 63 62 61 59 58 58 58 60 59 60 60 60 61 61 61 60 60 60 59 59 59 58 57 56 55 54 53 53 51 49 51 52 53 53 54 55 55 55
46 50 58 61 62 62 61 60 59 58 57 57 58 58 58 59 60 60 60 61 60 60 60 59 59 59 58 58 57 56 53 52 51 51 50 50 50 51 52 54 54 55 55

GFSSE_sfc_30mbdewp_096.txt.gz
Dewpoint
65 69 71 71 72 71 71 70 69 69 71 72 72 72 71 71 71 71 72 73 73 73 72 71 71 70 70 70 71 71 70 69 69 68 69 70 69 69 70 70 70 69 69
66 70 70 71 72 71 71 70 70 70 71 72 72 72 72 71 72 71 72 72 72 72 71 71 70 71 70 70 69 70 70 69 68 68 69 69 69 69 69 70 69 69 68
67 70 70 70 71 71 71 71 71 71 70 72 72 73 73 72 72 72 72 72 72 72 71 70 69 70 70 68 69 69 69 69 68 69 69 68 67 68 69 70 69 69 68
68 69 70 71 70 71 71 71 71 71 71 71 72 72 72 72 72 72 72 72 72 72 70 69 69 69 70 68 69 69 69 69 69 69 68 68 67 68 68 69 68 68 68
68 69 70 71 71 71 71 71 71 71 71 71 71 71 72 72 72 71 71 72 72 71 70 69 70 70 68 68 68 69 69 69 69 68 68 67 67 68 67 68 68 68 68
69 69 70 70 71 71 71 71 71 70 70 70 71 71 71 71 72 71 71 71 72 71 70 70 68 69 68 68 68 69 69 68 68 67 67 67 67 67 68 68 69 68 68
68 69 70 70 71 71 71 71 71 70 70 70 71 71 71 71 71 71 71 71 72 71 70 69 68 68 68 68 69 68 68 67 67 67 67 67 66 67 67 68 68 68 68
68 69 69 70 70 70 71 70 70 70 70 70 70 70 71 71 71 71 70 71 71 69 69 68 68 68 68 68 68 67 67 66 66 66 66 66 67 67 67 67 68 68 68
67 68 69 70 70 70 70 69 70 69 69 70 70 70 71 71 70 70 70 70 70 68 68 68 67 67 67 68 67 66 66 66 66 66 66 66 67 67 67 67 67 68 67
67 67 68 68 69 69 69 69 69 69 69 69 70 70 70 70 70 69 69 69 69 67 67 67 66 67 67 67 66 66 66 66 65 65 65 65 66 67 66 66 67 67 67
65 66 66 66 67 68 68 69 69 69 69 69 69 69 69 69 69 69 69 69 68 66 66 66 66 66 65 66 66 65 65 65 65 65 65 65 66 66 66 66 66 67 66
63 64 65 65 65 66 66 68 68 69 69 69 69 69 68 68 68 68 68 68 67 66 66 66 65 65 64 65 64 63 64 64 64 64 65 65 66 66 66 66 66 66 65
63 63 64 64 65 64 65 66 67 67 67 68 68 68 68 67 67 66 66 66 66 66 66 65 64 63 63 64 64 64 63 63 64 64 65 64 66 66 66 65 65 65 64
63 64 64 65 64 64 65 65 65 65 66 66 67 67 67 66 66 64 65 64 64 64 64 64 63 62 62 63 63 63 63 63 63 63 64 64 65 65 65 65 65 64 64
58 63 64 65 65 65 65 65 65 65 65 66 66 66 66 66 65 64 64 63 62 63 63 62 62 62 62 63 63 63 62 62 62 63 64 64 63 65 65 65 64 64 64
38 57 65 65 65 64 64 64 64 64 65 64 65 66 66 65 64 64 63 63 62 62 62 62 61 61 62 62 62 62 62 62 62 63 63 63 62 62 64 64 63 62 63
25 37 60 65 65 64 64 64 64 64 64 64 64 65 64 64 63 63 62 62 62 62 62 61 61 62 62 62 62 62 62 61 62 62 62 62 62 62 62 64 63 62 62
21 27 40 64 65 64 64 64 64 64 64 64 64 64 64 63 62 62 61 61 61 61 61 60 60 60 61 61 61 61 61 61 61 61 62 62 62 62 62 63 62 62 62
20 22 36 60 65 65 65 64 64 64 64 64 64 64 63 62 62 61 61 61 62 62 61 61 60 60 59 60 60 60 60 60 61 61 61 61 61 60 60 61 61 61 60
40 22 25 52 64 66 66 65 65 64 64 64 63 63 63 62 61 61 61 61 61 61 61 61 60 60 60 60 60 59 60 60 60 61 60 60 59 59 59 59 59 59 59
47 42 24 39 62 65 65 64 63 62 63 64 64 63 63 63 62 62 61 60 61 60 60 60 60 59 59 60 58 56 56 58 59 60 60 59 58 58 57 57 56 56 57
46 47 46 33 57 64 64 64 63 63 63 64 64 63 64 63 63 62 62 61 60 60 60 60 59 59 59 60 57 55 52 54 56 58 59 58 57 57 56 57 56 55 56
45 46 47 49 52 63 63 64 62 62 62 61 62 62 63 63 63 62 62 61 61 60 59 60 60 59 58 59 57 54 50 50 53 55 57 57 56 56 56 56 56 55 55
43 45 46 50 52 62 64 63 61 61 59 61 61 62 62 63 62 62 61 61 60 61 61 60 60 59 58 57 57 55 53 53 51 50 54 55 56 55 55 56 56 55 55
42 44 46 49 54 61 63 62 61 61 60 61 60 51 56 61 62 61 61 60 60 60 60 60 59 59 59 57 57 56 54 53 53 51 50 52 54 55 55 55 55 55 55
41 43 45 48 57 62 62 62 61 60 59 60 60 59 60 60 60 61 61 61 60 60 59 60 60 59 58 58 57 57 55 53 52 51 50 52 52 53 54 54 55 55 55

GFSSE_sfc_30mbdewp_099.txt.gz
Dewpoint
63 68 71 71 71 70 70 70 71 72 72 71 71 71 71 72 71 71 71 72 72 72 71 71 72 70 70 70 71 70 69 70 70 70 70 70 69 69 70 70 69 67 69
65 70 71 71 71 71 70 70 70 72 72 72 72 71 71 72 71 71 72 72 72 72 72 71 71 71 71 71 71 70 70 69 69 69 70 70 69 69 70 70 67 68 69
66 70 70 71 71 71 71 70 70 71 73 73 73 72 71 72 71 71 72 72 72 72 72 71 70 71 71 70 70 69 69 69 69 69 69 66 66 69 69 69 69 69 69
67 69 69 71 71 71 71 70 70 71 72 73 73 73 72 72 71 72 72 72 72 72 71 70 70 70 70 69 70 70 69 69 69 69 67 65 65 69 69 69 69 68 68
67 68 69 70 71 71 71 71 71 71 71 72 72 73 73 72 72 72 72 72 72 72 71 70 70 71 68 68 69 69 69 69 69 68 67 65 66 67 68 69 69 69 68
67 68 70 70 70 71 71 71 71 70 70 70 72 72 72 72 72 72 71 72 72 72 71 70 71 70 68 68 68 69 69 69 68 67 66 66 66 68 68 68 68 69 68
68 68 70 70 71 71 70 70 70 70 70 70 70 71 72 72 72 71 71 71 72 71 70 70 70 69 68 68 68 69 69 68 66 67 66 66 67 68 68 68 69 68 68
68 69 69 70 70 70 70 70 70 69 69 69 70 70 71 71 71 71 71 71 71 71 70 69 68 68 68 68 68 68 68 67 67 67 67 66 67 67 68 68 68 68 68
68 69 69 70 70 70 70 70 70 69 69 69 69 70 70 70 70 70 70 70 70 70 69 69 68 68 68 68 68 67 67 67 67 67 67 66 66 67 67 68 68 68 68
67 68 68 69 69 70 70 70 69 69 69 69 69 70 70 70 70 70 70 70 70 68 68 68 68 67 68 68 67 66 66 66 67 67 67 66 66 66 67 67 67 67 67
66 65 67 67 68 69 69 69 69 69 69 69 69 69 69 68 69 69 69 69 69 67 67 67 67 67 67 67 66 66 66 66 66 66 67 66 66 66 67 67 67 67 67
63 65 66 66 66 67 67 68 69 69 69 69 69 69 69 69 68 68 68 68 68 67 66 66 66 66 66 66 66 66 66 65 65 65 66 65 65 65 66 66 67 67 66
61 63 65 65 66 66 65 66 67 67 67 68 68 68 69 69 68 68 69 68 68 67 67 66 66 65 65 65 64 65 64 63 64 65 64 64 63 66 66 66 66 66 65
63 61 63 65 64 65 65 65 65 66 66 67 67 67 68 68 68 67 67 67 67 67 67 66 66 65 64 64 64 64 62 63 63 63 64 64 62 66 66 65 66 66 65
39 56 64 64 64 64 64 64 65 65 65 65 66 67 67 66 66 66 67 66 66 66 65 65 65 64 64 63 64 63 62 62 63 63 64 64 62 65 66 65 65 65 65
26 30 58 64 64 64 64 64 64 64 65 65 65 66 67 66 66 65 65 65 64 64 65 64 64 63 63 63 63 63 62 62 62 62 63 64 63 63 65 66 65 65 64
26 26 31 57 65 65 64 64 65 64 64 64 64 66 66 66 66 65 64 64 64 63 63 63 62 62 62 63 62 62 62 62 62 62 63 63 63 62 64 64 64 63 63
42 40 36 33 60 65 65 65 65 64 64 64 63 65 65 65 65 64 64 63 63 63 62 62 61 61 61 61 61 61 62 61 61 62 62 63 63 61 62 63 63 63 63
47 48 43 36 41 61 65 65 65 64 64 64 64 64 65 64 64 63 62 62 63 63 62 61 61 60 60 61 60 61 61 61 61 61 61 62 62 61 61 62 62 62 62
47 48 48 46 36 52 63 65 65 64 64 64 64 63 64 64 63 63 62 62 63 62 61 61 59 60 60 61 60 60 61 61 61 61 61 61 62 62 61 61 62 61 62
46 47 48 48 48 42 61 62 61 62 63 63 63 63 64 64 63 62 61 61 62 61 61 61 60 59 60 61 59 57 58 60 60 60 61 61 60 60 61 60 60 60 60
44 45 46 48 48 48 54 61 61 61 63 63 64 63 64 63 62 62 61 61 61 61 61 61 60 59 59 60 57 56 52 54 57 60 60 60 59 59 59 59 58 59 58
42 43 44 46 47 49 51 60 62 62 63 63 63 63 63 63 62 62 62 62 61 61 60 60 60 59 57 59 58 55 51 52 53 56 58 59 59 58 58 57 57 57 56
41 41 42 44 47 49 52 58 60 59 58 61 62 63 63 63 62 62 62 62 61 61 60 60 60 60 59 57 59 58 55 54 52 50 55 57 58 58 57 57 56 56 55
39 39 41 43 45 49 54 56 61 60 60 61 62 62 62 62 62 57 54 62 61 61 61 60 60 60 60 59 58 56 54 55 54 53 50 52 55 57 57 57 57 56 55
37 39 40 42 44 47 55 57 61 60 60 61 60 61 62 61 57 57 59 61 61 60 60 61 61 60 59 59 58 57 55 53 53 53 52 53 53 54 56 56 56 56 56

GFSSE_sfc_30mbdewp_102.txt.gz
Dewpoint
59 66 71 71 71 70 71 71 72 72 71 71 71 71 72 72 72 72 72 73 72 72 72 72 72 72 70 70 70 70 70 70 70 71 71 70 69 69 70 70 68 66 69
61 68 71 71 70 70 71 71 72 72 71 71 71 71 72 72 72 72 72 73 72 72 71 71 72 71 70 71 71 70 69 70 70 70 70 70 69 69 70 68 67 67 69
63 68 70 71 70 70 71 71 72 72 72 72 72 72 72 72 72 72 72 72 72 72 72 71 70 70 72 72 71 69 70 69 69 70 70 65 66 69 69 69 69 69 69
63 67 69 71 70 70 70 70 71 73 73 72 72 72 72 72 72 72 72 72 72 73 72 70 70 71 71 71 70 69 69 69 69 69 65 61 65 69 69 69 69 69 69
64 65 66 71 70 70 70 70 71 72 72 73 72 72 72 72 72 72 72 72 73 72 72 70 71 72 70 69 70 69 69 69 69 67 62 61 63 68 69 69 69 69 68
64 64 68 71 70 70 70 70 70 71 72 72 73 72 72 72 72 72 71 72 73 72 71 71 71 70 68 69 69 69 69 69 68 63 61 63 63 68 68 69 67 67 68
65 65 68 70 70 70 70 69 70 70 70 71 72 72 72 72 72 71 71 72 72 72 71 71 71 69 68 68 69 69 69 68 64 62 60 64 64 68 68 68 68 67 68
67 67 68 70 70 70 70 70 69 69 69 70 71 72 72 72 72 71 71 71 72 72 71 70 70 69 68 68 68 68 68 68 65 61 60 63 66 68 68 68 68 68 68
68 68 68 69 70 70 70 70 69 69 69 69 70 71 72 71 71 70 70 70 70 70 70 70 69 68 68 68 68 68 68 67 63 61 63 62 67 68 68 68 68 68 69
68 68 69 69 70 69 69 70 69 69 69 69 69 70 70 70 70 70 70 70 70 69 69 69 68 68 68 68 67 67 67 67 64 64 65 63 66 67 67 68 68 68 68
66 67 68 68 69 69 69 69 69 69 69 68 69 69 69 67 68 68 68 69 70 69 68 68 68 68 67 68 67 67 66 65 66 65 65 65 66 66 67 67 68 68 68
63 65 67 68 68 68 68 69 69 68 67 67 66 67 67 66 66 65 66 69 69 68 67 67 67 67 67 65 66 66 65 61 64 63 62 65 65 66 65 67 67 67 67
58 63 64 67 67 68 67 67 68 68 68 68 67 67 66 66 66 66 66 67 67 67 66 65 66 65 63 63 63 62 61 63 63 62 61 65 64 65 65 67 66 66 67
34 50 61 64 66 67 66 66 67 67 67 67 68 69 68 68 65 65 64 65 65 65 64 64 63 63 63 63 63 62 62 62 60 60 60 64 64 63 66 66 66 66 66
25 30 45 61 64 65 66 65 65 66 66 66 67 67 68 67 66 64 63 65 65 64 65 64 64 64 64 64 63 63 62 62 61 61 60 63 63 63 65 66 66 66 65
30 30 32 45 59 64 64 64 64 64 64 65 66 66 67 67 66 66 66 66 63 64 65 65 65 64 64 63 63 63 63 61 61 61 62 61 63 64 65 66 66 65 65
40 41 43 38 46 59 63 63 63 62 63 62 64 66 67 67 66 65 65 64 65 64 66 66 66 65 64 63 63 63 62 62 62 62 61 63 62 63 64 66 65 65 65
43 45 47 47 44 45 57 61 63 63 63 61 62 65 66 66 66 66 65 64 65 65 65 64 64 63 63 63 62 63 62 62 62 62 61 62 62 64 63 65 63 64 64
44 47 48 49 49 46 46 57 60 63 64 63 62 63 64 66 65 66 64 64 65 65 64 63 63 63 62 62 61 61 61 62 62 61 61 61 62 63 64 64 63 63 62
45 46 47 48 50 51 49 49 58 59 65 64 63 62 63 66 66 65 64 64 64 63 63 63 62 62 61 61 61 61 61 61 61 61 61 62 62 63 63 61 61 61 63
44 45 45 47 48 50 49 43 52 57 62 61 62 62 63 64 65 65 64 64 63 62 62 62 61 60 60 61 60 60 60 61 60 60 60 61 61 62 63 61 61 59 61
44 45 45 46 46 47 49 48 47 54 56 59 61 63 63 64 65 64 63 63 63 62 62 62 61 59 60 61 58 57 54 55 59 60 60 60 60 61 61 61 59 58 59
42 43 44 45 46 47 49 50 49 54 56 59 61 63 64 64 64 63 63 62 62 62 62 62 61 60 59 60 59 56 53 53 55 58 59 59 60 60 60 60 60 58 57
41 42 42 43 44 45 47 49 50 49 54 56 58 62 63 64 64 63 63 62 62 62 62 62 61 61 60 58 60 59 57 55 54 51 55 59 60 59 59 59 60 59 57
40 39 40 41 42 43 45 47 51 51 56 55 57 61 63 63 63 63 62 62 62 62 62 62 61 61 61 59 59 58 57 56 56 54 52 54 58 59 60 59 59 58 57
39 39 38 39 40 42 44 46 50 54 54 55 56 60 62 63 62 63 63 63 62 62 61 61 61 60 60 60 60 59 57 55 54 54 53 54 54 56 59 59 58 58 57

GFSSE_sfc_30mbdewp_105.txt.gz
Dewpoint
54 67 70 71 71 71 71 72 72 71 71 71 71 72 72 72 72 72 72 72 72 72 72 71 72 71 71 71 70 69 70 70 70 71 71 70 69 70 70 70 68 66 69
60 68 70 71 71 71 71 72 72 71 71 71 71 72 72 72 72 72 72 73 72 72 72 71 71 71 70 71 71 70 70 70 70 71 71 70 69 70 69 69 66 68 69
61 69 69 70 70 71 71 72 72 72 71 71 72 72 72 72 72 72 73 73 72 72 71 71 71 71 71 72 71 70 69 70 70 70 70 65 66 69 69 69 68 69 69
61 64 68 70 70 71 71 71 72 72 72 72 72 72 72 72 72 72 72 72 72 72 71 72 71 71 72 72 70 69 69 69 70 69 66 64 64 69 69 69 67 69 69
59 63 67 70 70 71 71 71 72 72 72 72 72 72 72 72 72 72 72 72 72 72 72 71 70 71 71 71 69 69 69 69 69 68 63 65 63 68 69 69 69 69 68
61 63 69 70 70 71 70 71 72 72 72 72 72 72 72 72 72 72 72 72 72 73 71 71 71 71 70 69 69 69 69 69 68 64 64 63 63 69 69 69 68 67 67
64 63 70 70 70 70 70 70 71 71 72 72 72 72 72 72 72 72 71 72 72 72 71 71 71 70 68 69 69 69 68 68 66 61 60 61 65 68 69 68 68 67 67
66 65 69 70 70 70 70 70 70 70 71 72 72 72 72 72 72 71 71 71 71 71 70 71 71 69 68 68 69 69 68 68 65 63 59 60 67 68 68 69 67 67 68
67 67 67 70 70 70 70 69 69 69 70 71 71 72 72 72 71 71 70 71 71 70 70 70 70 69 68 68 68 68 68 67 63 59 58 61 67 67 68 68 67 67 68
66 68 68 69 69 69 69 69 69 68 69 69 70 71 72 71 71 70 70 70 70 70 70 70 69 68 68 68 68 68 67 67 65 62 58 58 67 67 68 68 68 67 68
64 66 68 69 69 69 68 69 69 69 68 68 69 70 70 69 70 69 69 69 70 69 69 69 68 68 67 67 67 67 67 65 62 61 60 63 64 67 67 68 68 67 68
58 64 68 69 69 69 68 68 68 67 67 66 65 66 67 66 66 65 67 68 69 69 68 68 68 68 67 65 66 67 66 62 62 62 63 64 64 66 67 66 67 68 67
43 61 64 67 68 68 68 68 68 66 66 66 66 66 66 65 65 65 64 67 68 68 67 67 67 66 64 63 64 65 64 62 62 63 61 63 64 66 66 64 66 68 66
27 43 60 63 66 68 67 67 67 66 67 65 65 67 66 66 64 63 61 64 66 66 65 64 65 65 64 63 63 64 63 62 61 62 64 63 64 64 65 64 66 65 65
26 28 35 53 61 65 66 65 65 65 66 66 67 68 65 63 63 62 61 61 64 63 64 63 64 64 64 63 63 63 63 63 62 61 62 62 62 64 63 64 66 65 64
33 33 37 38 46 58 62 65 64 64 64 65 64 67 68 67 66 63 61 60 60 63 66 63 63 64 64 64 63 63 63 63 63 62 60 61 62 62 63 64 66 65 66
37 40 44 45 42 45 57 61 63 63 63 61 62 64 67 67 67 64 64 64 61 61 65 66 65 64 64 64 63 63 63 63 62 62 62 60 61 61 63 62 65 64 66
40 43 46 47 49 50 47 52 58 59 62 62 60 63 65 66 66 66 63 65 65 62 65 65 64 64 63 63 62 62 63 63 62 62 62 62 61 61 63 64 63 63 65
41 44 45 47 48 50 51 50 51 58 60 61 61 61 64 65 64 66 64 65 64 63 65 65 64 64 63 62 62 62 62 62 62 62 61 62 62 62 63 63 63 62 62
43 45 45 46 47 49 50 51 49 49 58 60 60 62 63 65 65 66 65 65 65 64 65 64 64 63 63 62 60 61 61 61 62 62 61 61 61 61 62 63 63 63 63
43 44 45 46 47 47 47 47 46 43 50 56 59 60 63 64 66 66 65 65 64 63 64 64 63 62 62 62 61 60 61 61 62 61 61 61 61 61 62 63 61 63 63
43 44 45 45 46 46 46 47 48 49 47 51 56 59 62 64 66 65 65 64 64 63 63 63 62 61 61 62 59 57 55 57 60 60 60 60 60 60 61 62 62 62 60
41 43 44 44 45 46 47 47 48 49 50 51 57 58 59 63 65 65 65 64 64 63 63 63 62 60 59 61 60 57 54 54 56 59 59 59 59 59 60 61 62 62 61
39 42 43 43 44 44 46 46 47 48 48 44 50 55 59 61 63 65 65 64 63 63 62 62 62 61 60 59 60 59 57 55 53 53 57 58 59 59 60 60 60 61 61
39 41 42 42 42 44 44 45 46 48 49 50 50 53 58 61 63 64 65 64 63 63 63 62 61 61 61 60 59 59 58 57 55 53 52 55 58 59 60 60 60 60 60
38 40 41 41 41 42 42 42 44 46 48 51 50 53 56 62 63 64 64 63 63 63 62 63 62 62 61 60 60 59 58 57 55 55 53 54 54 58 59 60 60 60 60

GFSSE_sfc_30mbdewp_108.txt.gz
Dewpoint
63 68 70 71 72 72 72 71 71 71 71 72 71 72 72 72 71 71 71 72 72 72 72 72 72 72 71 71 70 68 69 69 70 70 70 70 70 70 70 70 69 68 70
66 67 70 70 71 72 72 72 70 71 71 72 72 72 72 72 72 72 72 72 72 72 72 72 72 71 71 71 70 69 69 69 70 70 70 70 70 70 69 68 67 69 69
67 68 69 70 70 71 72 72 72 71 71 72 72 72 72 72 72 72 72 72 72 72 72 71 71 71 71 72 71 69 69 70 70 70 70 68 69 70 69 68 68 69 69
63 70 67 70 70 71 71 72 72 72 72 72 72 72 72 72 72 72 72 72 72 72 72 71 71 71 71 72 70 69 69 70 70 69 69 66 66 70 69 69 69 69 69
56 68 67 69 70 71 71 72 72 72 72 72 72 72 72 72 71 72 72 72 72 71 71 71 71 71 71 71 70 69 69 69 69 69 66 67 67 69 69 69 69 69 68
61 62 69 69 70 71 71 71 72 72 72 72 72 72 73 72 72 72 72 72 72 72 71 71 71 71 71 70 69 69 69 68 68 68 66 67 67 69 69 68 68 68 68
65 70 69 69 70 70 71 71 72 72 72 71 71 72 72 72 72 72 71 71 72 72 71 71 71 71 70 69 69 69 68 68 68 66 66 67 68 68 69 69 68 67 67
66 70 70 70 70 70 70 70 71 72 72 71 71 72 72 72 72 71 71 71 71 72 71 70 71 70 68 69 69 69 68 68 67 66 65 66 66 67 69 68 67 67 67
67 69 71 70 70 70 70 70 70 71 71 72 71 72 72 72 71 71 70 71 71 71 70 70 70 69 68 68 68 68 68 67 67 65 65 66 66 67 68 69 68 67 67
66 67 70 71 70 70 70 69 69 69 70 71 71 71 71 71 71 71 70 70 70 71 70 70 70 69 68 68 68 68 68 67 67 66 65 64 64 68 69 69 68 68 68
63 67 68 70 70 70 69 69 69 69 69 70 70 71 71 71 71 70 70 69 70 70 70 69 69 69 68 67 67 67 67 67 66 64 64 64 64 67 68 68 67 66 67
44 68 68 69 70 69 69 69 69 68 68 68 68 70 71 70 70 69 69 69 69 69 69 69 68 68 67 67 67 67 67 66 65 63 63 64 65 65 67 65 65 65 65
34 63 68 69 69 69 69 70 69 68 67 68 67 68 69 68 68 68 68 68 69 69 69 68 68 68 68 67 66 66 66 66 65 63 62 63 63 65 67 66 65 65 64
28 38 67 69 69 69 69 68 69 68 68 68 68 68 68 68 67 67 66 68 69 68 68 66 67 67 67 66 65 65 65 65 65 63 64 64 63 64 65 65 65 65 65
28 35 41 52 66 68 67 68 68 68 68 67 68 68 67 67 67 66 65 66 67 67 67 66 66 66 66 65 65 64 64 64 64 63 64 63 63 63 65 64 65 66 66
35 37 42 47 47 49 66 65 66 66 66 68 67 67 68 67 66 65 65 63 66 66 66 66 65 65 65 64 64 64 64 64 64 63 63 62 61 61 62 65 65 66 66
37 42 46 46 51 53 53 56 64 65 66 65 66 67 67 68 68 66 65 63 62 65 63 65 65 66 65 64 64 64 64 64 64 63 63 62 61 60 60 63 64 64 64
39 44 46 48 50 53 54 55 54 55 64 65 64 65 68 67 67 67 66 64 65 63 65 66 65 65 64 64 64 64 64 64 64 63 63 62 62 62 62 62 62 64 65
41 45 46 47 49 51 53 54 55 54 53 63 64 64 67 67 67 67 66 65 65 64 65 65 65 64 64 64 63 62 63 63 63 63 63 62 62 62 63 63 63 63 64
44 45 46 48 49 50 51 52 54 54 53 53 61 64 64 66 66 66 66 65 65 64 64 66 64 65 64 64 62 62 62 63 62 62 62 62 62 62 62 64 62 62 61
44 46 46 46 48 49 49 49 48 49 51 50 54 60 63 65 66 65 65 65 65 64 63 65 64 63 63 63 61 61 61 62 62 62 62 62 61 61 62 63 63 63 62
43 44 44 45 46 46 47 49 49 50 50 52 53 54 60 61 64 65 65 65 65 64 63 64 63 62 62 63 59 58 55 57 59 61 62 61 61 61 61 61 62 63 62
42 43 43 44 44 45 46 47 48 49 49 50 51 50 52 60 62 64 65 66 64 64 62 64 63 62 60 62 60 57 54 52 56 59 60 60 60 60 60 60 61 62 62
41 42 43 43 43 43 45 45 45 46 46 48 50 52 51 60 61 63 65 65 64 63 63 63 63 61 60 60 61 59 57 57 54 53 58 60 60 60 60 60 61 61 61
40 41 42 42 42 42 43 43 42 43 45 47 49 50 53 53 60 62 64 65 64 63 61 62 63 61 60 59 59 59 58 58 57 54 52 55 59 59 60 60 60 60 61
39 40 41 40 40 41 41 41 40 41 42 44 46 48 50 53 56 60 63 64 64 63 63 62 58 61 61 60 60 59 58 57 57 56 54 54 54 57 59 60 59 59 60

GFSSE_sfc_30mbdewp_111.txt.gz
Dewpoint
67 71 72 72 72 72 72 72 71 71 71 71 71 71 71 70 70 71 72 73 73 73 72 72 72 72 72 71 69 69 69 69 70 70 70 70 70 70 70 70 69 69 69
68 70 71 71 72 72 71 71 71 71 72 71 71 71 71 71 71 71 71 72 72 73 72 72 71 71 71 71 69 68 69 69 70 70 70 70 70 70 69 69 69 70 70
67 70 70 71 72 72 72 71 71 71 72 72 72 72 72 71 71 71 71 72 72 72 72 72 71 71 71 71 70 68 68 69 70 70 70 69 70 70 69 69 70 70 70
67 69 70 70 71 72 72 72 71 72 72 72 72 72 72 71 71 71 71 71 72 73 72 71 71 71 71 71 70 69 69 69 69 69 69 68 68 69 69 69 69 69 69
69 68 69 70 70 71 71 72 72 71 72 72 72 72 72 71 71 71 71 71 71 73 72 71 71 71 71 71 70 69 69 69 69 69 67 67 67 68 68 68 69 69 69
67 68 69 69 70 71 71 71 72 72 71 71 72 72 72 71 71 71 71 71 71 72 71 72 72 71 71 71 70 69 68 68 68 68 66 65 64 68 68 67 68 68 69
68 69 69 69 70 70 70 71 71 72 72 71 72 72 72 72 71 71 71 71 71 72 72 71 71 71 71 70 70 69 68 68 68 67 66 62 56 57 66 67 68 68 69
69 70 69 70 69 69 70 71 71 72 71 71 71 72 72 72 71 71 70 71 71 72 71 71 71 71 70 69 69 69 68 68 67 66 66 65 61 63 67 66 68 68 69
70 69 69 70 70 70 69 70 71 71 71 71 71 71 72 71 71 71 70 70 71 71 71 70 70 70 68 68 68 68 68 68 67 66 66 65 65 65 66 68 68 68 67
68 70 69 69 69 69 69 69 70 71 71 71 71 71 71 71 71 71 70 70 70 70 70 70 70 70 68 67 67 68 68 67 67 66 65 66 65 67 66 66 67 67 66
67 69 71 70 70 69 69 69 69 70 70 71 71 71 71 71 71 71 70 70 70 70 70 70 69 69 68 67 67 67 67 67 67 66 65 65 65 63 66 67 68 67 67
64 66 68 70 70 70 69 69 68 69 69 70 71 71 71 71 71 71 70 69 69 69 70 69 69 69 68 67 67 67 67 67 66 65 65 65 64 65 67 67 67 66 66
60 67 67 69 70 69 69 69 68 68 68 68 69 70 70 70 70 70 70 69 69 69 69 69 68 68 68 67 67 66 66 66 66 65 64 64 64 64 64 65 66 66 66
32 64 68 69 68 68 67 70 69 68 67 67 67 68 69 68 68 69 68 68 68 69 68 68 68 68 67 67 66 66 66 66 65 65 64 64 64 64 63 65 66 65 65
37 43 51 64 65 66 67 68 69 69 68 67 67 67 68 67 67 67 67 68 68 68 68 67 67 67 67 67 66 66 66 65 65 65 64 63 64 64 64 64 65 66 66
42 46 47 51 52 52 56 63 66 67 68 68 68 68 68 68 67 67 67 67 68 68 68 67 66 66 66 66 65 65 65 65 64 64 63 63 63 62 62 64 65 66 66
46 46 48 50 51 53 54 55 55 61 66 66 67 67 68 68 67 66 66 65 67 67 67 67 66 66 66 65 65 64 64 64 64 64 63 62 62 61 60 63 65 66 66
46 46 48 50 51 51 52 54 54 55 56 57 65 66 66 67 67 67 66 65 64 66 65 66 65 65 64 64 64 64 64 64 64 64 63 62 61 60 60 60 65 65 65
46 47 47 49 49 50 51 51 52 53 54 54 55 62 65 66 67 67 66 66 65 65 65 64 64 64 64 64 63 63 64 63 64 64 63 63 62 62 62 62 61 64 64
46 46 46 47 47 48 49 50 50 51 52 53 53 53 61 66 67 66 65 65 66 65 64 65 64 64 64 64 63 63 62 63 63 63 62 63 62 62 62 62 62 62 63
44 44 45 45 46 46 47 47 47 48 49 50 50 51 53 61 65 66 65 65 65 65 63 64 64 64 63 63 61 61 61 62 62 62 62 62 62 61 61 62 62 62 62
43 44 44 44 44 45 46 46 47 47 49 49 51 51 51 52 54 65 66 65 66 65 64 63 64 63 62 63 60 59 57 58 60 62 62 62 61 61 61 61 62 62 62
42 43 43 43 42 42 43 44 44 44 45 46 47 48 49 51 53 55 63 65 65 65 63 64 63 62 61 62 60 57 54 52 55 58 61 61 61 60 60 60 61 62 62
41 42 41 41 41 41 42 42 41 41 41 43 44 46 47 48 50 53 56 62 64 65 63 62 59 56 53 57 61 59 56 55 52 53 58 60 60 59 59 59 60 61 62
40 40 40 40 40 40 40 40 39 39 40 41 42 43 45 47 49 51 55 59 60 64 63 59 56 57 59 59 54 58 58 57 55 53 52 56 59 59 59 59 59 60 61
38 39 38 38 38 39 38 38 38 38 38 39 40 41 43 45 47 50 53 58 60 60 62 61 59 59 60 59 58 58 56 56 56 56 52 53 55 58 59 59 58 59 60

GFSSE_sfc_30mbdewp_114.txt.gz
Dewpoint
67 71 72 71 72 72 72 71 71 71 70 70 71 70 70 71 71 71 72 72 73 73 73 72 73 72 71 70 69 69 68 69 69 69 69 70 70 70 70 70 69 70 70
68 71 72 72 72 72 72 71 71 71 71 71 71 70 70 70 71 72 72 72 73 73 72 72 72 71 71 70 68 69 69 69 69 69 69 69 70 69 70 70 69 70 71
68 70 71 72 72 72 72 72 71 71 71 71 71 70 70 70 71 71 72 72 73 73 72 71 71 71 71 71 68 68 69 69 69 69 69 69 70 70 69 70 70 70 70
68 70 71 71 72 71 71 71 71 72 72 71 71 71 70 70 70 71 71 72 72 73 72 71 70 71 71 71 69 68 69 69 69 69 68 68 68 69 69 69 70 69 70
68 69 69 71 71 72 71 70 71 72 72 71 71 71 71 70 71 70 70 71 72 72 71 70 70 72 71 70 69 68 68 68 69 69 67 67 68 69 69 69 69 70 69
68 68 69 70 70 71 71 71 70 71 71 71 71 72 71 71 71 71 70 70 71 73 72 71 71 71 71 70 69 68 68 68 68 67 67 67 68 69 69 68 68 69 69
68 67 69 69 70 70 71 71 71 71 71 71 71 72 71 71 71 71 70 70 71 72 72 73 72 71 70 70 69 68 68 68 68 66 65 61 61 68 67 68 68 68 69
68 68 69 69 70 70 70 70 71 71 71 71 71 71 71 71 71 70 70 70 70 71 71 71 70 70 70 69 69 68 68 67 67 66 66 60 59 64 67 68 68 68 68
69 68 69 69 70 70 69 70 70 71 71 71 71 71 71 71 70 70 70 70 70 70 71 71 70 70 70 69 68 68 68 67 66 66 65 63 61 64 66 68 68 67 68
69 68 69 69 69 69 69 69 70 70 71 71 70 71 71 70 70 70 69 70 70 70 71 70 70 70 69 68 67 68 68 67 67 66 66 65 63 65 66 68 68 67 68
69 69 68 68 69 68 69 69 70 70 70 70 70 70 70 71 70 70 70 69 69 70 70 70 70 69 69 67 67 67 67 67 67 66 65 65 65 66 67 67 67 67 67
66 68 69 69 69 68 69 69 69 70 70 70 71 70 70 70 70 70 70 69 69 69 69 69 69 69 69 68 67 67 67 66 66 66 65 65 66 67 64 67 67 66 66
40 66 69 70 69 69 69 68 68 68 69 69 70 69 69 69 70 70 70 69 69 69 69 69 69 68 68 67 66 66 66 66 66 66 65 65 65 66 65 68 67 66 64
43 64 67 69 69 69 69 68 68 67 67 68 68 69 69 69 69 69 69 69 68 68 68 69 68 68 67 67 66 66 66 66 66 65 64 64 65 66 66 65 66 66 65
54 62 66 65 62 65 67 68 69 68 67 67 67 68 69 69 68 69 69 69 68 68 68 68 68 67 67 67 67 66 66 66 65 65 64 64 64 64 64 65 65 65 66
47 50 51 53 54 55 56 56 60 66 68 67 67 67 68 67 67 67 68 68 68 68 68 68 67 67 67 66 66 66 66 66 65 65 64 64 63 64 64 64 65 65 66
48 49 51 51 51 51 52 53 55 56 58 61 67 68 67 68 67 66 66 67 68 68 68 67 67 66 66 66 65 65 65 65 65 64 63 63 63 63 63 63 64 66 66
48 48 48 48 48 49 50 51 52 53 55 56 57 60 65 68 68 67 67 66 66 67 67 67 66 66 65 65 65 65 64 64 64 64 63 62 62 61 61 60 62 65 66
46 47 46 46 46 47 48 49 50 50 51 52 53 53 58 63 66 67 67 66 66 66 66 66 66 65 64 64 65 64 64 63 64 64 63 62 61 60 60 59 60 64 65
45 45 45 45 45 46 46 47 47 49 49 51 51 51 52 53 56 64 65 65 66 65 65 65 65 65 64 64 64 63 63 63 63 63 63 63 62 61 61 61 61 62 64
44 43 43 43 44 43 44 44 44 45 45 47 48 49 51 53 54 54 61 66 65 65 64 64 64 63 63 64 62 61 61 63 63 63 63 62 62 62 62 61 61 61 61
42 42 41 41 41 41 42 43 44 43 45 45 47 47 48 49 50 51 53 58 64 65 64 63 63 61 63 63 61 60 58 59 61 62 62 62 62 62 61 61 62 61 61
40 40 40 40 40 41 41 41 40 41 42 42 42 43 45 46 47 48 50 53 54 62 64 64 63 61 58 62 60 58 55 54 57 58 61 61 61 61 61 60 61 61 61
39 39 39 39 39 39 39 39 39 38 38 39 40 42 42 44 45 47 50 51 53 56 60 63 63 62 59 56 55 55 56 56 53 52 57 60 61 60 60 59 59 60 60
38 38 37 36 36 37 38 38 38 37 38 38 39 40 41 43 45 46 48 49 51 52 55 62 62 59 57 54 52 54 54 57 56 53 51 56 59 59 60 59 59 59 59
36 36 35 34 34 35 36 36 36 36 36 37 38 39 41 43 44 46 47 49 51 53 56 60 62 60 56 55 54 54 55 56 54 54 51 53 54 57 59 59 58 58 59

GFSSE_sfc_30mbdewp_117.txt.gz
Dewpoint
67 71 71 72 72 72 71 71 70 70 70 70 70 72 72 72 72 72 72 73 73 72 73 72 72 71 70 68 68 68 68 68 68 68 70 71 70 70 70 70 70 69 69
67 71 71 72 72 72 71 71 71 70 71 71 71 71 71 72 72 72 73 73 73 73 72 72 71 71 71 69 68 68 68 68 68 69 70 70 70 70 69 70 69 69 69
67 71 71 71 72 72 72 71 71 71 71 71 71 71 71 71 71 71 72 73 73 73 72 71 71 71 71 69 68 68 69 69 69 69 70 70 70 69 69 69 70 70 69
68 70 71 71 71 71 71 71 71 72 71 71 71 71 71 71 71 72 72 72 73 73 72 71 71 71 71 69 68 68 69 69 69 69 68 69 69 69 69 69 70 70 70
68 70 71 71 71 71 71 71 71 72 71 71 71 70 70 71 71 71 72 72 73 73 71 70 70 72 71 70 68 67 68 69 69 68 67 68 69 68 68 69 69 70 70
67 69 70 71 71 70 70 70 71 71 71 71 71 70 70 70 71 71 71 72 72 72 71 71 72 71 70 69 68 68 68 68 68 68 66 67 68 68 68 67 69 69 69
67 68 69 70 71 71 71 70 70 71 70 70 71 71 70 70 70 70 70 71 72 72 72 71 71 71 70 69 69 68 67 68 67 66 66 66 67 68 68 67 68 69 68
67 68 69 70 70 71 71 71 70 70 70 70 70 71 70 70 70 70 69 70 71 72 72 71 71 70 70 70 69 68 67 67 67 65 65 63 62 67 67 67 67 68 68
68 68 68 69 70 70 70 70 70 70 70 70 70 71 71 70 70 70 70 70 70 71 71 71 70 70 70 69 69 68 67 67 67 66 66 62 62 64 68 67 67 68 68
68 68 68 68 69 69 69 69 70 70 70 70 70 70 70 70 69 69 69 69 70 70 70 70 70 70 70 69 68 68 67 67 66 65 65 64 64 63 64 68 67 68 69
68 67 68 68 68 68 68 69 69 70 70 70 70 70 70 70 70 69 69 69 69 69 70 70 70 69 69 68 67 67 67 67 66 65 65 65 65 65 66 67 68 68 68
66 67 67 68 68 68 68 68 69 70 70 70 70 70 70 69 70 70 69 69 69 69 69 70 70 69 69 67 67 67 67 66 66 66 65 65 65 66 66 68 68 68 68
64 67 68 68 68 68 68 68 68 68 69 69 69 69 69 68 68 69 69 69 69 69 68 69 69 69 68 68 66 66 66 66 66 66 65 65 64 67 66 68 67 68 68
56 60 68 69 69 68 69 68 67 68 68 68 68 68 68 68 68 68 68 68 68 68 68 68 68 68 68 67 67 66 66 65 65 65 65 64 64 66 67 66 66 67 67
48 66 66 63 64 67 67 67 68 67 67 67 67 68 68 67 67 67 67 67 68 68 68 67 68 68 67 67 67 66 65 65 65 65 65 64 64 65 66 66 66 64 65
54 54 53 53 53 54 55 56 58 61 64 67 67 67 68 68 68 68 67 67 67 68 68 67 67 67 67 67 66 66 66 65 65 65 65 64 63 64 65 66 66 65 66
50 50 50 50 50 50 50 52 53 55 57 58 59 62 65 67 67 67 67 68 68 68 67 67 67 67 66 66 66 66 66 65 65 65 64 64 64 63 63 64 64 65 65
48 47 47 48 48 48 48 49 50 51 52 52 55 56 59 61 62 66 66 66 67 68 67 67 66 66 66 65 65 65 65 65 65 65 64 64 63 63 63 63 64 64 64
46 45 45 46 46 46 46 47 48 48 48 51 51 52 53 55 56 57 60 66 67 66 66 66 66 66 65 65 64 64 65 64 64 64 64 63 62 62 62 62 62 61 63
44 44 44 43 43 44 45 45 46 44 45 47 47 49 50 52 53 53 55 60 65 65 64 64 64 65 64 64 64 64 64 64 64 64 63 63 62 61 61 60 60 59 61
41 41 41 41 41 42 42 42 43 41 44 43 46 45 46 48 49 49 51 52 55 62 64 63 63 62 62 64 62 61 61 62 63 63 63 63 62 61 61 60 60 59 60
40 40 40 40 40 40 41 41 41 40 43 42 42 42 44 44 45 47 48 49 52 52 55 64 63 62 62 63 59 59 57 58 60 62 63 62 62 62 61 61 61 60 60
38 38 38 38 38 38 39 39 39 39 39 40 39 40 42 43 44 45 46 49 50 51 51 54 62 63 61 61 62 58 54 55 56 59 61 61 62 62 61 61 61 60 60
35 35 35 35 36 37 37 37 38 38 37 38 38 40 41 42 44 45 46 47 48 50 52 53 57 62 62 59 57 58 55 55 52 52 57 59 60 61 61 61 60 61 61
36 35 34 33 34 35 35 36 36 36 37 38 38 38 40 42 43 44 46 46 47 48 50 52 53 56 62 61 57 55 55 54 54 50 49 53 59 61 60 60 60 60 60
33 33 34 33 33 34 34 35 35 35 36 36 37 37 38 39 41 43 45 46 47 48 50 51 52 56 59 60 58 56 54 53 54 52 50 49 51 55 60 60 59 59 59

GFSSE_sfc_30mbdewp_123.txt.gz
Dewpoint
64 68 71 72 71 70 70 70 71 72 72 71 70 71 71 72 71 72 72 73 72 71 71 71 70 70 70 69 69 69 69 68 70 71 71 71 70 70 70 70 69 65 68
66 69 71 72 71 70 70 70 71 72 73 71 71 71 72 72 71 72 73 73 73 72 71 71 70 69 68 68 68 68 68 68 69 71 71 70 70 70 70 69 67 67 68
69 70 70 71 71 70 70 70 70 71 73 73 72 71 71 72 71 72 72 73 73 72 72 71 71 70 68 67 67 68 68 68 69 71 71 66 67 70 69 69 69 68 69
68 69 70 71 71 71 70 70 70 71 72 73 72 72 72 71 71 72 72 72 73 72 72 71 71 71 69 67 67 68 68 68 69 70 67 66 67 70 69 69 68 68 68
68 69 69 71 71 71 70 70 70 70 71 72 72 73 72 72 72 72 72 72 73 73 72 71 71 72 69 67 67 68 68 68 68 68 67 67 67 69 69 69 68 69 68
68 69 70 71 71 71 70 70 70 70 70 70 71 72 72 73 72 72 72 72 73 73 72 71 71 72 69 68 67 67 68 68 68 66 67 67 67 69 69 69 68 68 68
67 69 70 70 71 71 71 70 70 70 70 70 70 71 72 72 72 72 72 72 73 73 72 71 70 71 69 68 67 67 68 68 66 66 66 67 67 68 68 68 69 68 68
68 68 69 70 70 71 71 70 70 70 70 70 70 70 71 71 71 71 71 72 72 72 72 72 72 71 69 68 67 67 67 67 66 66 66 66 67 68 68 68 68 69 68
69 68 69 70 70 70 70 70 70 70 70 70 70 70 70 71 71 71 71 71 72 72 71 71 71 70 69 68 67 67 67 67 65 66 65 66 67 68 68 68 67 68 68
68 69 68 69 70 70 70 69 69 69 69 69 70 70 70 70 70 70 70 71 71 71 70 70 70 69 69 69 68 67 67 67 65 65 65 64 64 66 66 68 67 67 67
64 68 69 68 69 70 70 70 70 69 69 69 69 69 70 69 69 69 69 69 70 70 70 70 70 70 69 69 68 68 67 65 66 64 65 66 65 65 65 68 67 67 67
35 48 67 68 69 69 68 69 69 70 70 70 69 70 70 70 69 68 69 69 69 69 70 70 70 70 69 68 67 68 66 65 66 65 65 65 66 66 65 68 68 67 67
33 36 52 68 68 69 68 69 68 68 69 70 70 69 69 69 69 69 68 68 68 68 68 69 69 69 69 68 67 66 66 66 65 65 64 65 65 67 66 66 67 68 68
32 33 42 65 68 68 68 69 69 68 68 68 68 69 69 69 69 68 67 67 67 68 67 68 67 69 69 69 68 67 66 65 64 64 65 66 65 66 67 68 68 68 68
33 38 49 62 68 68 69 69 69 68 67 67 68 68 69 68 68 68 68 68 67 66 67 67 67 67 68 68 69 68 67 66 65 66 66 66 65 65 66 67 67 68 68
51 53 55 56 57 67 68 68 67 66 66 66 66 66 68 67 67 67 67 67 68 68 68 67 66 66 66 67 67 68 67 66 66 66 66 66 65 64 65 66 66 67 67
47 48 49 50 51 53 57 58 60 60 60 60 60 60 60 61 61 64 66 66 67 68 67 67 67 67 66 66 66 66 67 67 66 66 66 66 65 64 64 64 65 66 66
43 43 43 44 45 48 51 53 54 55 55 56 55 55 55 56 57 59 59 61 61 63 67 66 66 65 65 65 65 65 66 66 66 66 66 66 65 64 64 63 64 65 65
40 40 40 41 41 44 47 47 49 49 49 51 49 50 52 50 51 52 53 56 56 59 61 65 66 65 64 64 65 65 66 66 66 66 66 66 66 65 64 64 63 63 63
36 37 37 38 39 40 42 44 45 45 45 45 45 46 47 48 48 49 51 51 52 53 56 62 63 65 65 65 65 64 65 65 66 65 65 65 65 65 65 65 65 64 62
35 35 35 36 37 38 39 39 41 42 43 42 42 44 44 46 47 48 47 49 50 51 52 53 55 60 63 64 63 62 60 62 63 63 65 65 65 65 65 65 64 65 63
35 36 35 35 35 36 37 39 39 40 42 42 41 42 42 44 46 46 47 48 49 49 50 51 52 54 62 62 60 59 56 58 59 61 63 64 63 64 64 64 64 64 63
34 34 35 35 35 35 36 37 37 38 38 39 39 40 41 42 43 45 46 46 47 48 48 48 51 52 54 61 61 58 54 53 54 56 58 60 62 64 62 62 63 63 63
34 35 34 34 35 36 36 35 36 35 35 37 38 38 39 41 42 42 44 45 46 47 48 48 49 50 52 53 58 61 60 58 55 55 58 60 61 61 61 62 62 63 63
34 34 34 34 34 35 35 36 35 34 35 35 36 37 37 39 39 40 41 42 43 44 46 47 49 50 50 50 52 57 60 60 59 56 54 57 59 60 60 61 62 62 62
35 33 33 33 33 34 34 35 35 34 34 34 34 34 35 36 37 37 38 39 40 41 42 44 45 47 49 51 51 51 54 56 56 56 54 54 56 58 60 60 60 61 62

GFSSE_sfc_30mbdewp_129.txt.gz
Dewpoint
58 64 70 70 70 71 71 72 71 70 70 71 72 72 73 73 72 72 73 72 73 72 71 71 71 71 71 70 71 70 70 71 71 72 71 71 70 70 69 69 67 63 69
60 64 70 70 70 71 71 72 71 70 70 71 72 72 72 72 72 72 73 72 73 72 71 71 71 71 71 72 70 69 69 70 71 71 71 71 70 70 69 69 67 64 69
62 66 68 70 70 70 71 71 71 71 71 71 72 72 72 72 72 72 72 72 73 73 72 71 71 70 70 69 68 68 68 70 70 70 70 65 66 69 69 69 67 68 69
63 67 66 70 70 70 70 71 72 72 71 71 71 72 72 72 71 72 72 72 72 73 72 70 70 69 69 68 67 67 68 69 70 69 67 66 65 70 69 69 68 68 68
62 63 69 70 70 70 70 70 72 72 72 71 71 72 72 72 71 72 72 72 72 73 72 70 70 70 68 67 67 67 68 68 69 68 66 66 65 68 69 69 69 68 68
61 64 70 71 70 69 70 70 71 72 72 71 71 72 72 72 71 71 72 72 73 73 73 72 72 72 68 67 67 67 67 68 68 63 59 62 66 69 69 69 67 67 68
61 65 70 71 71 70 70 70 70 70 71 71 72 72 72 72 72 71 71 72 73 73 73 73 72 72 70 67 67 67 67 67 64 61 57 61 66 68 69 68 68 68 68
61 65 68 70 71 71 71 70 70 69 70 70 71 72 72 72 72 72 71 71 72 73 73 72 72 72 71 69 67 67 67 67 62 61 57 59 68 69 69 69 69 68 68
57 64 68 69 70 70 71 70 70 70 69 69 70 71 72 72 72 72 71 71 71 72 72 72 72 71 71 70 68 67 66 66 64 59 57 59 68 69 69 70 69 68 68
40 48 60 65 69 69 70 70 70 70 69 69 69 69 70 71 71 71 71 71 71 72 71 71 71 71 70 70 68 67 66 66 64 62 57 61 67 68 69 70 69 68 68
38 41 43 50 59 65 68 69 69 69 70 69 69 69 69 66 65 67 69 69 70 71 70 71 71 71 70 69 68 67 66 64 62 60 57 65 66 68 68 70 69 68 67
36 37 37 47 51 60 62 63 69 69 68 68 67 67 69 67 65 64 64 67 69 70 70 70 69 70 70 65 64 67 66 63 60 58 56 64 65 67 68 69 68 69 68
40 43 50 54 60 55 59 60 62 63 64 66 68 69 69 69 68 67 66 66 67 69 68 68 67 67 65 64 61 65 64 63 60 57 57 64 65 66 66 68 67 69 68
43 46 51 53 57 63 66 61 59 59 60 61 63 68 69 68 68 68 67 67 66 65 66 66 67 66 66 65 64 63 62 60 58 56 58 64 64 66 67 67 68 68 68
44 47 49 50 53 57 61 62 68 68 65 65 66 67 68 67 68 68 68 68 67 67 66 65 66 66 66 66 66 65 65 63 61 59 57 63 64 65 67 67 67 67 68
44 45 47 48 51 54 55 57 59 61 63 66 65 63 64 65 67 68 68 67 67 68 67 67 66 66 67 67 66 66 66 65 65 62 59 63 64 64 65 67 68 68 69
42 44 44 45 47 50 53 52 54 56 59 59 60 59 58 59 59 61 64 66 66 67 66 67 66 66 66 66 66 66 67 66 65 65 65 59 64 64 64 66 67 68 68
41 42 42 43 45 47 47 50 50 52 53 52 53 53 54 54 55 56 58 61 63 63 64 65 66 65 65 66 66 67 66 67 66 66 65 65 63 63 64 64 65 66 67
41 41 41 41 42 44 45 47 48 49 48 49 49 50 51 52 52 53 54 57 58 58 61 62 63 64 64 64 64 65 66 66 66 67 66 65 66 65 65 64 63 64 65
40 40 39 40 41 41 42 44 45 46 48 46 46 48 48 49 50 51 50 52 52 52 53 55 59 60 62 62 63 64 64 65 66 66 66 66 66 65 65 65 65 63 63
39 38 38 39 40 39 38 39 41 42 44 45 45 46 46 47 48 48 48 49 49 49 51 52 53 53 54 58 61 62 63 64 63 65 63 62 62 61 63 65 65 66 64
38 38 38 38 38 39 39 40 39 41 42 42 42 43 44 44 45 44 45 46 47 47 48 50 50 50 50 51 55 57 56 58 63 63 62 61 61 57 59 61 62 64 65
38 38 38 38 38 39 40 39 40 39 38 38 39 40 41 43 43 43 43 43 44 45 45 47 48 49 49 50 51 53 53 51 53 61 62 62 61 59 58 58 60 62 63
37 38 37 38 37 38 39 38 39 38 38 39 38 39 39 41 41 41 41 41 41 42 43 44 45 46 47 47 49 49 51 54 52 53 58 61 61 60 59 58 58 60 61
37 37 37 37 37 37 37 37 37 37 36 37 38 38 38 38 39 39 39 39 40 40 41 42 43 44 45 46 47 48 50 49 51 53 52 54 58 59 60 61 61 61 61
36 36 36 36 35 36 36 36 36 36 35 35 35 35 36 36 37 37 37 38 38 39 39 40 41 42 43 45 46 47 48 48 49 49 50 52 53 54 56 59 61 62 62

GFSSE_sfc_30mbdewp_132.txt.gz
Dewpoint
62 68 71 71 71 72 72 70 70 70 70 71 72 72 72 72 72 72 72 72 73 72 71 71 71 71 70 70 70 69 70 70 71 71 71 71 70 70 69 68 67 67 71
64 67 70 71 71 72 72 71 70 70 70 71 72 72 73 72 72 72 72 72 72 72 71 71 71 71 71 72 70 69 69 70 70 71 71 70 70 69 68 69 67 69 70
65 69 68 70 71 71 72 71 70 70 70 71 72 72 72 72 72 72 72 72 73 72 72 71 71 71 72 70 69 68 69 70 69 71 71 69 69 69 69 68 67 69 70
66 67 67 70 70 71 71 71 71 71 70 70 71 72 72 72 71 72 72 72 73 73 72 71 71 70 70 68 68 68 68 69 69 69 69 67 66 69 69 68 68 69 70
62 66 69 69 70 70 71 71 71 71 70 71 71 72 72 72 71 72 72 71 72 73 73 71 70 70 68 67 67 67 67 67 68 68 66 67 67 68 69 69 69 69 69
67 70 70 70 69 70 70 71 71 72 72 71 71 72 72 72 71 72 72 71 72 73 73 71 71 70 67 67 67 67 67 67 67 66 66 66 67 69 69 69 67 67 68
64 70 69 70 70 70 69 70 70 71 71 72 71 72 72 72 72 71 71 72 72 73 73 72 72 72 69 67 67 67 66 66 66 63 65 66 68 69 69 68 69 68 68
64 70 70 70 70 70 70 70 69 69 70 71 71 72 72 72 72 71 71 71 72 73 73 73 72 72 71 69 67 67 66 66 64 63 62 66 67 69 69 68 68 68 68
54 62 68 71 70 70 70 70 70 69 69 69 70 71 72 72 72 71 71 71 71 72 72 72 72 71 71 70 68 67 66 65 65 63 63 67 67 69 70 69 69 67 68
50 49 49 57 65 72 71 69 70 70 69 69 69 69 70 71 71 71 71 71 71 71 71 71 72 71 71 70 69 68 67 66 65 64 62 65 69 69 70 70 69 68 68
43 47 59 61 63 61 64 70 70 70 69 69 69 69 69 69 68 70 71 70 70 70 70 71 71 71 70 70 70 68 67 66 64 63 62 66 68 69 70 70 69 69 68
44 50 54 58 59 64 64 68 71 71 70 70 69 68 69 69 68 66 67 68 69 69 70 70 70 70 70 70 69 69 67 66 64 63 61 66 69 69 70 70 69 69 68
45 50 51 52 56 59 62 66 66 67 70 70 69 69 70 70 69 68 68 67 69 69 69 69 69 69 69 68 66 66 66 65 64 63 61 65 68 69 69 69 69 69 68
46 48 49 51 54 56 59 59 62 64 67 69 68 67 67 68 68 68 68 68 67 67 68 67 67 67 67 65 65 64 66 66 64 63 61 64 66 68 69 69 69 68 69
44 46 47 48 51 54 56 57 57 60 61 63 63 63 64 67 68 68 68 68 67 66 66 66 66 67 67 66 66 66 65 66 64 61 61 64 65 66 67 68 68 68 68
43 44 46 47 49 51 53 54 55 56 56 58 58 57 58 59 60 61 64 67 67 67 67 67 65 64 65 66 66 66 66 66 66 65 62 64 64 65 67 68 68 69 69
42 43 44 45 47 49 49 53 51 52 54 54 54 54 56 56 56 58 60 61 63 64 63 63 65 65 64 64 64 64 66 66 66 66 66 65 64 63 65 66 68 68 69
42 43 43 43 44 47 49 50 51 50 50 52 51 52 53 53 54 54 56 59 62 60 62 61 62 62 63 64 64 65 64 65 66 65 66 65 65 64 64 65 66 67 68
41 41 41 43 43 43 45 48 48 49 49 49 49 50 50 51 51 52 53 55 55 56 57 60 60 61 62 62 63 63 63 64 59 61 64 65 65 66 66 64 64 65 66
40 40 40 41 43 42 42 43 45 46 47 47 47 48 48 49 49 48 48 49 50 50 51 52 53 54 55 57 58 62 63 63 62 63 63 64 65 64 62 64 65 64 63
40 40 40 40 41 42 41 41 41 42 44 43 43 44 46 46 46 46 46 46 47 47 48 49 49 49 50 52 53 55 59 61 63 64 64 64 62 62 61 60 59 64 65
39 40 39 39 40 41 40 41 42 41 43 42 43 43 44 44 45 43 43 44 43 45 45 45 47 46 48 49 50 51 52 54 61 63 64 64 62 60 60 59 59 59 62
38 39 38 38 39 40 40 40 40 41 41 41 41 42 42 43 43 42 42 42 42 43 43 44 44 44 44 45 48 49 49 49 50 53 58 62 62 61 60 59 59 60 62
38 38 38 38 38 38 39 38 38 38 37 38 39 39 40 41 41 40 40 41 40 40 41 41 42 42 44 43 45 47 47 49 49 48 52 54 61 62 61 60 58 59 59
37 38 38 37 37 37 37 37 37 37 37 36 36 37 37 38 39 38 38 38 38 38 39 40 40 41 42 43 44 45 46 47 47 48 48 50 52 56 59 61 60 59 58
36 36 35 35 35 36 36 36 35 35 35 35 34 34 34 35 36 36 36 37 37 37 37 37 39 39 41 42 43 44 44 45 46 47 46 46 48 49 51 53 58 61 61